Date StartTime U_cm/s V_cm/s W_cm/s Ustd_cm/s Vstd_cm/s Wstd_cm/s Uvar_(cm/s)^2 Vvar_(cm/s)^2 Wvar_(cm/s)^2 KE_(m/s)^2 TurbulentKE_(m/s)^2 HorizWindSpeed_cm/s FrictionSpeec_cm/s DragCoef SpeedOfSound_m/s SonicTemperature_C Pressure_mb 
03/14/2014  00:00:00      -71.340      -30.325      -13.063       23.248       18.639       14.908      540.486      347.416      222.260        0.364        0.056       77.518       10.896        0.020      336.127        7.219      862.091
03/14/2014  00:01:00      -54.516      -34.355      -16.293       32.079       21.906       17.843     1029.048      479.864      318.360        0.312        0.091       64.438       16.520        0.066      336.052        7.093      862.096
03/14/2014  00:02:00      -88.364      -42.921       -1.353       61.765       24.129       21.348     3814.867      582.228      455.744        0.725        0.243       98.237       31.631        0.104      336.000        7.008      862.102
03/14/2014  00:03:00      -92.300      -42.012      -10.348       43.900       29.390       20.017     1927.228      863.800      400.676        0.679        0.160      101.412       15.210        0.022      335.985        6.983      862.099
03/14/2014  00:04:00      -57.545      -42.025        5.980       53.564       29.558       20.200     2869.078      873.687      408.023        0.463        0.208       71.256       24.424        0.117      335.982        6.977      862.099
03/14/2014  00:05:00      -55.021      -40.236       -1.475       24.670       19.861       16.841      608.603      394.453      283.633        0.297        0.064       68.164       11.854        0.030      336.059        7.107      862.085
03/14/2014  00:06:00      -64.933      -32.799       -6.610       33.731       22.042       17.431     1137.760      485.836      303.836        0.363        0.096       72.746       18.240        0.063      336.009        7.022      862.074
03/14/2014  00:07:00      -54.072      -17.162       -2.438       22.816       28.546       14.811      520.585      814.867      219.367        0.239        0.078       56.731       10.146        0.032      336.077        7.135      862.058
03/14/2014  00:08:00      -60.518      -22.090      -12.184       18.115       29.049       13.474      328.153      843.831      181.538        0.283        0.068       64.424        7.283        0.013      336.112        7.195      862.061
03/14/2014  00:09:00      -15.253      -22.597       -1.861       30.071       15.134       24.099      904.237      229.053      580.764        0.123        0.086       27.263       18.445        0.458      336.122        7.210      862.058
03/14/2014  00:10:00     -108.224      -38.296      -11.788       34.644       20.736       15.412     1200.192      429.997      237.531        0.759        0.093      114.800       16.047        0.020      335.952        6.928      862.058
03/14/2014  00:11:00     -124.289       -2.384      -20.064       20.761       20.318       14.923      431.029      412.819      222.708        0.846        0.053      124.312        7.479        0.004      335.883        6.813      862.071
03/14/2014  00:12:00      -70.131      -20.926       -8.929       34.471       24.181       17.462     1188.222      584.742      304.937        0.376        0.104       73.187       16.455        0.051      335.967        6.954      862.059
03/14/2014  00:13:00      -51.232      -19.777      -14.056       21.697       12.349        7.012      470.745      152.495       49.175        0.194        0.034       54.917        6.133        0.012      335.925        6.884      862.050
03/14/2014  00:14:00       -4.393        9.882       -6.600       17.019       11.865       10.801      289.645      140.768      116.671        0.035        0.027       10.814        8.435        0.608      336.539        7.908      862.062
03/14/2014  00:15:00      -27.537       -7.475       -5.259       23.290       13.883        7.752      542.412      192.738       60.093        0.082        0.040       28.534        8.273        0.084      336.378        7.639      862.066
03/14/2014  00:16:00      -37.594      -24.933      -11.151        8.759       10.286        8.476       76.715      105.793       71.834        0.121        0.013       45.110        4.641        0.011      336.181        7.311      862.064
03/14/2014  00:17:00      -35.901      -30.465       -2.194       15.963       13.025       14.897      254.806      169.650      221.923        0.143        0.032       47.085       10.007        0.045      336.014        7.031      862.069
03/14/2014  00:18:00      -14.238       -9.551        0.073       17.771       13.850       14.299      315.818      191.815      204.474        0.050        0.036       17.144        8.526        0.247      335.877        6.804      862.076
03/14/2014  00:19:00      -43.058       -3.343      -10.452       22.741       10.802       12.430      517.139      116.679      154.513        0.138        0.039       43.187        8.245        0.036      336.042        7.079      862.071
03/14/2014  00:20:00      -38.617      -19.629       -7.958       21.418       14.158        7.250      458.729      200.447       52.555        0.133        0.036       43.319        7.291        0.028      336.344        7.583      862.062
03/14/2014  00:21:00      -58.771      -35.156      -10.038       22.630       18.070       13.714      512.104      326.530      188.076        0.291        0.051       68.484        8.680        0.016      335.857        6.770      862.076
03/14/2014  00:22:00       -9.910       -9.102       -6.700       27.928       22.246       13.024      779.990      494.873      169.629        0.083        0.072       13.456       16.462        1.497      336.405        7.686      862.061
03/14/2014  00:23:00      -24.913       -0.316       -0.610       31.190       21.153       12.188      972.838      447.466      148.545        0.109        0.078       24.915       10.144        0.166      336.767        8.288      862.048
03/14/2014  00:24:00     -111.460      -12.356      -17.667       27.680       22.717       17.661      766.178      516.058      311.903        0.724        0.080      112.143       12.799        0.013      335.740        6.575      862.059
03/14/2014  00:25:00      -59.272      -25.848      -11.139       29.335        9.589       10.349      860.523       91.941      107.093        0.268        0.053       64.663        8.983        0.019      336.090        7.159      862.052
03/14/2014  00:26:00      -53.089      -25.130      -10.406       29.261       14.670        9.561      856.177      215.202       91.408        0.236        0.058       58.736       13.376        0.052      336.374        7.632      862.046
03/14/2014  00:27:00     -110.397      -25.080      -26.301       21.770       21.824       16.879      473.930      476.269      284.908        0.737        0.062      113.210        8.287        0.005      335.670        6.459      862.043
03/14/2014  00:28:00     -100.559      -23.921      -18.232       17.397       18.289       13.626      302.638      334.476      185.672        0.592        0.041      103.365        7.829        0.006      335.622        6.379      862.026
03/14/2014  00:29:00     -133.909      -10.591      -28.639       17.016       11.168       11.956      289.556      124.720      142.942        0.971        0.028      134.327        6.496        0.002      335.630        6.393      862.025
03/14/2014  00:30:00     -101.027       -6.260      -18.255       21.059       22.265       15.537      443.475      495.739      241.405        0.588        0.059      101.221       12.272        0.015      335.649        6.422      862.008
03/14/2014  00:31:00      -59.790       -8.657      -17.225       26.072       11.078       10.789      679.724      122.723      116.399        0.243        0.046       60.414        8.597        0.020      336.211        7.362      861.990
03/14/2014  00:32:00      -54.011       -9.682      -10.435       29.852       19.452        8.366      891.156      378.387       69.995        0.223        0.067       54.871        5.376        0.010      336.506        7.854      861.981
03/14/2014  00:33:00      -69.072      -29.081      -13.627       22.737       16.370       11.829      516.994      267.968      139.930        0.336        0.046       74.944        8.622        0.013      335.727        6.555      861.979
03/14/2014  00:34:00      -28.064       -8.924       -5.083       13.906       16.914       12.842      193.370      286.091      164.921        0.077        0.032       29.449        9.789        0.110      336.268        7.457      861.963
03/14/2014  00:35:00      -63.845      -16.061      -10.296       38.715       19.951       10.630     1498.814      398.023      113.006        0.322        0.100       65.834       16.204        0.061      336.228        7.390      861.980
03/14/2014  00:36:00      -93.048      -12.622      -13.272       21.520       31.607       22.924      463.128      998.974      525.529        0.549        0.099       93.900       12.344        0.017      335.660        6.442      861.979
03/14/2014  00:37:00      -79.903      -20.077       -6.879       25.677       30.738       16.721      659.311      944.836      279.588        0.436        0.094       82.386       13.427        0.027      335.575        6.301      861.983
03/14/2014  00:38:00     -115.476      -21.540      -17.832       26.458       27.606       15.145      700.007      762.105      229.367        0.790        0.085      117.468       10.525        0.008      335.527        6.220      862.000
03/14/2014  00:39:00      -79.349       -7.343      -10.804       25.839       19.969       17.406      667.636      398.752      302.968        0.392        0.068       79.688       16.350        0.042      335.534        6.232      862.003
03/14/2014  00:40:00      -77.422      -15.783      -12.957       16.968       14.114        9.023      287.917      199.216       81.409        0.349        0.028       79.015        7.508        0.009      335.709        6.524      861.983
03/14/2014  00:41:00     -113.945      -23.855      -16.463       24.348       16.655       13.964      592.818      277.391      194.991        0.744        0.053      116.415       10.188        0.008      335.580        6.308      861.972
03/14/2014  00:42:00      -98.314      -28.798      -14.730       22.843       27.476       14.283      521.797      754.952      204.007        0.610        0.074      102.445        9.345        0.008      335.544        6.249      861.978
03/14/2014  00:43:00      -96.304      -23.737      -19.647       10.966       16.464        7.625      120.249      271.066       58.138        0.534        0.022       99.186        6.752        0.005      335.608        6.355      861.967
03/14/2014  00:44:00     -109.566      -38.856      -23.507       18.316       18.258       14.611      335.474      333.351      213.483        0.747        0.044      116.252        3.501        0.001      335.617        6.372      861.974
03/14/2014  00:45:00     -116.939      -34.788      -17.649       29.372       31.634       17.815      862.735     1000.689      317.370        0.869        0.109      122.004       12.925        0.011      335.484        6.149      861.991
03/14/2014  00:46:00     -112.025      -41.247      -17.933       21.622       31.426       15.107      467.513      987.622      228.212        0.813        0.084      119.377       11.603        0.009      335.448        6.088      861.997
03/14/2014  00:47:00     -115.560      -74.502      -17.337       39.230       38.284       23.002     1538.974     1465.687      529.072        1.137        0.177      137.494       17.475        0.016      335.483        6.147      862.012
03/14/2014  00:48:00      -83.903      -26.446       -0.526       33.165       22.844       21.533     1099.908      521.828      463.656        0.491        0.104       87.972       19.029        0.047      335.513        6.196      862.030
03/14/2014  00:49:00     -134.688       -7.276      -13.927       31.544       27.424       15.571      995.017      752.096      242.462        1.019        0.099      134.885       10.342        0.006      335.489        6.157      862.039
03/14/2014  00:50:00     -133.136      -23.173       -7.872       58.024       54.330       33.824     3366.748     2951.777     1144.068        1.289        0.373      135.137       30.711        0.052      335.388        5.986      862.059
03/14/2014  00:51:00      -25.715      -18.712        4.407       48.213       28.301       17.420     2324.536      800.937      303.457        0.223        0.171       31.803       19.836        0.389      335.402        6.011      862.087
03/14/2014  00:52:00      -96.542      -61.755      -19.433       32.792       24.750       20.674     1075.303      612.579      427.400        0.781        0.106      114.604       10.900        0.009      335.366        5.952      862.100
03/14/2014  00:53:00      -17.016      -53.494        9.323       27.562       37.664       23.488      759.689     1418.566      551.670        0.298        0.136       56.136       18.638        0.110      335.474        6.131      862.090
03/14/2014  00:54:00      -67.470      -10.181       -7.494       27.226       20.418       18.403      741.282      416.886      338.666        0.310        0.075       68.234       15.630        0.052      335.537        6.237      862.074
03/14/2014  00:55:00     -117.873      -22.678      -18.361       17.611       14.379       10.781      310.145      206.753      116.221        0.769        0.032      120.035        7.975        0.004      335.468        6.121      862.058
03/14/2014  00:56:00      -74.903      -28.369      -14.588       30.661       19.272       13.909      940.085      371.422      193.448        0.407        0.075       80.095       12.580        0.025      335.462        6.111      862.038
03/14/2014  00:57:00      -83.936      -17.837      -14.214       23.614       17.911       10.486      557.644      320.793      109.962        0.428        0.049       85.811        9.418        0.012      335.545        6.251      862.029
03/14/2014  00:58:00     -109.155      -12.491      -16.146       12.063       13.468       10.756      145.507      181.386      115.697        0.639        0.022      109.867        6.103        0.003      335.377        5.971      862.027
03/14/2014  00:59:00     -101.441      -20.984      -10.795       29.369       22.252       14.604      862.531      495.136      213.288        0.621        0.079      103.589       11.455        0.012      335.401        6.011      862.047
03/14/2014  01:00:00      -86.455        5.757      -16.916       18.330       14.990       13.379      335.971      224.700      178.994        0.427        0.037       86.647        9.810        0.013      335.412        6.027      862.042
03/14/2014  01:01:00      -49.871       10.534       -7.273       20.510       20.302       10.028      420.651      412.185      100.563        0.179        0.047       50.972        8.466        0.028      335.925        6.884      862.049
03/14/2014  01:02:00      -57.193        1.557       -5.808       20.109       21.907        9.462      404.374      479.901       89.532        0.214        0.049       57.214        8.095        0.020      336.188        7.323      862.054
03/14/2014  01:03:00     -101.922      -11.592      -18.793       15.518       14.378       11.208      240.816      206.737      125.610        0.572        0.029      102.579        4.301        0.002      335.350        5.924      862.058
03/14/2014  01:04:00      -86.636        9.257      -15.789       29.029       12.365       10.505      842.701      152.902      110.348        0.447        0.055       87.129        9.280        0.011      335.540        6.241      862.062
03/14/2014  01:05:00      -28.665       29.962       -6.828       14.520       11.458        5.444      210.832      131.294       29.641        0.107        0.019       41.466        3.692        0.008      336.423        7.715      862.049
03/14/2014  01:06:00      -31.458      -10.595       -7.038       10.757       29.484        9.768      115.713      869.308       95.416        0.112        0.054       33.195        9.794        0.087      336.105        7.183      862.045
03/14/2014  01:07:00      -35.803      -42.422       -7.245       15.029       12.477       12.182      225.878      155.663      148.402        0.183        0.026       55.511        9.743        0.031      335.679        6.474      862.063
03/14/2014  01:08:00      -11.822      -12.244        1.378       21.716       17.342       10.447      471.585      300.748      109.146        0.059        0.044       17.020       10.458        0.378      335.934        6.899      862.056
03/14/2014  01:09:00      -18.630      -16.124       -1.399       25.847       19.675        9.955      668.086      387.089       99.107        0.088        0.058       24.639       12.452        0.255      336.249        7.424      862.055
03/14/2014  01:10:00      -95.203      -23.343      -11.221       15.491       20.072       11.436      239.971      402.893      130.785        0.525        0.039       98.023        7.666        0.006      335.464        6.115      862.087
03/14/2014  01:11:00      -45.457      -25.691       -2.049       30.917       14.106       12.769      955.845      198.987      163.051        0.202        0.066       52.214       15.235        0.085      335.438        6.072      862.087
03/14/2014  01:12:00        2.885      -31.706        3.421       15.683       23.267       18.967      245.948      541.370      359.747        0.109        0.057       31.837       10.050        0.100      335.877        6.804      862.072
03/14/2014  01:13:00        2.950      -45.136        6.306       23.550       30.667       25.525      554.592      940.437      651.543        0.212        0.107       45.233       19.692        0.190      336.093        7.163      862.061
03/14/2014  01:14:00     -101.795       14.342      -11.133       23.618       23.090       16.559      557.826      533.141      274.205        0.603        0.068      102.800       17.025        0.027      335.569        6.290      862.064
03/14/2014  01:15:00      -88.416       18.706      -10.828       38.688       14.685       13.289     1496.733      215.663      176.603        0.509        0.094       90.373        9.718        0.012      335.519        6.207      862.069
03/14/2014  01:16:00      -37.424        4.280       -8.049       43.846       29.075       11.386     1922.448      845.367      129.643        0.219        0.145       37.668       18.277        0.235      335.882        6.812      862.057
03/14/2014  01:17:00     -204.210      -30.302      -14.585       72.255       46.302       34.644     5220.775     2143.891     1200.202        2.570        0.428      206.446       31.111        0.023      335.092        5.494      862.090
03/14/2014  01:18:00     -112.612       60.231      -15.949       67.094       56.981       32.945     4501.667     3246.781     1085.383        1.270        0.442      127.708       25.879        0.041      335.373        5.964      862.105
03/14/2014  01:19:00       -6.916       78.083       -4.668       30.516       23.817       13.697      931.219      567.229      187.599        0.393        0.084       78.389       13.061        0.028      336.359        7.609      862.062
03/14/2014  01:20:00      -32.311        5.374       -3.492       33.625       31.177       18.927     1130.645      972.016      358.224        0.177        0.123       32.755       16.056        0.240      335.938        6.905      862.059
03/14/2014  01:21:00      -35.252        1.351       -9.913       33.992       16.620       16.786     1155.443      276.226      281.755        0.153        0.086       35.278       15.517        0.193      336.009        7.024      862.082
03/14/2014  01:22:00      -91.652      -26.270       -8.769       44.181       18.220       18.549     1951.963      331.968      344.055        0.590        0.131       95.342       20.896        0.048      335.852        6.762      862.081
03/14/2014  01:23:00      -86.903      -25.575       -7.142       25.902       24.878       20.600      670.930      618.898      424.356        0.499        0.086       90.589       14.153        0.024      335.546        6.251      862.103
03/14/2014  01:24:00      -71.548      -34.219      -11.610        9.373       13.288        8.030       87.844      176.577       64.480        0.338        0.016       79.310        4.356        0.003      335.711        6.528      862.116
03/14/2014  01:25:00     -125.898        6.531      -13.693       46.999       25.717       19.177     2208.880      661.369      367.775        0.966        0.162      126.067       15.054        0.014      335.496        6.169      862.120
03/14/2014  01:26:00      -91.586      -13.331       -8.470       39.011       22.084       21.382     1521.840      487.717      457.191        0.555        0.123       92.551       18.211        0.039      335.344        5.915      862.138
03/14/2014  01:27:00     -133.271      -20.524      -13.652       35.698       27.505       22.507     1274.348      756.536      506.580        1.045        0.127      134.842       17.055        0.016      335.253        5.763      862.140
03/14/2014  01:28:00      -60.010      -22.538       -9.389       28.627       19.282       14.673      819.522      371.791      215.298        0.280        0.070       64.103       14.524        0.051      335.265        5.782      862.125
03/14/2014  01:29:00      -31.266       -0.210       -4.246       13.498       11.025       12.671      182.193      121.556      160.563        0.073        0.023       31.267        9.964        0.102      335.561        6.278      862.118
03/14/2014  01:30:00      -60.354       -0.012      -13.867       20.446       14.377       10.549      418.033      206.688      111.286        0.229        0.037       60.354       10.163        0.028      335.845        6.750      862.110
03/14/2014  01:31:00      -81.041      -18.766      -14.507       13.513       13.935       13.246      182.611      194.198      175.466        0.384        0.028       83.185        5.037        0.004      335.463        6.114      862.115
03/14/2014  01:32:00      -59.522      -19.077      -10.558        9.708       10.896        8.428       94.254      118.713       71.029        0.215        0.014       62.504        6.029        0.009      335.644        6.415      862.124
03/14/2014  01:33:00      -58.185      -23.927      -14.680       11.383       11.172        8.693      129.566      124.808       75.561        0.225        0.016       62.913        7.139        0.013      335.597        6.336      862.141
03/14/2014  01:34:00      -73.561      -12.991      -16.049       16.773        9.221        9.223      281.339       85.032       85.071        0.314        0.023       74.699        6.298        0.007      335.481        6.143      862.147
03/14/2014  01:35:00      -51.491      -24.409      -11.125       12.838       15.632        9.016      164.824      244.364       81.285        0.193        0.025       56.983        2.762        0.002      335.529        6.224      862.167
03/14/2014  01:36:00      -28.040      -30.905        1.514        9.797       10.894       16.751       95.988      118.674      280.585        0.112        0.025       41.730        8.861        0.045      335.682        6.479      862.180
03/14/2014  01:37:00      -41.111      -33.456       -5.788       15.658       12.412        9.659      245.164      154.046       93.301        0.167        0.025       53.004        7.683        0.021      335.681        6.479      862.197
03/14/2014  01:38:00      -76.371      -36.227      -14.052       19.183       16.516        9.947      368.001      272.777       98.944        0.404        0.037       84.528        4.591        0.003      335.410        6.025      862.202
03/14/2014  01:39:00     -113.505      -27.801      -18.601       11.169        8.082        7.918      124.758       65.325       62.699        0.713        0.013      116.860        3.537        0.001      335.364        5.948      862.221
03/14/2014  01:40:00     -105.000      -15.088      -24.104       20.855       15.574        8.454      434.925      242.538       71.475        0.629        0.037      106.078        4.816        0.002      335.322        5.877      862.243
03/14/2014  01:41:00      -64.498        3.845      -15.143       18.390        8.859        4.423      338.197       78.478       19.560        0.242        0.022       64.613        5.193        0.006      335.744        6.581      862.243
03/14/2014  01:42:00      -82.124      -10.131       -8.799       34.859       21.849       12.595     1215.178      477.391      158.639        0.439        0.093       82.747       16.058        0.038      335.858        6.771      862.251
03/14/2014  01:43:00     -150.189      -22.170      -13.464       24.232       22.446       14.283      587.179      503.840      204.012        1.226        0.065      151.817       11.485        0.006      335.352        5.929      862.272
03/14/2014  01:44:00      -97.847       20.907      -15.020       32.055       31.268       22.529     1027.496      977.676      507.568        0.637        0.126      100.056       18.228        0.033      335.446        6.084      862.288
03/14/2014  01:45:00      -40.741       36.593      -13.533       27.017       30.926        9.822      729.944      956.424       96.471        0.248        0.089       54.762       13.240        0.058      336.241        7.408      862.282
03/14/2014  01:46:00      -76.595      -37.024      -11.401       23.847       20.612       10.996      568.676      424.848      120.905        0.424        0.056       85.074       10.366        0.015      335.553        6.263      862.276
03/14/2014  01:47:00      -71.947      -37.591       -5.798       27.442       27.785       20.518      753.066      772.019      421.007        0.428        0.097       81.175       16.528        0.041      335.300        5.841      862.285
03/14/2014  01:48:00      -29.750      -13.285       -0.330       28.419       15.026       15.067      807.633      225.792      227.015        0.116        0.063       32.581       10.098        0.096      335.218        5.705      862.286
03/14/2014  01:49:00      -16.878      -28.267        0.667       31.853       14.287       13.822     1014.643      204.125      191.036        0.125        0.070       32.922       13.687        0.173      335.293        5.830      862.280
03/14/2014  01:50:00      -81.296        3.168       -9.891       29.510       24.284       15.591      870.868      589.689      243.085        0.421        0.085       81.358       13.683        0.028      335.273        5.796      862.276
03/14/2014  01:51:00      -88.409       17.129      -11.302       24.273       17.604       17.319      589.160      309.916      299.935        0.472        0.060       90.053       16.775        0.035      335.408        6.021      862.264
03/14/2014  01:52:00      -88.073      -38.919       -9.451       22.876       21.204       14.961      523.318      449.590      223.817        0.528        0.060       96.289       13.525        0.020      335.273        5.797      862.274
03/14/2014  01:53:00      -58.792      -12.132       -5.089       25.172       21.968       14.849      633.620      482.589      220.504        0.248        0.067       60.031       15.018        0.063      335.223        5.713      862.269
03/14/2014  01:54:00      -44.298       -7.056        5.435       14.054       14.320        9.765      197.521      205.075       95.354        0.127        0.025       44.857        8.316        0.034      335.579        6.307      862.254
03/14/2014  01:55:00      -73.940      -27.003      -16.621       11.456       18.199       11.478      131.245      331.209      131.752        0.353        0.030       78.717       10.067        0.016      335.558        6.272      862.264
03/14/2014  01:56:00      -66.625       -8.261      -12.154       12.138        8.459        6.094      147.332       71.557       37.141        0.246        0.013       67.135        3.779        0.003      335.405        6.017      862.270
03/14/2014  01:57:00      -51.983      -21.805      -11.146        6.917       11.012        6.283       47.840      121.267       39.478        0.176        0.010       56.371        2.499        0.002      335.420        6.041      862.286
03/14/2014  01:58:00      -71.350      -21.053      -15.319       11.017       11.109        8.248      121.370      123.415       68.025        0.304        0.016       74.391        3.390        0.002      335.216        5.702      862.305
03/14/2014  01:59:00      -35.408       -9.163       -8.888       24.919       14.158        7.125      620.946      200.450       50.765        0.114        0.044       36.574        9.067        0.061      335.596        6.334      862.304
03/14/2014  02:00:00       -8.989       -5.199        1.045       19.471       14.542        6.191      379.100      211.460       38.328        0.037        0.031       10.384        7.588        0.534      336.132        7.228      862.288
03/14/2014  02:01:00     -109.726      -41.076      -13.268       21.346       13.182       12.916      455.660      173.758      166.834        0.735        0.040      117.163        9.035        0.006      335.113        5.531      862.304
03/14/2014  02:02:00     -122.383      -31.152      -20.986       20.247       15.260       11.788      409.927      232.880      138.958        0.858        0.039      126.286        7.056        0.003      334.917        5.205      862.314
03/14/2014  02:03:00      -92.675      -29.066      -14.161       18.855       23.153       15.931      355.497      536.069      253.787        0.539        0.057       97.126       11.082        0.013      334.928        5.226      862.312
03/14/2014  02:04:00      -86.813      -13.779       -9.664       23.284       18.385       13.159      542.139      338.020      173.149        0.444        0.053       87.900       13.346        0.023      334.950        5.261      862.311
03/14/2014  02:05:00      -46.854       10.294      -14.260       14.367       16.093        9.765      206.397      258.980       95.355        0.153        0.028       47.972       11.314        0.056      335.376        5.968      862.292
03/14/2014  02:06:00      -87.555      -25.440      -17.755       28.692       11.974        7.303      823.249      143.369       53.328        0.482        0.051       91.176        6.800        0.006      335.272        5.795      862.292
03/14/2014  02:07:00     -161.477      -66.165      -25.370       14.492       23.310       15.225      210.028      543.374      231.801        1.604        0.049      174.507        9.192        0.003      334.975        5.304      862.316
03/14/2014  02:08:00      -95.368      -37.567      -17.944       20.873       25.560       13.274      435.676      653.312      176.211        0.605        0.063      102.500       10.747        0.011      334.990        5.327      862.322
03/14/2014  02:09:00      -52.230       19.151       -4.925        9.924       22.941        7.550       98.487      526.303       56.998        0.190        0.034       55.631        7.434        0.018      335.461        6.111      862.299
03/14/2014  02:10:00      -68.855       11.230      -13.772       19.148       17.889        9.738      366.658      320.021       94.833        0.292        0.039       69.765        9.429        0.018      335.702        6.511      862.308
03/14/2014  02:11:00     -111.600      -28.385      -21.839       29.010       24.043       15.349      841.606      578.085      235.585        0.770        0.083      115.153       15.063        0.017      335.101        5.513      862.343
03/14/2014  02:12:00     -108.989      -40.869       -9.183       42.560       38.816       23.380     1811.341     1506.664      546.614        0.875        0.193      116.399       12.875        0.012      334.889        5.158      862.360
03/14/2014  02:13:00      -75.857        3.275       -4.088       31.270       29.405       16.660      977.815      864.640      277.547        0.395        0.106       75.927       19.376        0.065      335.080        5.476      862.339
03/14/2014  02:14:00      -37.245       65.436      -10.487       30.592       20.475       13.779      935.879      419.230      189.848        0.366        0.077       75.293       12.046        0.026      335.831        6.727      862.309
03/14/2014  02:15:00        6.533      106.703      -12.490        9.610       19.260        9.040       92.347      370.954       81.713        0.606        0.027      106.903        6.072        0.003      335.653        6.430      862.286
03/14/2014  02:16:00      -30.476       47.204      -12.406       32.588       59.055       15.644     1061.981     3487.495      244.741        0.405        0.240       56.188       11.207        0.040      335.852        6.762      862.299
03/14/2014  02:17:00     -130.202      -50.991      -16.157       31.954       24.094       19.202     1021.063      580.528      368.715        1.089        0.099      139.831       14.523        0.011      335.065        5.451      862.344
03/14/2014  02:18:00     -127.433      -13.962      -14.141       26.149       24.405       18.378      683.766      595.626      337.735        0.913        0.081      128.195       13.857        0.012      335.068        5.457      862.360
03/14/2014  02:19:00      -86.714        7.908      -12.059       18.048       23.382       15.193      325.716      546.711      230.815        0.442        0.055       87.074        7.483        0.007      335.280        5.810      862.352
03/14/2014  02:20:00       18.781       71.722      -14.850       33.687       16.282        8.633     1134.792      265.111       74.527        0.360        0.074       74.140       10.606        0.020      336.282        7.478      862.327
03/14/2014  02:21:00       28.848       76.800      -13.124       25.390       19.088       10.317      644.667      364.353      106.433        0.401        0.056       82.040        9.308        0.013      336.326        7.552      862.321
03/14/2014  02:22:00      -56.816       20.131      -13.153       39.766       49.653       10.499     1581.357     2465.426      110.225        0.398        0.208       60.277        5.564        0.009      335.922        6.878      862.345
03/14/2014  02:23:00     -135.048      -73.820      -14.555       46.822       37.410       21.977     2192.304     1399.507      482.969        1.399        0.204      153.907       10.629        0.005      335.177        5.637      862.370
03/14/2014  02:24:00     -195.822      -63.825       -7.053       54.011       51.141       36.262     2917.184     2615.372     1314.901        2.466        0.342      205.961       30.340        0.022      335.168        5.621      862.393
03/14/2014  02:25:00     -119.014        1.324      -16.331       30.079       30.552       17.716      904.738      933.413      313.850        0.829        0.108      119.021       12.659        0.011      335.277        5.803      862.399
03/14/2014  02:26:00      -72.305       37.054      -13.019       26.772       28.701       15.135      716.730      823.773      229.063        0.427        0.088       81.247       14.862        0.033      335.589        6.324      862.373
03/14/2014  02:27:00       11.336       42.981        0.684       20.797       12.484       10.966      432.510      155.850      120.254        0.134        0.035       44.451        7.597        0.029      336.197        7.337      862.334
03/14/2014  02:28:00      -25.087       -9.345       -6.035       37.649       30.259       10.471     1417.471      915.616      109.643        0.160        0.122       26.771       14.170        0.280      335.947        6.919      862.334
03/14/2014  02:29:00     -125.312      -39.980      -16.662       31.471       25.477       19.787      990.416      649.053      391.517        0.980        0.102      131.536        6.508        0.002      335.260        5.774      862.361
03/14/2014  02:30:00     -111.747      -68.578       -2.795       50.085       45.740       26.392     2508.461     2092.163      696.517        1.125        0.265      131.112       17.509        0.018      335.180        5.642      862.383
03/14/2014  02:31:00      -72.715       11.286      -16.023       38.650       28.412       18.446     1493.859      807.232      340.257        0.416        0.132       73.586       17.526        0.057      335.397        6.003      862.378
03/14/2014  02:32:00      -54.807       61.875       -8.187       14.063       23.751       14.905      197.779      564.107      222.148        0.394        0.049       82.658       13.302        0.026      335.650        6.425      862.348
03/14/2014  02:33:00      -20.099      103.502      -18.939       12.660       16.780       10.625      160.268      281.555      112.887        0.601        0.028      105.435        3.295        0.001      335.918        6.871      862.333
03/14/2014  02:34:00      -17.410       84.848       -9.039       18.079       24.556       14.354      326.859      602.976      206.028        0.436        0.057       86.616       12.836        0.022      336.267        7.455      862.335
03/14/2014  02:35:00      -12.722       20.887       -3.838       14.298       14.297       14.113      204.437      204.405      199.190        0.061        0.030       24.456        9.169        0.141      335.828        6.721      862.360
03/14/2014  02:36:00        4.403        9.700       12.702       12.458       13.493       12.849      155.205      182.072      165.091        0.039        0.025       10.652       11.012        1.069      335.784        6.650      862.379
03/14/2014  02:37:00        5.857      -21.471        8.267       10.718       29.310       19.208      114.886      859.071      368.958        0.095        0.067       22.256       20.427        0.842      335.494        6.164      862.380
03/14/2014  02:38:00      -37.349      -39.186       -6.464       15.075        8.071        7.641      227.259       65.140       58.383        0.166        0.018       54.134        5.461        0.010      335.591        6.328      862.385
03/14/2014  02:39:00      -47.252      -38.488       -5.161       11.028       10.858        8.069      121.613      117.897       65.115        0.202        0.015       60.944        4.515        0.005      335.472        6.127      862.396
03/14/2014  02:40:00      -63.084      -28.676      -15.387       13.656       10.571        8.758      186.498      111.747       76.706        0.271        0.019       69.296        5.030        0.005      335.568        6.288      862.418
03/14/2014  02:41:00      -85.491       -8.977      -12.534       10.647       15.319       10.256      113.368      234.661      105.176        0.400        0.023       85.962        3.996        0.002      335.430        6.059      862.448
03/14/2014  02:42:00      -93.336        7.897      -15.808       13.154       12.245       10.865      173.021      149.929      118.043        0.473        0.022       93.669        5.838        0.004      335.341        5.910      862.469
03/14/2014  02:43:00      -78.262        0.961       -9.575       16.372       17.522       12.290      268.037      307.012      151.041        0.347        0.036       78.268        9.508        0.015      335.197        5.671      862.483
03/14/2014  02:44:00      -43.853       10.411      -14.531        8.861       14.557        8.109       78.521      211.898       65.756        0.130        0.018       45.072        3.646        0.007      335.436        6.070      862.480
03/14/2014  02:45:00      -55.174        4.305       -9.522        7.454       10.552        7.790       55.566      111.349       60.691        0.169        0.011       55.341        1.393        0.001      335.486        6.154      862.485
03/14/2014  02:46:00      -35.733      -21.700       -5.789       10.698       11.025        7.719      114.458      121.546       59.581        0.104        0.015       41.806        4.858        0.014      335.336        5.901      862.498
03/14/2014  02:47:00      -78.746      -28.016      -19.647       25.885       11.322       10.964      670.023      128.195      120.216        0.414        0.046       83.581       10.016        0.014      335.125        5.552      862.505
03/14/2014  02:48:00      -86.875      -13.494      -19.516       18.261       24.367       12.894      333.481      593.739      166.244        0.460        0.055       87.917       10.311        0.014      335.018        5.374      862.507
03/14/2014  02:49:00      -24.210      -14.306       -9.761       28.189       11.519        7.674      794.610      132.681       58.894        0.094        0.049       28.121        8.424        0.090      335.332        5.895      862.486
03/14/2014  02:50:00       16.701       -6.371        5.845        9.748       10.613        8.108       95.016      112.627       65.732        0.031        0.014       17.875        3.884        0.047      335.322        5.879      862.465
03/14/2014  02:51:00      -17.262      -14.889       -3.519       28.119       10.613        6.858      790.659      112.638       47.028        0.074        0.048       22.796       10.189        0.200      335.434        6.066      862.455
03/14/2014  02:52:00      -81.344      -20.743      -12.863       10.227       17.965       10.594      104.590      322.730      112.242        0.388        0.027       83.947        7.950        0.009      334.986        5.320      862.452
03/14/2014  02:53:00      -80.486       -6.338       -9.527       21.342       26.224       15.902      455.474      687.711      252.878        0.400        0.070       80.735        6.263        0.006      334.854        5.101      862.458
03/14/2014  02:54:00      -90.195      -22.632      -13.208       26.652       13.282       14.638      710.334      176.418      214.265        0.496        0.055       92.991       12.450        0.018      334.776        4.971      862.451
03/14/2014  02:55:00      -97.962      -10.389      -10.224       16.830       11.387        9.847      283.262      129.671       96.959        0.516        0.025       98.511        5.884        0.004      334.912        5.197      862.454
03/14/2014  02:56:00      -83.652        0.397      -15.700       11.869       13.136        7.704      140.875      172.561       59.347        0.381        0.019       83.653        4.921        0.003      335.176        5.636      862.461
03/14/2014  02:57:00      -92.915      -37.050       -9.616       23.040       29.022       15.885      530.821      842.275      252.332        0.586        0.081      100.029       12.224        0.015      334.927        5.222      862.470
03/14/2014  02:58:00      -96.076      -57.218      -14.845       22.734       23.832       18.800      516.827      567.969      353.458        0.708        0.072      111.823       15.888        0.020      334.761        4.947      862.467
03/14/2014  02:59:00     -131.303      -26.204      -18.685       16.959       12.912       16.197      287.618      166.707      262.339        0.950        0.036      133.893       12.683        0.009      334.871        5.128      862.471
03/14/2014  03:00:00     -129.356       -9.748      -15.456       20.475       18.009       11.187      419.235      324.330      125.150        0.897        0.043      129.722        5.901        0.002      334.973        5.300      862.494
03/14/2014  03:01:00     -100.888      -14.205      -15.177       14.648       18.770       13.398      214.575      352.325      179.507        0.568        0.037      101.883        7.196        0.005      334.912        5.198      862.496
03/14/2014  03:02:00      -79.283      -17.681       -7.616       25.538       10.794        6.097      652.182      116.519       37.176        0.373        0.040       81.231       10.229        0.016      335.468        6.122      862.474
03/14/2014  03:03:00      -22.896      -29.309       -1.544        9.139       11.196        6.958       83.520      125.351       48.413        0.082        0.013       37.192        6.278        0.028      335.312        5.860      862.457
03/14/2014  03:04:00      -62.575      -28.176       -6.131       27.815       12.065        7.199      773.668      145.555       51.827        0.286        0.049       68.626        7.586        0.012      335.300        5.841      862.470
03/14/2014  03:05:00      -44.918      -45.285        0.004       41.537       29.306       19.109     1725.358      858.826      365.172        0.351        0.147       63.784       18.329        0.083      334.990        5.327      862.474
03/14/2014  03:06:00      -16.763      -25.579       14.509       30.381       29.367       17.732      923.014      862.415      314.418        0.162        0.105       30.583       11.864        0.150      335.181        5.642      862.459
03/14/2014  03:07:00      -16.703      -20.002       12.077       38.832       22.665       17.547     1507.958      513.720      307.902        0.158        0.116       26.059       13.814        0.281      335.293        5.831      862.439
03/14/2014  03:08:00      -56.832      -36.988        9.800       49.861       41.063       27.063     2486.091     1686.132      732.426        0.480        0.245       67.809       24.862        0.134      335.292        5.829      862.408
03/14/2014  03:09:00      -14.231      -34.387        6.062       37.392       25.633       19.572     1398.162      657.036      383.082        0.193        0.122       37.216       11.315        0.092      335.269        5.789      862.385
03/14/2014  03:10:00      -38.374      -45.934       -2.731       36.073       23.196       17.490     1301.281      538.062      305.900        0.287        0.107       59.853       12.201        0.042      335.305        5.849      862.360
03/14/2014  03:11:00      -35.867      -37.310       -3.425       29.928       21.972       20.172      895.696      482.775      406.908        0.224        0.089       51.754       13.139        0.064      335.326        5.883      862.338
03/14/2014  03:12:00       -5.231      -15.609        6.239       30.966       22.633       16.214      958.868      512.245      262.907        0.102        0.087       16.462       12.527        0.579      335.253        5.763      862.332
03/14/2014  03:13:00      -47.850      -33.107        6.974       51.773       35.704       22.554     2680.469     1274.756      508.682        0.395        0.223       58.187       22.405        0.148      335.198        5.674      862.330
03/14/2014  03:14:00     -120.075     -100.728       -5.077       54.701       51.827       38.299     2992.176     2686.034     1466.820        1.587        0.357      156.730       31.035        0.039      335.108        5.524      862.339
03/14/2014  03:15:00     -123.077     -105.359        0.391       52.500       50.828       35.133     2756.266     2583.505     1234.329        1.641        0.329      162.014       31.577        0.038      335.053        5.433      862.336
03/14/2014  03:16:00       -7.606      -52.580       -1.245       29.682       30.311       24.519      881.040      918.763      601.202        0.261        0.120       53.127       16.746        0.099      335.169        5.624      862.313
03/14/2014  03:17:00        4.424      -29.580       -0.653       13.107       19.633       19.308      171.792      385.458      372.797        0.091        0.047       29.909       13.895        0.216      335.258        5.769      862.291
03/14/2014  03:18:00      -20.183      -35.944       -2.283       42.939       32.329       17.307     1843.779     1045.185      299.535        0.245        0.159       41.223        8.979        0.047      335.207        5.685      862.272
03/14/2014  03:19:00      -56.974      -49.736        8.181       50.936       38.906       29.395     2594.442     1513.681      864.068        0.538        0.249       75.628       24.466        0.105      335.070        5.459      862.266
03/14/2014  03:20:00     -101.820      -84.269       -2.940       33.126       37.765       24.679     1097.334     1426.206      609.068        1.030        0.157      132.169       19.186        0.021      334.989        5.327      862.259
03/14/2014  03:21:00     -101.187      -47.930       -3.474       39.745       29.648       18.518     1579.654      879.015      342.915        0.767        0.140      111.964       20.627        0.034      334.898        5.175      862.241
03/14/2014  03:22:00     -108.773      -13.758       -0.948       44.489       22.593       20.593     1979.257      510.452      424.072        0.747        0.146      109.639       20.327        0.034      334.717        4.874      862.224
03/14/2014  03:23:00      -72.204       -1.946       -1.414       42.000       27.425       17.965     1763.977      752.153      322.735        0.403        0.142       72.230       19.515        0.073      334.559        4.612      862.213
03/14/2014  03:24:00      -74.220      -25.665        2.011       24.018       27.025       14.005      576.861      730.362      196.128        0.384        0.075       78.533        5.944        0.006      334.597        4.674      862.190
03/14/2014  03:25:00      -63.416      -49.046        3.291       35.002       24.033       17.233     1225.125      577.575      296.976        0.427        0.105       80.169       16.546        0.043      334.697        4.840      862.182
03/14/2014  03:26:00      -91.237      -40.488       -0.946       38.515       35.211       22.238     1483.408     1239.814      494.535        0.659        0.161       99.817       20.680        0.043      334.766        4.955      862.192
03/14/2014  03:27:00     -114.865      -10.439       -4.049       51.248       21.968       24.201     2626.361      482.578      585.707        0.851        0.185      115.339       27.605        0.057      334.672        4.799      862.196
03/14/2014  03:28:00      -64.236      -19.622       -2.354       29.983       27.135       18.041      898.970      736.302      325.484        0.324        0.098       67.166       10.644        0.025      334.623        4.718      862.191
03/14/2014  03:29:00      -81.078      -39.676       -3.411       20.423       20.354       11.099      417.106      414.285      123.197        0.456        0.048       90.265        8.386        0.009      334.582        4.649      862.187
03/14/2014  03:30:00      -48.426      -15.009       -1.780       19.341       18.690       11.766      374.068      349.314      138.444        0.172        0.043       50.698        9.028        0.032      334.582        4.649      862.176
03/14/2014  03:31:00      -50.703      -13.279       -2.533       21.409       18.365       11.749      458.328      337.276      138.038        0.184        0.047       52.413        8.921        0.029      334.615        4.703      862.174
03/14/2014  03:32:00      -84.854       -1.157       -6.343       25.112       17.125       15.056      630.596      293.278      226.683        0.420        0.058       84.862       14.800        0.030      334.680        4.812      862.183
03/14/2014  03:33:00      -46.185       12.696       -3.617       26.395       27.805       17.156      696.694      773.108      294.331        0.204        0.088       47.899       10.486        0.048      334.547        4.593      862.201
03/14/2014  03:34:00      -16.243       27.323        0.501       33.619       18.345       16.376     1130.265      336.556      268.178        0.137        0.087       31.786       16.336        0.264      334.743        4.916      862.191
03/14/2014  03:35:00       -7.515       40.816       -4.116       23.985       13.772        7.762      575.269      189.662       60.253        0.128        0.041       41.502        8.897        0.046      335.031        5.395      862.188
03/14/2014  03:36:00     -106.672      -18.195      -16.574       33.951       27.173       13.035     1152.676      738.356      169.920        0.702        0.103      108.212       14.452        0.018      334.681        4.813      862.206
03/14/2014  03:37:00     -129.196       -4.364      -12.486       45.064       28.823       27.156     2030.744      830.777      737.432        1.023        0.180      129.269       28.587        0.049      334.359        4.279      862.214
03/14/2014  03:38:00      -19.094       28.291       -1.798       27.602       33.891       16.820      761.876     1148.609      282.917        0.168        0.110       34.132       20.477        0.360      334.490        4.497      862.195
03/14/2014  03:39:00      -24.373       52.490       -5.957       11.277       21.422       10.360      127.168      458.915      107.337        0.204        0.035       57.873       10.479        0.033      335.319        5.873      862.166
03/14/2014  03:40:00      -76.901      -12.715      -12.442       48.219       30.745       14.994     2325.095      945.274      224.818        0.486        0.175       77.945       19.516        0.063      334.835        5.070      862.177
03/14/2014  03:41:00     -150.237      -78.277       -8.525       40.103       39.458       20.327     1608.234     1556.912      413.192        1.617        0.179      169.407       12.266        0.005      334.287        4.160      862.199
03/14/2014  03:42:00      -92.625       -4.611       -0.297       41.967       40.788       25.181     1761.191     1663.634      634.066        0.633        0.203       92.740       24.578        0.070      334.219        4.047      862.198
03/14/2014  03:43:00      -59.547       -1.097       -3.714       25.214       33.163       21.712      635.741     1099.772      471.411        0.288        0.110       59.557       12.640        0.045      334.449        4.430      862.174
03/14/2014  03:44:00      -75.699      -47.536       -0.977       39.166       24.186       18.410     1533.981      584.973      338.938        0.522        0.123       89.387       17.414        0.038      334.412        4.369      862.159
03/14/2014  03:45:00     -114.331      -26.034      -10.873       39.125       34.475       16.893     1530.768     1188.513      285.378        0.844        0.150      117.258       15.746        0.018      334.349        4.264      862.154
03/14/2014  03:46:00      -13.646      -33.474        2.825       40.130       30.156       15.734     1610.387      909.401      247.557        0.204        0.138       36.149       14.611        0.163      334.477        4.475      862.122
03/14/2014  03:47:00        7.774       21.406       -4.917       16.430       17.976       12.859      269.929      323.151      165.365        0.065        0.038       22.774       13.655        0.359      334.773        4.966      862.081
03/14/2014  03:48:00      -20.732      -12.292       -2.833       11.786        7.496        8.427      138.915       56.193       71.022        0.043        0.013       24.102        6.201        0.066      334.890        5.160      862.071
03/14/2014  03:49:00      -34.533      -32.557       -6.539       13.193       14.013        7.600      174.053      196.362       57.757        0.136        0.021       47.460        6.185        0.017      334.770        4.963      862.090
03/14/2014  03:50:00      -31.666      -20.272       -5.313       11.033       10.222        8.244      121.718      104.495       67.970        0.087        0.015       37.599        7.836        0.043      334.621        4.714      862.091
03/14/2014  03:51:00      -37.816      -14.767       -6.269       12.687        9.103        6.645      160.949       82.866       44.152        0.099        0.014       40.597        4.593        0.013      334.647        4.759      862.077
03/14/2014  03:52:00      -71.955        6.365       -6.754       13.960       11.604        7.522      194.880      134.662       56.577        0.282        0.019       72.236        5.636        0.006      334.666        4.789      862.051
03/14/2014  03:53:00      -97.983       -4.557      -13.575       16.053       11.764        8.789      257.705      138.386       77.248        0.514        0.024       98.088        6.392        0.004      334.701        4.847      862.043
03/14/2014  03:54:00      -68.381      -20.741       -9.305       11.425       12.992        8.460      130.532      168.794       71.566        0.278        0.019       71.457        5.033        0.005      334.629        4.728      862.048
03/14/2014  03:55:00      -70.242      -11.543      -13.311       14.879       15.032       10.305      221.371      225.976      106.183        0.290        0.028       71.184        8.715        0.015      334.436        4.409      862.053
03/14/2014  03:56:00      -93.207       -6.254      -11.205       25.809       14.367       14.180      666.125      206.408      201.079        0.496        0.054       93.416       15.519        0.028      334.413        4.369      862.054
03/14/2014  03:57:00      -53.279       13.128      -10.488       21.469       24.308       15.341      460.932      590.874      235.346        0.220        0.064       54.873       10.656        0.038      334.373        4.302      862.062
03/14/2014  03:58:00      -44.692      -10.942       -3.459       13.400       20.612       14.648      179.559      424.850      214.574        0.147        0.041       46.012        4.593        0.010      334.407        4.359      862.079
03/14/2014  03:59:00      -52.207      -15.685       -8.021       13.287       16.359        8.810      176.535      267.609       77.620        0.178        0.026       54.513        6.554        0.014      334.333        4.235      862.096
03/14/2014  04:00:00      -30.386       -9.597       -0.280       31.855       24.137       21.958     1014.711      582.584      482.167        0.155        0.104       31.865       20.154        0.400      334.257        4.112      862.123
03/14/2014  04:01:00      -22.370      -24.480        6.964       20.663       19.253       15.847      426.951      370.663      251.134        0.110        0.052       33.162        6.739        0.041      334.220        4.048      862.132
03/14/2014  04:02:00       -3.734      -17.646       -5.394       20.768       15.432       13.562      431.305      238.135      183.922        0.060        0.043       18.037        7.862        0.190      334.534        4.572      862.134
03/14/2014  04:03:00      -41.063       -4.616       -8.525       22.514       12.701       10.446      506.859      161.318      109.116        0.128        0.039       41.322        9.972        0.058      334.907        5.189      862.135
03/14/2014  04:04:00      -84.796       -5.710      -15.351       18.232       17.817        8.973      332.406      317.463       80.520        0.409        0.037       84.988        4.334        0.003      334.361        4.284      862.150
03/14/2014  04:05:00      -58.326       11.703       -9.067       14.817        9.836        7.762      219.536       96.739       60.251        0.200        0.019       59.489        8.566        0.021      334.663        4.785      862.163
03/14/2014  04:06:00      -59.054       -0.141       -8.535       14.391       15.874       11.065      207.097      251.995      122.437        0.207        0.029       59.054       10.879        0.034      334.753        4.934      862.178
03/14/2014  04:07:00      -41.680      -33.131       -9.191       18.156       17.812       13.267      329.656      317.256      176.016        0.187        0.041       53.244       10.253        0.037      334.625        4.722      862.190
03/14/2014  04:08:00      -44.823      -24.190      -11.273       11.283        9.737        8.576      127.301       94.816       73.542        0.151        0.015       50.934        2.692        0.003      334.802        5.015      862.187
03/14/2014  04:09:00      -47.938      -30.493       -6.288       16.864       11.677        6.895      284.393      136.351       47.544        0.187        0.023       56.815        4.645        0.007      334.501        4.516      862.171
03/14/2014  04:10:00      -64.022      -11.093       -8.830       16.605        9.791        6.761      275.730       95.860       45.713        0.236        0.021       64.976        3.948        0.004      334.576        4.641      862.158
03/14/2014  04:11:00      -35.661       -8.740       -1.495        7.340        5.762        2.891       53.880       33.200        8.355        0.072        0.005       36.716        1.906        0.003      335.171        5.627      862.141
03/14/2014  04:12:00      -42.523      -29.226       -8.193       10.720       14.477        8.808      114.912      209.577       77.574        0.157        0.020       51.598        9.327        0.033      334.824        5.051      862.143
03/14/2014  04:13:00      -55.952      -26.686       -9.016       11.748        8.735        5.680      138.021       76.302       32.261        0.209        0.012       61.990        3.070        0.002      334.541        4.582      862.149
03/14/2014  04:14:00      -51.755      -19.060       -8.793       12.078       10.458        6.718      145.883      109.366       45.125        0.171        0.015       55.153        5.548        0.010      334.505        4.522      862.141
03/14/2014  04:15:00      -52.261      -21.141       -7.265       25.147       10.081       13.412      632.391      101.628      179.876        0.207        0.046       56.375       10.028        0.032      334.717        4.873      862.140
03/14/2014  04:16:00      -75.796      -16.081      -13.539       10.963        8.173        7.264      120.190       66.800       52.761        0.321        0.012       77.483        3.021        0.002      334.381        4.317      862.139
03/14/2014  04:17:00      -86.238      -17.009      -11.734       18.186       17.419       10.149      330.728      303.417      102.992        0.430        0.037       87.899        8.034        0.008      334.398        4.346      862.145
03/14/2014  04:18:00      -38.524      -20.308       10.392       43.742       17.462       14.591     1913.381      304.908      212.884        0.222        0.122       43.549       21.054        0.234      334.364        4.289      862.141
03/14/2014  04:19:00        4.941      -18.633        5.618       10.421       13.865       11.934      108.590      192.226      142.427        0.042        0.022       19.277       10.873        0.318      334.543        4.584      862.137
03/14/2014  04:20:00      -52.270      -10.961       -6.998       24.584        9.270        8.097      604.356       85.932       65.566        0.183        0.038       53.407        9.393        0.031      334.463        4.453      862.152
03/14/2014  04:21:00     -104.446       -1.817      -10.520       33.412       17.327       12.189     1116.371      300.226      148.568        0.629        0.078      104.462       14.811        0.020      334.239        4.081      862.177
03/14/2014  04:22:00     -116.056        5.995      -17.195       37.874       18.303       17.994     1434.420      334.996      323.781        0.795        0.105      116.211       17.094        0.022      334.139        3.916      862.181
03/14/2014  04:23:00      -55.040      -10.447       -3.087       21.689       21.701       14.115      470.404      470.914      199.231        0.214        0.057       56.023        9.523        0.029      334.195        4.007      862.168
03/14/2014  04:24:00      -91.761      -30.727      -15.250       28.512       10.755        9.284      812.927      115.675       86.186        0.531        0.051       96.769        9.197        0.009      334.157        3.944      862.153
03/14/2014  04:25:00      -92.804      -38.107      -13.990       41.049       21.019       12.760     1684.981      441.792      162.807        0.627        0.114      100.323       13.301        0.018      333.965        3.626      862.156
03/14/2014  04:26:00      -15.026      -14.739       -2.266       23.475       15.369       11.373      551.071      236.208      129.337        0.068        0.046       21.048        8.217        0.152      333.949        3.601      862.126
03/14/2014  04:27:00      -75.912      -38.528      -12.031       27.071       21.515       12.411      732.864      462.898      154.033        0.437        0.067       85.129        8.498        0.010      334.054        3.774      862.114
03/14/2014  04:28:00      -94.600      -20.967      -15.227       15.408       18.538       10.221      237.407      343.642      104.461        0.515        0.034       96.896        6.596        0.005      334.119        3.881      862.110
03/14/2014  04:29:00      -63.576      -13.246       -1.726       18.223       20.929       13.819      332.068      438.021      190.968        0.259        0.048       64.941        7.779        0.014      334.119        3.882      862.100
03/14/2014  04:30:00      -95.422       -0.284      -14.407       24.476       16.462       18.574      599.060      271.002      344.981        0.526        0.061       95.423       13.769        0.021      334.242        4.085      862.084
03/14/2014  04:31:00      -37.945       -5.749      -12.112       25.504       18.705        9.683      650.452      349.879       93.767        0.136        0.055       38.378        8.529        0.049      334.290        4.165      862.088
03/14/2014  04:32:00      -12.746      -20.601       -4.453       13.581       16.462        5.571      184.452      270.991       31.032        0.055        0.024       24.225        9.160        0.143      334.992        5.330      862.091
03/14/2014  04:33:00      -50.967      -41.591       -0.011       37.071       25.130       13.980     1374.236      631.524      195.440        0.326        0.110       65.784       10.617        0.026      334.853        5.099      862.111
03/14/2014  04:34:00      -51.413      -10.532       -7.332       18.642       14.647       13.514      347.508      214.535      182.632        0.178        0.037       52.481        8.230        0.025      334.177        3.979      862.125
03/14/2014  04:35:00      -26.393      -14.885      -10.804        8.132        9.799        6.255       66.132       96.015       39.123        0.062        0.010       30.302        3.365        0.012      334.528        4.560      862.108
03/14/2014  04:36:00      -27.179      -23.905       -5.279       13.366        8.822        6.234      178.657       77.820       38.865        0.082        0.015       36.195        7.456        0.042      334.830        5.065      862.106
03/14/2014  04:37:00        9.412      -13.974       -2.050        9.781       10.269        6.297       95.663      105.447       39.654        0.026        0.012       16.849        4.403        0.068      334.849        5.093      862.091
03/14/2014  04:38:00      -63.693      -24.419      -11.793       23.103       10.951        8.830      533.732      119.917       77.969        0.276        0.037       68.213       10.056        0.022      334.341        4.251      862.095
03/14/2014  04:39:00      -79.817      -26.959      -12.197        8.521       14.217        7.637       72.615      202.120       58.318        0.379        0.017       84.247        6.915        0.007      334.100        3.851      862.107
03/14/2014  04:40:00      -20.110      -19.140       -4.322       28.562       16.805       10.671      815.772      282.422      113.870        0.100        0.061       27.762        9.819        0.125      334.133        3.903      862.110
03/14/2014  04:41:00       -5.499       23.201       -3.021       14.302       13.071        8.575      204.535      170.846       73.526        0.051        0.022       23.844        4.611        0.037      334.268        4.130      862.115
03/14/2014  04:42:00     -101.933       -7.350       -8.863       36.107       22.246       12.726     1303.719      494.899      161.959        0.624        0.098      102.198       10.323        0.010      333.946        3.595      862.132
03/14/2014  04:43:00      -42.077      -13.151        2.697       41.081       19.792       17.555     1687.667      391.711      308.168        0.217        0.119       44.084       17.801        0.163      333.871        3.471      862.156
03/14/2014  04:44:00      -19.305        1.084       -6.957       10.775        7.525        4.367      116.102       56.620       19.067        0.031        0.010       19.335        2.659        0.019      334.084        3.823      862.182
03/14/2014  04:45:00      -71.398      -27.323      -10.390       26.612       23.234       10.948      708.197      539.841      119.862        0.366        0.068       76.447        9.396        0.015      333.918        3.549      862.236
03/14/2014  04:46:00      -49.710       17.739       -8.339       18.535       14.718       11.044      343.563      216.633      121.976        0.177        0.034       52.781        3.729        0.005      333.809        3.368      862.243
03/14/2014  04:47:00        9.941       25.887       -7.396       16.769       11.751        7.076      281.212      138.084       50.070        0.065        0.023       27.730        6.447        0.054      334.365        4.291      862.212
03/14/2014  04:48:00      -54.187      -12.556      -13.761       44.369       24.766       11.582     1968.651      613.373      134.132        0.300        0.136       55.623       17.939        0.104      334.170        3.966      862.234
03/14/2014  04:49:00      -83.606      -24.339      -13.647       26.755       16.565       11.871      715.855      274.384      140.919        0.445        0.057       87.077       14.825        0.029      333.698        3.182      862.246
03/14/2014  04:50:00      -41.291       11.065       -8.870       17.026       22.818       10.238      289.882      520.662      104.826        0.141        0.046       42.747        7.554        0.031      333.959        3.616      862.232
03/14/2014  04:51:00      -64.491       18.688       -9.419       32.755       15.541        9.197     1072.888      241.510       84.576        0.300        0.070       67.144       14.561        0.047      334.258        4.111      862.263
03/14/2014  04:52:00       -9.105       22.865       -7.009       36.096       13.069        5.219     1302.898      170.799       27.235        0.108        0.075       24.611        6.395        0.068      334.712        4.866      862.262
03/14/2014  04:53:00       11.716       -0.272       -2.972       34.994       16.684       11.974     1224.560      278.362      143.381        0.090        0.082       11.720        7.393        0.398      334.527        4.559      862.234
03/14/2014  04:54:00      -88.508       -8.464      -13.272       23.999       14.549       10.272      575.937      211.663      105.508        0.449        0.045       88.912       10.607        0.014      333.914        3.544      862.277
03/14/2014  04:55:00      -87.025      -24.842       -9.518       18.918       17.495       12.225      357.891      306.079      149.451        0.455        0.041       90.501        8.986        0.010      333.755        3.278      862.283
03/14/2014  04:56:00      -87.900      -47.160      -13.515       14.029       18.453       11.076      196.813      340.528      122.678        0.540        0.033       99.752        9.709        0.009      333.726        3.229      862.288
03/14/2014  04:57:00     -116.549      -25.344      -20.282       13.643       13.480       11.072      186.142      181.723      122.591        0.756        0.025      119.273        4.587        0.001      333.757        3.280      862.316
03/14/2014  04:58:00      -77.537       -9.962       -3.667       27.637       18.363       14.338      763.820      337.190      205.588        0.372        0.065       78.174       14.468        0.034      333.835        3.412      862.327
03/14/2014  04:59:00     -125.190       -8.392      -16.193       21.609       15.538       12.448      466.929      241.416      154.950        0.843        0.043      125.471       10.522        0.007      333.812        3.372      862.310
03/14/2014  05:00:00     -103.689      -19.244      -12.126       42.154       17.820       15.199     1776.974      317.559      230.999        0.680        0.116      105.460       18.214        0.030      333.840        3.418      862.323
03/14/2014  05:01:00     -129.861        8.120       -7.648      101.102       47.481       30.426    10221.673     2254.445      925.717        1.519        0.670      130.115       42.874        0.109      333.804        3.356      862.339
03/14/2014  05:02:00      -75.969      -35.807       -0.698       65.257       32.260       29.516     4258.420     1040.676      871.195        0.661        0.309       83.985       34.147        0.165      333.754        3.277      862.340
03/14/2014  05:03:00      -26.097      -15.246       -0.920       22.405       16.334       13.215      501.966      266.810      174.648        0.093        0.047       30.224        9.124        0.091      333.724        3.228      862.336
03/14/2014  05:04:00     -100.844      -40.992      -13.664       13.508       30.915       12.072      182.479      955.725      145.733        0.666        0.064      108.857        6.823        0.004      333.778        3.316      862.341
03/14/2014  05:05:00      -92.095      -40.277       -5.002       42.606       45.435       20.659     1815.270     2064.377      426.793        0.722        0.215      100.517       18.657        0.034      333.757        3.281      862.364
03/14/2014  05:06:00      -43.106      -41.185       -3.823       48.601       25.836       16.920     2362.064      667.508      286.300        0.344        0.166       59.618       14.386        0.058      333.791        3.337      862.374
03/14/2014  05:07:00       12.239      -35.202        0.451       16.151       18.209       14.757      260.841      331.554      217.772        0.110        0.041       37.269        6.835        0.034      333.811        3.369      862.375
03/14/2014  05:08:00      -29.447      -12.858       -3.793       19.935        7.584       10.220      397.421       57.518      104.443        0.080        0.028       32.132       10.121        0.099      333.888        3.498      862.371
03/14/2014  05:09:00     -101.820      -33.872      -15.151       19.586       21.401       10.805      383.619      458.023      116.743        0.635        0.048      107.307        7.105        0.004      333.825        3.395      862.398
03/14/2014  05:10:00      -56.239      -25.126       -2.054       21.184       22.437       14.320      448.780      503.423      205.060        0.248        0.058       61.597       10.798        0.031      333.776        3.313      862.411
03/14/2014  05:11:00      -24.727      -12.803       -2.357        8.960        8.698        6.537       80.284       75.653       42.730        0.049        0.010       27.844        2.207        0.006      333.908        3.532      862.416
03/14/2014  05:12:00        1.922       11.934        5.726       16.059       21.506       11.981      257.886      462.521      143.533        0.052        0.043       12.088       12.961        1.150      333.907        3.529      862.418
03/14/2014  05:13:00       -5.435       12.187       32.587       17.332       22.383       15.169      300.401      501.019      230.100        0.114        0.052       13.344       12.890        0.933      333.941        3.587      862.416
03/14/2014  05:14:00       59.317       32.689        9.769       19.888       18.469       14.857      395.546      341.112      220.725        0.282        0.048       67.728       11.824        0.030      333.808        3.366      862.434
03/14/2014  05:15:00       68.490       35.856       15.099       45.240       30.433       22.235     2046.698      926.195      494.380        0.484        0.173       77.308       24.373        0.099      333.718        3.216      862.438
03/14/2014  05:16:00       -0.757        9.415       22.821       11.720       21.794       16.271      137.360      474.995      264.739        0.074        0.044        9.445       13.787        2.131      333.822        3.391      862.479
03/14/2014  05:17:00       45.087       16.612       11.586       30.521       27.671       13.598      931.547      765.690      184.909        0.216        0.094       48.050       10.510        0.048      333.985        3.660      862.488
03/14/2014  05:18:00      101.294       50.924       15.391       18.657       14.184       17.388      348.070      201.176      302.347        0.697        0.043      113.374       11.598        0.010      334.161        3.952      862.473
03/14/2014  05:19:00       40.560       25.704        5.535       22.564       13.085       11.635      509.119      171.222      135.365        0.158        0.041       48.019        9.508        0.039      334.092        3.838      862.486
03/14/2014  05:20:00       52.099       42.167        0.074       17.131       21.431       13.463      293.464      459.291      181.248        0.271        0.047       67.025       10.553        0.025      334.177        3.977      862.510
03/14/2014  05:21:00       46.056       36.415        4.753       36.104       24.976       14.660     1303.528      623.790      214.907        0.281        0.107       58.712       12.461        0.045      334.217        4.044      862.521
03/14/2014  05:22:00       18.159        5.414       -0.987       12.856        7.812        6.099      165.274       61.022       37.192        0.031        0.013       18.949        6.369        0.113      334.171        3.967      862.549
03/14/2014  05:23:00        4.844       21.669        3.757       10.304       12.096        5.635      106.169      146.319       31.757        0.040        0.014       22.203        6.084        0.075      334.298        4.180      862.574
03/14/2014  05:24:00       29.056       52.843        0.269       13.977       20.838       13.253      195.348      434.230      175.651        0.222        0.040       60.305       11.724        0.038      334.125        3.891      862.585
03/14/2014  05:25:00       21.364       36.869       -9.130       15.952       15.726       10.608      254.477      247.313      112.526        0.126        0.031       42.612        8.890        0.044      334.117        3.878      862.597
03/14/2014  05:26:00      -28.423       -1.945       -6.642       13.130        6.522        4.793      172.392       42.533       22.971        0.055        0.012       28.490        4.804        0.028      334.165        3.961      862.611
03/14/2014  05:27:00      -20.969       -7.505        0.217        8.025        8.226        6.462       64.404       67.670       41.757        0.033        0.009       22.271        4.772        0.046      333.861        3.454      862.611
03/14/2014  05:28:00      -62.228      -10.345      -10.263       30.239       10.346        9.596      914.388      107.033       92.074        0.260        0.056       63.082       12.506        0.039      333.864        3.459      862.624
03/14/2014  05:29:00     -119.288       14.078      -18.562       31.876       16.350       16.680     1016.098      267.337      278.222        0.817        0.078      120.116       13.434        0.013      333.569        2.969      862.643
03/14/2014  05:30:00      -15.410       26.006       -3.361       29.848        7.601        9.185      890.879       57.775       84.356        0.098        0.052       30.229       14.706        0.237      334.150        3.933      862.642
03/14/2014  05:31:00        2.198       43.555       -9.088       22.699       16.178        6.041      515.251      261.719       36.497        0.140        0.041       43.610        4.774        0.012      334.371        4.301      862.636
03/14/2014  05:32:00      -37.487       -2.451       -5.495       13.137       16.329        8.546      172.569      266.623       73.032        0.098        0.026       37.567        2.726        0.005      333.896        3.512      862.645
03/14/2014  05:33:00       -4.227       12.318       -4.132       24.076       12.046       10.053      579.676      145.098      101.063        0.051        0.041       13.023        3.710        0.081      334.028        3.731      862.650
03/14/2014  05:34:00      -29.883        1.829       -5.972       37.960       28.073       15.524     1440.929      788.087      240.998        0.170        0.124       29.939       14.624        0.239      334.086        3.827      862.662
03/14/2014  05:35:00     -114.298      -27.800      -18.372       18.502       17.783       12.810      342.336      316.234      164.085        0.750        0.041      117.630        7.912        0.005      333.452        2.776      862.677
03/14/2014  05:36:00      -76.072        9.731      -14.456       29.098       13.326       11.061      846.714      177.584      122.355        0.362        0.057       76.691        4.138        0.003      333.544        2.929      862.675
03/14/2014  05:37:00       -4.982       29.269       -2.335       24.425       26.978       13.069      596.590      727.813      170.790        0.119        0.075       29.690       14.031        0.223      334.110        3.867      862.656
03/14/2014  05:38:00      -23.000       38.349      -10.753       37.295       42.338       13.773     1390.907     1792.482      189.703        0.274        0.169       44.718       11.378        0.065      334.182        3.987      862.659
03/14/2014  05:39:00      -62.437      -22.799      -13.523       10.508       13.393        9.194      110.413      179.378       84.522        0.249        0.019       66.469        4.421        0.004      333.626        3.064      862.676
03/14/2014  05:40:00       -7.231      -26.324        4.598       17.520       17.999       12.238      306.946      323.968      149.769        0.077        0.039       27.299       10.585        0.150      333.745        3.260      862.680
03/14/2014  05:41:00      -69.986      -26.291      -10.431       25.911       17.734       14.657      671.395      314.504      214.818        0.345        0.060       74.762       15.517        0.043      333.774        3.308      862.685
03/14/2014  05:42:00      -94.579        3.820      -15.422       24.537       19.834       12.177      602.054      393.392      148.287        0.517        0.057       94.656        5.723        0.004      333.504        2.863      862.685
03/14/2014  05:43:00       26.541       26.591        0.614       36.152       25.287       12.998     1306.951      639.435      168.955        0.176        0.106       37.570       14.723        0.154      334.392        4.334      862.662
03/14/2014  05:44:00        0.426       13.990       -2.818       44.079       19.433       10.242     1942.952      377.659      104.901        0.131        0.121       13.996       15.083        1.161      334.157        3.944      862.653
03/14/2014  05:45:00     -136.284      -32.338      -19.341       31.918       23.991       14.531     1018.779      575.588      211.142        1.090        0.090      140.068        5.931        0.002      333.529        2.903      862.686
03/14/2014  05:46:00      -69.244      -21.367      -10.712       37.366       16.337       20.189     1396.226      266.911      407.583        0.372        0.104       72.466       18.315        0.064      333.605        3.031      862.700
03/14/2014  05:47:00      -39.689       19.374        0.104       18.333       10.248        8.428      336.084      105.030       71.029        0.123        0.026       44.165        8.673        0.039      334.062        3.787      862.691
03/14/2014  05:48:00      -92.047        8.803      -14.549       22.991       17.953        9.832      528.585      322.324       96.665        0.485        0.047       92.467        8.813        0.009      333.954        3.607      862.689
03/14/2014  05:49:00     -102.027      -17.877      -20.960       22.165       12.174        9.715      491.299      148.206       94.376        0.595        0.037      103.582        8.127        0.006      333.524        2.894      862.703
03/14/2014  05:50:00      -72.084      -20.696      -11.564       13.725       16.677       15.832      188.374      278.115      250.660        0.324        0.036       74.996        9.019        0.014      333.565        2.963      862.715
03/14/2014  05:51:00      -95.406      -17.102      -11.314       11.155       13.899       10.814      124.423      193.196      116.949        0.498        0.022       96.927        6.557        0.005      333.642        3.090      862.727
03/14/2014  05:52:00      -98.167      -20.084      -17.207       23.245       19.055       12.924      540.320      363.104      167.036        0.570        0.054      100.200        6.947        0.005      333.541        2.922      862.755
03/14/2014  05:53:00      -69.364        0.233      -14.493       20.762       16.343       14.133      431.062      267.101      199.730        0.296        0.045       69.365        5.411        0.006      333.619        3.051      862.768
03/14/2014  05:54:00      -66.751      -10.270      -15.266       10.877       12.752        7.458      118.317      162.626       55.626        0.257        0.017       67.536        4.977        0.005      334.017        3.713      862.771
03/14/2014  05:55:00      -97.214      -34.503      -14.946       25.835       20.311       10.285      667.470      412.526      105.789        0.602        0.059      103.156        5.252        0.003      333.735        3.245      862.788
03/14/2014  05:56:00     -137.401      -33.789      -20.174       39.752       23.693       20.667     1580.231      561.335      427.113        1.150        0.128      141.495       21.953        0.024      333.435        2.746      862.811
03/14/2014  05:57:00      -72.012      -34.510       -8.433       32.303       15.969       19.940     1043.500      255.017      397.617        0.407        0.085       79.854       19.440        0.059      333.429        2.737      862.837
03/14/2014  05:58:00      -58.269      -41.176      -13.621       17.414       20.059       12.463      303.258      402.361      155.337        0.307        0.043       71.349       11.390        0.025      333.563        2.960      862.870
03/14/2014  05:59:00      -86.954      -14.719       -7.522       41.183       35.839       25.575     1696.017     1284.435      654.092        0.573        0.182       88.191       15.390        0.030      333.545        2.930      862.885
03/14/2014  06:00:00      -52.492        6.584       -7.197       20.823       15.172       11.243      433.587      230.192      126.412        0.182        0.040       52.904        8.099        0.023      333.681        3.154      862.883
03/14/2014  06:01:00      -45.295      -18.375       -9.150       21.385       13.322       11.414      457.322      177.465      130.279        0.162        0.038       48.880       14.693        0.090      333.676        3.146      862.872
03/14/2014  06:02:00      -98.279      -39.978       -9.199       22.092       23.433       14.147      488.071      549.086      200.140        0.629        0.062      106.099        9.525        0.008      333.511        2.873      862.885
03/14/2014  06:03:00      -76.510      -31.685      -12.615       31.246       23.745       15.067      976.316      563.822      227.016        0.439        0.088       82.812       13.821        0.028      333.432        2.744      862.878
03/14/2014  06:04:00      -62.406       -9.116       -5.545       22.942       20.775       11.998      526.342      431.581      143.949        0.255        0.055       63.068        4.627        0.005      333.567        2.965      862.866
03/14/2014  06:05:00      -75.105       18.552      -15.663       12.118       11.484       12.802      146.840      131.887      163.895        0.334        0.022       77.363        3.981        0.003      333.824        3.393      862.871
03/14/2014  06:06:00      -70.220       -4.580      -12.890       12.485       22.895        9.998      155.886      524.163       99.970        0.295        0.039       70.369        6.133        0.008      333.674        3.143      862.892
03/14/2014  06:07:00      -68.937      -38.737      -10.739       17.543       18.896       15.476      307.755      357.077      239.501        0.364        0.045       79.076        8.402        0.011      333.609        3.037      862.908
03/14/2014  06:08:00      -62.139      -33.597      -10.285       26.095       20.129       15.750      680.959      405.160      248.048        0.321        0.067       70.640        9.903        0.020      333.547        2.934      862.915
03/14/2014  06:09:00      -58.757      -19.596       -9.071        9.633       13.452        7.586       92.794      180.950       57.552        0.212        0.017       61.939        5.334        0.007      333.631        3.073      862.909
03/14/2014  06:10:00      -73.133      -23.756      -14.402       12.840       11.701       11.224      164.867      136.903      125.978        0.327        0.021       76.894        8.171        0.011      333.630        3.071      862.902
03/14/2014  06:11:00      -62.569      -18.954      -10.721       13.253       11.363        7.717      175.639      129.114       59.557        0.238        0.018       65.377        4.746        0.005      333.688        3.167      862.909
03/14/2014  06:12:00      -58.297       -4.366      -11.686       12.191        7.658       10.719      148.625       58.650      114.890        0.194        0.016       58.460        4.123        0.005      333.701        3.187      862.920
03/14/2014  06:13:00      -67.321      -15.517      -14.563       10.432       19.417        7.820      108.827      377.009       61.145        0.277        0.027       69.086        5.558        0.006      333.886        3.496      862.950
03/14/2014  06:14:00      -29.538      -41.791       -0.929       21.000       16.689       12.691      440.999      278.516      161.055        0.175        0.044       51.176        8.247        0.026      333.888        3.499      862.973
03/14/2014  06:15:00      -21.883      -31.049      -11.520       14.833       10.864        8.499      220.010      118.036       72.226        0.099        0.021       37.986        3.769        0.010      333.951        3.604      862.976
03/14/2014  06:16:00      -76.404      -39.993      -16.267       18.468       15.800       14.492      341.064      249.650      210.010        0.425        0.040       86.238       10.062        0.014      333.571        2.972      862.992
03/14/2014  06:17:00      -80.000      -39.386       -4.596       26.336       19.298       15.864      693.569      372.395      251.674        0.464        0.066       89.170       13.253        0.022      333.438        2.752      863.022
03/14/2014  06:18:00      -58.332      -43.513       -6.830       35.199       21.594       13.392     1238.958      466.281      179.341        0.361        0.094       72.774       15.840        0.047      333.466        2.799      863.050
03/14/2014  06:19:00      -38.576      -13.493       -3.710       36.074       22.830       14.185     1301.336      521.231      201.210        0.185        0.101       40.868        9.959        0.059      333.398        2.687      863.066
03/14/2014  06:20:00      -84.472      -11.154      -11.012       19.745       15.907       12.551      389.879      253.047      157.526        0.409        0.040       85.206        8.965        0.011      333.508        2.867      863.069
03/14/2014  06:21:00      -73.427      -51.097      -15.616       21.696       22.215       14.334      470.696      493.518      205.467        0.471        0.058       89.456        6.353        0.005      333.533        2.909      863.078
03/14/2014  06:22:00      -64.459      -21.174      -11.104       13.014       13.429       10.291      169.359      180.342      105.902        0.259        0.023       67.848        4.588        0.005      333.685        3.161      863.069
03/14/2014  06:23:00      -61.800      -28.417       -9.598        8.805        8.701        9.563       77.532       75.715       91.446        0.248        0.012       68.020        3.903        0.003      333.641        3.088      863.081
03/14/2014  06:24:00     -103.691       -5.067      -10.924       25.038       17.924       13.841      626.918      321.259      191.567        0.602        0.057      103.815        8.455        0.007      333.579        2.986      863.089
03/14/2014  06:25:00      -63.201        2.968      -13.046       16.802        8.748        8.016      282.306       76.530       64.253        0.230        0.021       63.270        4.919        0.006      333.728        3.234      863.081
03/14/2014  06:26:00       -6.279       -2.927       -1.098       14.137        2.988        4.153      199.854        8.926       17.250        0.014        0.011        6.928        5.811        0.704      334.159        3.948      863.085
03/14/2014  06:27:00        4.859       13.915        5.997        7.334       10.163        7.827       53.782      103.283       61.264        0.024        0.011       14.739        4.980        0.114      334.065        3.792      863.099
03/14/2014  06:28:00       21.269       21.597        3.505        9.199        7.562        5.958       84.616       57.189       35.502        0.055        0.009       30.312        5.854        0.037      333.945        3.595      863.105
03/14/2014  06:29:00       57.142       41.404        6.061       12.280        5.674        4.501      150.789       32.198       20.262        0.261        0.010       70.566        5.711        0.007      334.100        3.850      863.075
03/14/2014  06:30:00       40.046       16.770       -1.784       20.866       16.395       10.236      435.401      268.806      104.766        0.135        0.040       43.416        6.678        0.024      333.914        3.543      863.052
03/14/2014  06:31:00      -54.840      -21.348       -5.648       39.628       17.239       10.138     1570.400      297.174      102.778        0.273        0.099       58.849       10.255        0.030      333.821        3.388      863.083
03/14/2014  06:32:00     -100.597      -17.839      -15.635       20.904       19.237       13.956      436.960      370.065      194.769        0.584        0.050      102.167        9.516        0.009      333.398        2.685      863.112
03/14/2014  06:33:00      -95.824       -7.636      -11.673       15.670       13.796        9.817      245.534      190.327       96.382        0.495        0.027       96.128        7.870        0.007      333.672        3.139      863.104
03/14/2014  06:34:00     -114.217      -40.354      -12.058       21.786       19.602       11.218      474.638      384.221      125.846        0.790        0.049      121.136        9.696        0.006      333.518        2.886      863.097
03/14/2014  06:35:00     -101.906      -42.572       -7.161       13.113       17.031       10.965      171.953      290.062      120.225        0.642        0.029      110.441        5.022        0.002      333.628        3.066      863.110
03/14/2014  06:36:00      -87.872       -3.388      -13.480       17.241       15.094       14.281      297.257      227.832      203.955        0.432        0.036       87.937       11.363        0.017      333.635        3.079      863.121
03/14/2014  06:37:00      -98.316       15.669      -16.946       18.056       13.942       10.097      326.025      194.374      101.957        0.541        0.031       99.557        8.839        0.008      333.552        2.940      863.131
03/14/2014  06:38:00     -107.558       -3.866      -16.814       19.647       14.117       12.118      385.998      199.286      146.842        0.630        0.037      107.628        6.240        0.003      333.441        2.758      863.142
03/14/2014  06:39:00     -103.436      -32.459      -18.158       18.548       31.052       17.131      344.011      964.207      293.460        0.684        0.080      108.409        6.601        0.004      333.352        2.610      863.170
03/14/2014  06:40:00     -139.782      -40.947       -9.514       39.263       31.725       23.825     1541.587     1006.445      567.629        1.221        0.156      145.656       22.496        0.024      333.302        2.528      863.190
03/14/2014  06:41:00     -107.581      -29.565      -13.259       21.723       26.615       15.919      471.884      708.343      253.417        0.703        0.072      111.570       12.255        0.012      333.380        2.658      863.191
03/14/2014  06:42:00      -79.531        8.407       -9.531       19.655       15.745       10.984      386.337      247.893      120.657        0.362        0.038       79.974        9.594        0.014      333.526        2.898      863.177
03/14/2014  06:43:00      -82.456       24.312      -14.771        9.669       10.810        8.514       93.493      116.857       72.487        0.395        0.014       85.966        6.280        0.005      334.036        3.743      863.164
03/14/2014  06:44:00      -75.283       -7.828      -12.788       18.131       16.754       13.319      328.738      280.697      177.395        0.334        0.039       75.689       12.291        0.026      333.687        3.164      863.184
03/14/2014  06:45:00      -79.972      -40.494      -14.575       63.789       26.157       20.071     4069.031      684.179      402.864        0.670        0.258       89.640       19.208        0.046      333.518        2.885      863.214
03/14/2014  06:46:00     -129.503      -77.636      -11.483       37.913       30.899       15.973     1437.433      954.754      255.141        1.279        0.132      150.992        9.971        0.004      333.504        2.860      863.242
03/14/2014  06:47:00     -131.114      -48.054       -8.068       38.495       33.526       21.193     1481.898     1123.970      449.153        1.131        0.153      139.643       17.658        0.016      333.557        2.949      863.274
03/14/2014  06:48:00     -144.838        2.803      -20.302       45.889       36.209       23.311     2105.824     1311.070      543.395        1.268        0.198      144.865       19.151        0.017      333.538        2.917      863.290
03/14/2014  06:49:00     -118.427       30.985      -10.930       62.196       31.225       20.034     3868.382      975.007      401.349        1.017        0.262      122.413       13.977        0.013      333.642        3.090      863.271
03/14/2014  06:50:00      -64.427       64.189      -14.467       29.445       44.003       27.204      867.025     1936.227      740.054        0.601        0.177       90.946       20.761        0.052      334.205        4.022      863.237
03/14/2014  06:51:00      -82.197       41.654      -17.892       16.240       40.285       12.169      263.732     1622.908      148.080        0.542        0.102       92.149       15.817        0.029      334.309        4.197      863.234
03/14/2014  06:52:00     -105.340      -19.586      -17.228       32.038       21.348       12.261     1026.410      455.735      150.331        0.670        0.082      107.145       10.635        0.010      333.770        3.304      863.276
03/14/2014  06:53:00     -127.329      -38.244       -3.190       72.560       64.410       32.125     5264.910     4148.706     1031.995        1.406        0.522      132.948       33.846        0.065      333.516        2.880      863.311
03/14/2014  06:54:00      -10.052       -0.023        6.934       34.272       27.271       20.982     1174.573      743.711      440.257        0.125        0.118       10.052        8.657        0.742      333.519        2.887      863.331
03/14/2014  06:55:00       18.013      -41.490       -4.928       23.313       16.573       13.641      543.480      274.652      186.080        0.154        0.050       45.232        7.202        0.025      333.742        3.258      863.321
03/14/2014  06:56:00      -87.353       -3.712      -11.480       32.938       17.699       15.060     1084.903      313.247      226.796        0.470        0.081       87.432       19.657        0.051      333.610        3.039      863.329
03/14/2014  06:57:00     -113.021      -21.685      -25.456       21.471       12.737       11.782      461.007      162.227      138.809        0.733        0.038      115.082        8.527        0.005      333.704        3.193      863.361
03/14/2014  06:58:00     -109.011      -48.570      -12.762       25.402       34.767       14.121      645.252     1208.772      199.389        0.823        0.103      119.341        8.734        0.005      333.666        3.129      863.385
03/14/2014  06:59:00      -56.840      -30.399       -1.039       18.809       17.452       12.260      353.786      304.572      150.304        0.248        0.040       64.458        8.171        0.016      333.723        3.226      863.403
03/14/2014  07:00:00      -93.475      -40.343       -5.533       25.219       17.352       11.180      636.020      301.108      124.983        0.573        0.053      101.809        9.718        0.009      333.801        3.354      863.431
03/14/2014  07:01:00     -107.706      -41.058       -1.185       29.925       21.070       15.551      895.512      443.952      241.834        0.743        0.079      115.267       16.366        0.020      333.697        3.182      863.452
03/14/2014  07:02:00     -101.197      -31.025       -5.577       30.618       17.581       14.736      937.487      309.100      217.144        0.635        0.073      105.847       16.293        0.024      333.746        3.262      863.470
03/14/2014  07:03:00      -45.541      -30.678       -5.976       24.848       19.409       12.830      617.441      376.712      164.602        0.210        0.058       54.910        7.234        0.017      333.782        3.323      863.476
03/14/2014  07:04:00      -35.104      -28.133       -2.914       19.846       18.230       13.165      393.858      332.324      173.326        0.147        0.045       44.986       11.152        0.061      333.892        3.507      863.484
03/14/2014  07:05:00      -78.206      -17.581       -7.227       40.051       18.439       15.376     1604.080      339.988      236.422        0.433        0.109       80.158       15.339        0.037      333.860        3.452      863.501
03/14/2014  07:06:00     -118.618      -11.629       -9.521       36.974       31.302       20.564     1367.057      979.801      422.891        0.853        0.138      119.186       19.671        0.027      333.698        3.183      863.518
03/14/2014  07:07:00      -64.803      -15.990       -4.884       40.114       30.032       18.189     1609.101      901.932      330.847        0.366        0.142       66.746       14.659        0.048      333.623        3.058      863.529
03/14/2014  07:08:00      -33.154      -17.266       -9.772       30.864       23.086       18.292      952.603      532.958      334.606        0.166        0.091       37.381       12.781        0.117      333.694        3.177      863.533
03/14/2014  07:09:00      -30.767      -19.366        8.745       38.816       35.655       18.637     1506.717     1271.269      347.335        0.226        0.156       36.354       16.666        0.210      333.683        3.160      863.533
03/14/2014  07:10:00      -72.582       -5.821       -3.139       43.886       37.704       25.604     1925.996     1421.581      655.550        0.466        0.200       72.815       16.411        0.051      333.561        2.956      863.546
03/14/2014  07:11:00      -88.796      -13.771      -10.035       30.381       30.572       23.690      923.003      934.671      561.238        0.530        0.121       89.858       16.454        0.034      333.585        2.996      863.567
03/14/2014  07:12:00     -103.824       -6.825      -10.920       36.406       28.512       15.024     1325.396      812.934      225.733        0.665        0.118      104.048       13.192        0.016      333.592        3.007      863.593
03/14/2014  07:13:00      -81.988       -0.456      -11.847       32.265       26.587       20.591     1041.018      706.887      423.983        0.452        0.109       81.990       14.106        0.030      333.603        3.025      863.624
03/14/2014  07:14:00      -78.157       19.502       -4.791       55.803       35.927       27.259     3114.029     1290.727      743.065        0.583        0.257       80.553       23.950        0.088      333.681        3.154      863.648
03/14/2014  07:15:00      -87.348       44.570      -15.043       57.492       43.805       34.061     3305.304     1918.848     1160.167        0.811        0.319       98.062       12.471        0.016      333.798        3.349      863.667
03/14/2014  07:16:00      -73.356       21.025      -19.692       39.977       31.773       22.530     1598.166     1009.496      507.595        0.466        0.156       76.310       18.841        0.061      333.872        3.472      863.671
03/14/2014  07:17:00      -39.524      -21.081       -8.579       26.884       21.473       14.191      722.739      461.077      201.386        0.173        0.069       44.795       10.427        0.054      333.920        3.551      863.665
03/14/2014  07:18:00      -76.033      -35.090       -9.456       28.965       21.656       12.732      838.986      468.961      162.097        0.429        0.074       83.739       11.828        0.020      333.878        3.482      863.671
03/14/2014  07:19:00     -135.532      -33.325      -11.626       41.106       45.390       21.826     1689.723     2060.267      476.381        1.192        0.211      139.569       19.735        0.020      333.639        3.085      863.694
03/14/2014  07:20:00     -108.868      -26.697      -12.036       27.929       34.182       18.489      780.043     1168.389      341.826        0.750        0.115      112.094       15.294        0.019      333.555        2.945      863.714
03/14/2014  07:21:00       -8.130      -21.037       -1.670       28.631       31.924       21.324      819.712     1019.128      454.716        0.140        0.115       22.553       15.937        0.499      333.725        3.228      863.719
03/14/2014  07:22:00       -8.406      -14.686       -5.516       15.008       15.433       12.392      225.252      238.193      153.561        0.047        0.031       16.921        6.566        0.151      333.988        3.663      863.740
03/14/2014  07:23:00      -69.680      -44.865      -11.250       27.608       19.343       15.681      762.199      374.158      245.895        0.419        0.069       82.874       14.333        0.030      333.850        3.436      863.780
03/14/2014  07:24:00      -79.255      -57.423        3.407       47.232       31.678       24.551     2230.856     1003.494      602.757        0.671        0.192       97.871       24.538        0.063      333.816        3.379      863.811
03/14/2014  07:25:00      -82.321      -42.731        7.178       38.243       25.652       21.821     1462.554      658.046      476.148        0.562        0.130       92.751       21.013        0.051      333.904        3.525      863.826
03/14/2014  07:26:00     -113.644      -41.791       -9.210       22.256       31.028       15.827      495.331      962.752      250.502        0.823        0.085      121.085       10.684        0.008      334.029        3.733      863.854
03/14/2014  07:27:00      -88.451       -8.011       -6.971       17.464       17.446       12.211      304.991      304.370      149.118        0.435        0.038       88.813        7.639        0.007      333.966        3.629      863.876
03/14/2014  07:28:00      -49.291       17.087       -4.544       29.728       30.338       11.859      883.774      920.417      140.636        0.234        0.097       52.168        9.369        0.032      334.175        3.974      863.852
03/14/2014  07:29:00      -71.351       -3.236       -7.205       30.083       21.030       13.626      905.012      442.262      185.675        0.334        0.077       71.424        9.978        0.020      334.232        4.070      863.844
03/14/2014  07:30:00     -124.504      -11.442       -4.964       85.656       39.171       27.052     7336.897     1534.394      731.832        1.263        0.480      125.029       39.134        0.098      334.006        3.693      863.890
03/14/2014  07:31:00      -87.047       -0.086       -7.542       64.024       28.086       19.979     4099.024      788.804      399.158        0.646        0.264       87.047       24.503        0.079      333.905        3.526      863.930
03/14/2014  07:32:00       -7.473      -14.275       -2.550       10.379       17.001        8.761      107.732      289.032       76.760        0.037        0.024       16.113        8.937        0.308      334.042        3.754      863.932
03/14/2014  07:33:00      -28.185        3.724       -3.049       12.585        9.701        8.109      158.371       94.113       65.759        0.057        0.016       28.430        5.030        0.031      334.086        3.824      863.946
03/14/2014  07:34:00      -31.911      -15.087        0.253       33.244       18.872       12.837     1105.134      356.138      164.789        0.144        0.081       35.298       17.918        0.258      334.069        3.798      863.956
03/14/2014  07:35:00      -89.421      -33.603      -10.836       25.534       23.216       10.122      652.002      538.969      102.450        0.527        0.065       95.527        6.882        0.005      334.029        3.733      863.952
03/14/2014  07:36:00     -112.378      -12.212      -11.287       27.545       27.275       17.269      758.734      743.940      298.206        0.735        0.090      113.040       12.517        0.012      333.982        3.655      863.944
03/14/2014  07:37:00     -115.377        0.821       -8.196       38.115       36.057       21.203     1452.754     1300.136      449.555        0.829        0.160      115.380       19.647        0.029      334.019        3.716      863.957
03/14/2014  07:38:00     -107.312      -26.807       -6.559       57.993       39.518       24.411     3363.245     1561.678      595.885        0.890        0.276      110.609       31.113        0.079      334.030        3.734      863.963
03/14/2014  07:39:00        6.775      -55.056        1.815       22.872       33.881       25.653      523.133     1147.944      658.100        0.270        0.116       55.472       26.885        0.235      334.164        3.955      863.958
03/14/2014  07:40:00        0.823      -39.538       -7.402       26.262       18.448       14.223      689.679      340.322      202.291        0.143        0.062       39.546       15.413        0.152      334.207        4.026      863.941
03/14/2014  07:41:00      -52.589      -37.026        7.502       39.670       18.491       18.897     1573.737      341.901      357.078        0.323        0.114       64.316       21.784        0.115      334.222        4.053      863.945
03/14/2014  07:42:00     -144.217      -68.226       -8.141       24.891       29.271       14.429      619.570      856.790      208.185        1.360        0.084      159.541        5.637        0.001      334.198        4.013      863.968
03/14/2014  07:43:00      -88.469      -52.800        3.354       48.319       34.490       16.331     2334.732     1189.581      266.711        0.721        0.190      103.027       18.438        0.032      334.115        3.873      864.002
03/14/2014  07:44:00       -6.984      -37.794       -0.591       17.885       17.392       16.115      319.890      302.497      259.693        0.118        0.044       38.434       11.726        0.093      334.247        4.094      864.023
03/14/2014  07:45:00      -15.181        5.959       -9.080       10.366        8.740        9.133      107.452       76.393       83.418        0.031        0.013       16.309        4.483        0.076      334.557        4.607      864.030
03/14/2014  07:46:00      -62.145      -16.019       -3.557       42.368       21.944       12.958     1795.042      481.557      167.917        0.329        0.122       64.177       16.224        0.064      334.355        4.272      864.051
03/14/2014  07:47:00      -43.551      -33.395       -0.620       56.132       23.858       24.891     3150.766      569.219      619.584        0.368        0.217       54.881       22.880        0.174      334.183        3.988      864.072
03/14/2014  07:48:00       -8.384      -21.669       17.762       30.148       19.452       18.558      908.879      378.395      344.405        0.124        0.082       23.234       17.898        0.593      334.369        4.296      864.072
03/14/2014  07:49:00       -6.978      -16.917        0.771       10.587       14.915       12.632      112.076      222.469      159.573        0.041        0.025       18.299        9.360        0.262      334.392        4.335      864.048
03/14/2014  07:50:00        6.432       27.686       14.543       12.266       20.400       14.306      150.467      416.169      204.666        0.090        0.039       28.423       11.202        0.155      334.426        4.392      864.006
03/14/2014  07:51:00        8.506       25.965       29.890       27.822       18.601       23.654      774.073      345.996      559.490        0.166        0.084       27.323       15.658        0.328      334.521        4.549      864.001
03/14/2014  07:52:00      -11.981      -17.728       -2.399       15.266       16.219       10.549      233.039      263.060      111.282        0.054        0.030       21.397        8.421        0.155      334.633        4.734      864.009
03/14/2014  07:53:00      -18.512      -29.541        4.161       48.971       35.367       25.469     2398.195     1250.813      648.689        0.276        0.215       34.862       23.724        0.463      334.689        4.827      864.042
03/14/2014  07:54:00      -69.439      -69.282       -4.217       53.848       43.987       32.389     2899.573     1934.819     1049.056        0.776        0.294       98.091       25.459        0.067      334.363        4.287      864.068
03/14/2014  07:55:00      -37.212       -4.310       -0.373       29.969       30.346       18.525      898.116      920.885      343.186        0.178        0.108       37.461        9.613        0.066      334.357        4.276      864.087
03/14/2014  07:56:00       -0.123       35.646       -4.061       24.234       24.196       19.708      587.283      585.460      388.418        0.142        0.078       35.646       18.215        0.261      334.557        4.608      864.088
03/14/2014  07:57:00        8.478       35.460       -1.614       15.501       11.749       22.534      240.289      138.042      507.795        0.111        0.044       36.460       10.773        0.087      334.651        4.765      864.081
03/14/2014  07:58:00      -28.342       -5.440        5.609       19.589       17.306       12.240      383.732      299.500      149.817        0.085        0.042       28.859       13.999        0.235      334.710        4.864      864.105
03/14/2014  07:59:00      -22.375       -5.610        7.490       20.071       20.225       20.173      402.864      409.061      406.960        0.090        0.061       23.068       16.407        0.506      334.973        5.300      864.122
03/14/2014  08:00:00      -37.592      -19.759        9.655       21.972       16.219       16.350      482.771      263.061      267.327        0.145        0.051       42.469       10.379        0.060      334.840        5.078      864.140
03/14/2014  08:01:00      -34.074       -1.552       12.067       26.380       18.080       14.363      695.889      326.889      206.293        0.127        0.061       34.109       15.368        0.203      334.826        5.055      864.159
03/14/2014  08:02:00       -8.257        4.970       17.095       23.149        7.131       16.442      535.871       50.848      270.345        0.062        0.043        9.638       18.525        3.695      335.027        5.389      864.174
03/14/2014  08:03:00       32.798       37.710       20.001       15.649       12.738       13.389      244.895      162.252      179.256        0.174        0.029       49.978        8.051        0.026      334.829        5.060      864.181
03/14/2014  08:04:00        2.981       28.169       31.443       14.441       15.863       11.245      208.547      251.621      126.441        0.119        0.029       28.327        6.271        0.049      335.305        5.852      864.198
03/14/2014  08:05:00      -10.275        0.846       11.785       10.881       22.846       10.599      118.405      521.961      112.349        0.050        0.038       10.310        9.664        0.879      335.218        5.706      864.221
03/14/2014  08:06:00       -7.554      -11.268       19.172       11.530       15.855       11.155      132.944      251.389      124.429        0.053        0.025       13.565       10.685        0.620      335.435        6.066      864.234
03/14/2014  08:07:00        0.722       35.922       42.148       15.128       14.243       12.919      228.845      202.849      166.913        0.183        0.030       35.929       10.055        0.078      335.211        5.694      864.246
03/14/2014  08:08:00        3.084       30.498       41.052       21.865       17.771       18.152      478.094      315.823      329.494        0.187        0.056       30.653       16.428        0.287      335.346        5.920      864.249
03/14/2014  08:09:00       59.496       34.882       -2.402       19.612       16.292       23.019      384.632      265.445      529.884        0.297        0.059       68.968       10.059        0.021      335.056        5.436      864.250
03/14/2014  08:10:00       86.853       50.618       -7.529       23.934       18.266       17.288      572.850      333.644      298.891        0.568        0.060      100.526        6.758        0.005      335.004        5.351      864.247
03/14/2014  08:11:00       51.626       59.418       28.290       41.499       23.682       26.907     1722.150      560.847      723.978        0.500        0.150       78.713       26.512        0.113      335.066        5.455      864.244
03/14/2014  08:12:00       43.062       49.071       36.654       32.320       27.969       28.184     1044.569      782.248      794.360        0.411        0.131       65.286       16.301        0.062      335.093        5.498      864.257
03/14/2014  08:13:00       19.648       50.354       43.055       24.934       34.886       25.375      621.723     1217.017      643.899        0.363        0.124       54.051       20.470        0.143      335.104        5.516      864.273
03/14/2014  08:14:00       -3.752       50.052       62.207       13.775       30.870       18.681      189.757      952.957      348.983        0.394        0.075       50.192       13.943        0.077      335.124        5.548      864.282
03/14/2014  08:15:00       58.473       69.168       45.070       28.960       18.962       24.621      838.658      359.565      606.189        0.602        0.090       90.572       16.597        0.034      334.763        4.949      864.292
03/14/2014  08:16:00       23.117       73.092       57.244       24.025       28.529       23.997      577.199      813.889      575.870        0.556        0.098       76.661       15.633        0.042      334.804        5.018      864.302
03/14/2014  08:17:00       59.363       60.403       24.858       21.167       24.007       23.881      448.025      576.354      570.312        0.469        0.080       84.691       13.579        0.026      334.674        4.804      864.327
03/14/2014  08:18:00       93.207       83.620       26.575       21.338       19.887       32.145      455.325      395.478     1033.310        0.913        0.094      125.219       12.447        0.010      334.709        4.862      864.328
03/14/2014  08:19:00        2.833       60.535       90.723       30.044       35.746       20.218      902.633     1277.795      408.748        0.725        0.129       60.601       18.094        0.089      334.918        5.207      864.326
03/14/2014  08:20:00        6.439       77.538       91.806       29.392       31.401       21.551      863.901      986.007      464.438        0.840        0.116       77.804       19.036        0.060      334.772        4.966      864.348
03/14/2014  08:21:00       22.868       48.811       57.641       24.917       24.164       15.048      620.848      583.900      226.446        0.383        0.072       53.903       11.373        0.045      334.673        4.801      864.380
03/14/2014  08:22:00       39.894       56.708       32.318       47.918       24.184       34.968     2296.134      584.845     1222.756        0.498        0.205       69.335       38.082        0.302      334.788        4.992      864.394
03/14/2014  08:23:00      133.731       67.346        4.849       26.870       26.040       23.710      721.994      678.069      562.160        1.220        0.098      149.731        8.150        0.003      334.586        4.656      864.397
03/14/2014  08:24:00      109.925       71.465        1.401       24.732       18.712       22.370      611.690      350.122      500.413        0.933        0.073      131.113        6.963        0.003      334.524        4.554      864.410
03/14/2014  08:25:00       91.360       68.568        1.518       31.011       20.238       15.977      961.704      409.589      255.269        0.734        0.081      114.229       14.331        0.016      334.486        4.490      864.428
03/14/2014  08:26:00      110.986       59.610        5.963       27.438       19.255       20.582      752.836      370.770      423.620        0.873        0.077      125.981       12.772        0.010      334.527        4.558      864.426
03/14/2014  08:27:00      105.771       70.500       18.313       29.073       21.992       28.788      845.264      483.659      828.730        0.933        0.108      127.114       20.238        0.025      334.543        4.584      864.412
03/14/2014  08:28:00       63.902       59.846       30.543       23.849       31.497       23.654      568.784      992.068      559.491        0.536        0.106       87.551       14.813        0.029      334.646        4.756      864.418
03/14/2014  08:29:00       77.289       57.994       -2.994       24.647       19.690       15.766      607.457      387.700      248.579        0.529        0.062       96.627        7.138        0.005      334.626        4.722      864.448
03/14/2014  08:30:00       85.527       59.969        8.437       36.644       17.610       25.349     1342.753      310.126      642.586        0.664        0.115      104.457       21.566        0.043      334.661        4.779      864.467
03/14/2014  08:31:00       40.373       38.080       31.443       26.428       23.014       27.044      698.430      529.636      731.370        0.301        0.098       55.498       18.529        0.111      334.942        5.247      864.476
03/14/2014  08:32:00       54.063       39.352        9.582       33.152       21.282       25.700     1099.045      452.942      660.504        0.339        0.111       66.869       12.010        0.032      334.858        5.108      864.463
03/14/2014  08:33:00       73.956       76.189       13.757       29.839       17.254       20.673      890.393      297.687      427.382        0.654        0.081      106.180       17.200        0.026      334.693        4.834      864.458
03/14/2014  08:34:00       40.205       77.583       67.847       44.527       37.700       30.658     1982.675     1421.264      939.918        0.829        0.217       87.382       30.734        0.124      334.935        5.236      864.440
03/14/2014  08:35:00       75.296       65.383       45.627       53.354       29.711       42.236     2846.620      882.754     1783.877        0.877        0.276       99.722       31.385        0.099      334.824        5.052      864.426
03/14/2014  08:36:00        6.766       66.629       99.680       34.589       50.304       28.737     1196.387     2530.491      825.811        0.949        0.228       66.972       31.770        0.225      335.060        5.443      864.396
03/14/2014  08:37:00       70.651     -121.246       -4.503       40.030       32.284       25.423     1602.423     1042.285      646.315        1.150        0.165      140.329        5.413        0.001      334.968        5.291      864.403
03/14/2014  08:38:00       10.928      -53.341        9.544       43.842       51.016       31.197     1922.102     2602.615      973.222        0.428        0.275       54.449       33.643        0.382      335.297        5.837      864.421
03/14/2014  08:39:00      -10.074      -11.689       13.623       28.486       27.644       17.749      811.453      764.192      315.016        0.116        0.095       15.431       16.554        1.151      335.378        5.971      864.445
03/14/2014  08:40:00      -23.974       -9.372        5.004       36.133       31.661       26.060     1305.568     1002.414      679.112        0.184        0.149       25.740       17.976        0.488      335.310        5.858      864.455
03/14/2014  08:41:00       50.125      101.966       85.114       37.274       49.619       50.591     1389.340     2462.011     2559.399        1.328        0.321      113.620       38.329        0.114      335.232        5.728      864.405
03/14/2014  08:42:00       50.842      137.312      124.767       53.812       50.351       32.554     2895.711     2535.272     1059.793        2.175        0.325      146.422       22.968        0.025      335.236        5.735      864.369
03/14/2014  08:43:00       34.178       75.440       80.673       49.913       49.582       33.259     2491.293     2458.384     1106.180        0.971        0.303       82.821       41.084        0.246      335.288        5.822      864.395
03/14/2014  08:44:00      -51.032       17.673        4.859       46.543       25.998       23.690     2166.257      675.907      561.225        0.317        0.170       54.006       25.861        0.229      335.399        6.008      864.453
03/14/2014  08:45:00     -134.302      -20.153       -1.218       56.117       44.739       29.985     3149.139     2001.621      899.091        1.225        0.302      135.806       33.639        0.061      335.207        5.688      864.466
03/14/2014  08:46:00       -6.952       47.785       38.376       43.643       39.383       50.602     1904.702     1551.032     2560.555        0.491        0.301       48.288       37.042        0.588      335.541        6.244      864.422
03/14/2014  08:47:00       -7.647       96.665      134.641       32.605       49.696       31.176     1063.063     2469.700      971.962        1.602        0.225       96.967       30.885        0.101      335.583        6.315      864.384
03/14/2014  08:48:00       25.551       79.226       97.310       49.852       51.814       34.371     2485.187     2684.734     1181.385        1.137        0.318       83.244       38.034        0.209      335.469        6.124      864.394
03/14/2014  08:49:00       21.435       31.726       52.892       31.459       33.477       32.580      989.683     1120.736     1061.430        0.372        0.159       38.289       27.451        0.514      335.597        6.336      864.416
03/14/2014  08:50:00        6.846       17.540       33.747       21.066       21.720       12.851      443.792      471.742      165.141        0.129        0.054       18.829       12.313        0.428      335.893        6.830      864.448
03/14/2014  08:51:00       82.002       65.668       13.597       42.129       47.437       28.086     1774.812     2250.264      788.818        0.802        0.241      105.055       19.492        0.034      335.530        6.227      864.456
03/14/2014  08:52:00       41.917       33.157       53.296       38.645       42.317       30.588     1493.413     1790.695      935.619        0.496        0.211       53.446        7.396        0.019      335.807        6.687      864.459
03/14/2014  08:53:00       11.715      -65.931        5.780       32.957       57.522       41.218     1086.171     3308.837     1698.952        0.530        0.305       66.964       41.157        0.378      335.769        6.624      864.502
03/14/2014  08:54:00      -23.033       -3.346        5.325       23.654       22.281       18.110      559.497      496.455      327.967        0.098        0.069       23.274       12.529        0.290      335.788        6.656      864.529
03/14/2014  08:55:00       19.766        0.649        3.100       47.806       26.288       24.803     2285.425      691.062      615.204        0.200        0.180       19.777       18.935        0.917      335.779        6.640      864.510
03/14/2014  08:56:00       10.160       58.475       99.127       37.824       50.227       25.921     1430.634     2522.742      671.917        0.899        0.231       59.352       26.767        0.203      335.765        6.618      864.462
03/14/2014  08:57:00       29.290       86.095       96.604       55.989       53.961       42.696     3134.754     2911.826     1822.980        1.273        0.393       90.941       42.240        0.216      335.512        6.196      864.467
03/14/2014  08:58:00       40.919       25.766       20.526       19.240       26.998       21.965      370.166      728.893      482.467        0.217        0.079       48.355       17.854        0.136      335.386        5.984      864.514
03/14/2014  08:59:00       77.328       49.402        8.372       21.215       17.727       17.246      450.068      314.248      297.420        0.478        0.053       91.761        8.659        0.009      335.330        5.892      864.543
03/14/2014  09:00:00       72.302       48.447        3.406       32.238       21.062       24.741     1039.302      443.600      612.134        0.484        0.105       87.033       16.159        0.034      335.293        5.830      864.527
03/14/2014  09:01:00       19.050       51.580       67.711       24.125       37.145       15.812      582.018     1379.756      250.016        0.491        0.111       54.986       19.065        0.120      335.691        6.492      864.529
03/14/2014  09:02:00       19.918       38.106       47.981       23.442       29.563       14.126      549.537      873.944      199.547        0.289        0.081       42.998       16.868        0.154      335.810        6.692      864.559
03/14/2014  09:03:00       46.356       42.157       27.614       29.482       21.090       26.650      869.193      444.796      710.214        0.336        0.101       62.659       19.854        0.100      335.668        6.454      864.580
03/14/2014  09:04:00       36.107       60.531       61.638       28.686       25.423       16.335      822.899      646.307      266.833        0.525        0.087       70.482       11.907        0.029      335.721        6.543      864.593
03/14/2014  09:05:00       76.106       40.340       18.420       24.012       23.522       22.598      576.556      553.286      510.676        0.470        0.082       86.136       15.412        0.032      335.567        6.286      864.604
03/14/2014  09:06:00       58.524       66.962       41.777       36.315       46.056       29.981     1318.766     2121.175      898.880        0.700        0.217       88.932       27.159        0.093      335.791        6.660      864.622
03/14/2014  09:07:00       17.543       52.074       73.234       36.803       40.280       19.539     1354.460     1622.451      381.759        0.587        0.168       54.950       20.589        0.140      335.925        6.885      864.637
03/14/2014  09:08:00       40.649       55.511       59.727       39.029       19.122       22.217     1523.243      365.656      493.578        0.534        0.119       68.803       23.863        0.120      335.780        6.643      864.667
03/14/2014  09:09:00       46.079       48.385       32.554       34.321       24.899       30.645     1177.937      619.955      939.089        0.413        0.137       66.816       24.177        0.131      335.774        6.632      864.676
03/14/2014  09:10:00       -0.142       61.902       76.033       28.292       35.821       16.875      800.460     1283.169      284.767        0.599        0.118       61.902       15.147        0.060      336.163        7.281      864.675
03/14/2014  09:11:00       74.309       70.121       62.986       20.778       17.337       21.085      431.709      300.561      444.568        0.779        0.059      102.170        8.718        0.007      335.730        6.558      864.672
03/14/2014  09:12:00       98.466       80.656       27.037       22.661       17.382       28.887      513.508      302.142      834.470        0.929        0.083      127.283       16.931        0.018      335.631        6.395      864.694
03/14/2014  09:13:00       65.870       53.509       11.251       28.955       25.637       23.949      838.381      657.270      573.561        0.470        0.103       84.865       17.410        0.042      335.660        6.442      864.723
03/14/2014  09:14:00        8.660       50.211      -10.676       18.122       21.068       13.191      328.418      443.846      173.993        0.183        0.047       50.952       10.569        0.043      335.746        6.586      864.777
03/14/2014  09:15:00       15.008       32.029        6.203       23.257       27.107       16.348      540.890      734.771      267.259        0.142        0.077       35.371       15.277        0.187      335.956        6.934      864.804
03/14/2014  09:16:00       73.962       55.883       10.519       18.868       23.950       19.249      356.006      573.601      370.516        0.500        0.065       92.701       15.635        0.028      335.678        6.472      864.822
03/14/2014  09:17:00       84.196       65.386        6.749       20.045       16.069       18.365      401.797      258.200      337.290        0.620        0.050      106.604        8.350        0.006      335.739        6.575      864.832
03/14/2014  09:18:00      106.731       64.029        3.443       22.117       17.357       21.877      489.165      301.254      478.619        0.839        0.063      124.463       13.595        0.012      335.748        6.589      864.854
03/14/2014  09:19:00      103.096       62.187        6.589       32.416       21.322       29.611     1050.776      454.632      876.793        0.846        0.119      120.399       17.696        0.022      335.831        6.727      864.849
03/14/2014  09:20:00        9.929       36.048       48.049       20.802       25.564       20.672      432.711      653.498      427.321        0.261        0.076       37.390       14.699        0.155      336.195        7.334      864.865
03/14/2014  09:21:00       42.540       54.190       28.211       30.924       18.494       30.361      956.306      342.015      921.805        0.388        0.111       68.892       22.073        0.103      335.911        6.861      864.891
03/14/2014  09:22:00       43.090       70.562        4.953       32.224       33.255       25.231     1038.383     1105.869      636.620        0.482        0.139       82.679       16.865        0.042      335.896        6.835      864.898
03/14/2014  09:23:00       75.731       64.713       40.002       53.435       35.760       40.108     2855.273     1278.783     1608.622        0.863        0.287       99.614       39.132        0.154      335.955        6.934      864.898
03/14/2014  09:24:00        7.512       92.914      105.648       28.015       38.136       20.429      784.853     1454.328      417.351        1.125        0.133       93.217       19.502        0.044      335.983        6.979      864.896
03/14/2014  09:25:00       43.179       93.908       87.590       35.072       37.746       17.447     1230.070     1424.761      304.389        1.066        0.148      103.359       18.216        0.031      335.894        6.832      864.910
03/14/2014  09:26:00       20.872       64.004       60.472       30.587       26.635       27.527      935.559      709.413      757.731        0.530        0.120       67.322       19.150        0.081      336.113        7.197      864.918
03/14/2014  09:27:00       23.085       84.042       83.766       26.528       30.477       16.271      703.745      928.834      264.755        0.825        0.095       87.155       14.715        0.029      336.096        7.168      864.923
03/14/2014  09:28:00       -3.945       48.967       70.838       27.751       47.901       33.858      770.134     2294.529     1146.333        0.582        0.211       49.126       30.567        0.387      336.462        7.781      864.904
03/14/2014  09:29:00       -9.656       31.527       67.200       16.324       41.957       21.034      266.471     1760.351      442.439        0.404        0.123       32.973       21.334        0.419      336.623        8.050      864.905
03/14/2014  09:30:00        9.822       23.905       42.497       30.205       33.577       21.715      912.334     1127.412      471.558        0.249        0.126       25.844       24.537        0.901      336.568        7.957      864.906
03/14/2014  09:31:00       67.396       37.122       27.116       38.695       52.195       40.015     1497.296     2724.306     1601.172        0.624        0.291       76.943       13.608        0.031      336.276        7.470      864.897
03/14/2014  09:32:00      101.060       82.984       12.869       36.871       23.562       21.719     1359.490      555.180      471.723        0.983        0.119      130.765       15.680        0.014      336.078        7.138      864.881
03/14/2014  09:33:00       84.976       79.996        9.823       35.130       28.056       38.298     1234.113      787.150     1466.745        0.860        0.174      116.706       21.702        0.035      336.366        7.619      864.882
03/14/2014  09:34:00       78.723       46.803        6.037       33.091       24.722       25.231     1094.994      611.201      636.600        0.538        0.117       91.585        8.219        0.008      336.309        7.523      864.901
03/14/2014  09:35:00      122.336       70.079        6.749       19.247       20.245       21.614      370.447      409.864      467.154        1.058        0.062      140.986       13.325        0.009      336.173        7.298      864.932
03/14/2014  09:36:00       65.236       68.854       -7.634       34.652       24.007       22.248     1200.747      576.319      494.991        0.566        0.114       94.851        8.721        0.008      336.092        7.162      864.961
03/14/2014  09:37:00       84.186       72.934        1.085       30.445       24.113       23.339      926.897      581.461      544.709        0.723        0.103      111.385       14.515        0.017      336.155        7.267      864.969
03/14/2014  09:38:00      124.297      114.139       17.708       31.351       22.532       28.373      982.912      507.694      805.017        1.554        0.115      168.753       14.440        0.007      336.148        7.255      864.954
03/14/2014  09:39:00       54.260       66.853       53.821       42.743       36.702       30.904     1827.005     1347.072      955.077        0.722        0.206       86.102       10.696        0.015      336.682        8.149      864.951
03/14/2014  09:40:00      -12.654        6.341       39.837       16.147       21.365       19.795      260.734      456.459      391.840        0.145        0.055       14.154       14.422        1.038      337.046        8.756      864.965
03/14/2014  09:41:00       12.398       19.734       53.528       25.780       28.370       14.834      664.599      804.876      220.038        0.255        0.084       23.306       11.868        0.259      336.743        8.250      864.975
03/14/2014  09:42:00       15.310       43.395       52.784       43.909       31.218       29.484     1928.018      974.587      869.284        0.434        0.189       46.017       20.619        0.201      336.889        8.493      864.973
03/14/2014  09:43:00       77.171       39.294        6.834       29.368       21.908       30.855      862.468      479.942      952.042        0.492        0.115       86.599       15.675        0.033      336.288        7.489      864.968
03/14/2014  09:44:00       36.984       52.823       31.793       20.981       23.092       33.145      440.190      533.230     1098.620        0.362        0.104       64.483       16.360        0.064      336.650        8.095      864.965
03/14/2014  09:45:00       28.723       25.694       22.022       30.933       64.804       34.784      956.870     4199.509     1209.948        0.417        0.318       38.538       16.190        0.176      336.876        8.473      864.964
03/14/2014  09:46:00        9.180       -8.781       23.430       23.130       53.218       33.878      535.000     2832.114     1147.711        0.261        0.226       12.704       30.278        5.680      337.358        9.280      864.966
03/14/2014  09:47:00       10.561       17.827       35.580       26.315       32.495       24.720      692.502     1055.908      611.064        0.203        0.118       20.721       18.941        0.836      337.185        8.988      864.962
03/14/2014  09:48:00        8.034       36.351       57.110       25.257       34.239       22.430      637.928     1172.332      503.115        0.348        0.116       37.228       20.499        0.303      337.288        9.161      864.951
03/14/2014  09:49:00       20.929       30.268       69.534       46.233       49.010       26.951     2137.527     2401.974      726.358        0.573        0.263       36.799       33.287        0.818      337.434        9.405      864.943
03/14/2014  09:50:00       96.995       50.032       33.604       82.746       47.601       54.870     6846.894     2265.820     3010.750        1.258        0.606      109.139       52.827        0.234      336.889        8.493      864.937
03/14/2014  09:51:00       75.642       38.137       19.306       53.839       43.008       33.859     2898.674     1849.667     1146.451        0.672        0.295       84.712       26.098        0.095      337.094        8.836      864.943
03/14/2014  09:52:00       56.387       68.713       58.399       55.470       39.339       39.146     3076.932     1547.547     1532.438        0.873        0.308       88.888       33.520        0.142      337.391        9.335      864.947
03/14/2014  09:53:00       18.053       48.206       60.907       47.499       50.182       37.914     2256.162     2518.194     1437.470        0.628        0.311       51.476       30.664        0.355      337.503        9.520      864.952
03/14/2014  09:54:00       73.898       79.528       56.568       40.063       27.683       41.033     1605.011      766.361     1683.675        0.952        0.203      108.562       20.978        0.037      336.828        8.393      864.974
03/14/2014  09:55:00       77.439       80.270       51.783       33.532       16.812       31.247     1124.407      282.658      976.397        0.875        0.119      111.535       15.432        0.019      336.805        8.353      865.003
03/14/2014  09:56:00      100.399      102.090       72.998       58.283       35.006       42.052     3396.951     1225.447     1768.378        1.611        0.320      143.186       39.212        0.075      336.753        8.267      865.020
03/14/2014  09:57:00      133.109       72.236       29.859       52.687       57.983       45.056     2775.879     3362.010     2030.039        1.600        0.408      151.447       33.021        0.048      336.706        8.187      865.026
03/14/2014  09:58:00      112.720       99.057       66.179       34.767       19.895       30.516     1208.748      395.820      931.243        1.472        0.127      150.061       21.697        0.021      336.730        8.228      865.018
03/14/2014  09:59:00       99.290       72.327       30.674       35.514       25.829       38.281     1261.240      667.126     1465.453        0.971        0.170      122.841       26.844        0.048      336.817        8.374      865.018
03/14/2014  10:00:00      123.799       95.280       15.854       27.489       24.464       24.215      755.654      598.467      586.384        1.330        0.097      156.220       17.942        0.013      336.657        8.107      865.023
03/14/2014  10:01:00       94.180       77.998       32.585       31.027       21.878       28.797      962.697      478.667      829.242        0.914        0.114      122.285       15.787        0.017      336.872        8.464      865.022
03/14/2014  10:02:00       31.699       73.851       76.054       38.848       41.632       34.715     1509.131     1733.252     1205.123        0.834        0.222       80.366       27.881        0.120      337.174        8.970      865.036
03/14/2014  10:03:00      100.661      110.117       68.074       46.151       28.848       34.089     2129.878      832.187     1162.036        1.551        0.206      149.192       25.642        0.030      336.761        8.280      865.053
03/14/2014  10:04:00       83.971       91.987       74.371       49.734       38.794       36.362     2473.509     1504.978     1322.184        1.317        0.265      124.550       26.747        0.046      336.966        8.624      865.062
03/14/2014  10:05:00        6.689       58.458       93.154       29.484       60.119       42.643      869.307     3614.335     1818.451        0.922        0.315       58.840       43.411        0.544      337.388        9.329      865.045
03/14/2014  10:06:00       85.488       89.053       59.684       30.706       29.815       40.584      942.851      888.942     1647.063        1.114        0.174      123.445       32.681        0.070      336.835        8.403      865.065
03/14/2014  10:07:00       66.400       64.845       34.124       32.409       26.779       25.652     1050.342      717.129      658.008        0.610        0.121       92.811       18.887        0.041      336.921        8.547      865.082
03/14/2014  10:08:00       76.973       54.345       52.813       44.708       44.938       33.788     1998.820     2019.409     1141.638        0.841        0.258       94.224       32.548        0.119      337.107        8.857      865.088
03/14/2014  10:09:00      127.402       80.628        3.201       62.304       49.461       33.993     3881.806     2446.432     1155.550        1.511        0.374      150.771       15.833        0.011      337.161        8.948      865.080
03/14/2014  10:10:00      150.966       96.558       -4.188       32.840       43.277       32.160     1078.472     1872.906     1034.292        1.806        0.199      179.205        8.285        0.002      337.008        8.692      865.078
03/14/2014  10:11:00       84.047       71.551       51.901       70.479       48.174       47.285     4967.271     2320.770     2235.918        1.220        0.476      110.378       47.266        0.183      337.359        9.279      865.077
03/14/2014  10:12:00       68.083       97.937       68.932       73.839       45.643       58.316     5452.251     2083.266     3400.710        1.496        0.547      119.277       53.051        0.198      337.259        9.111      865.069
03/14/2014  10:13:00       65.856       42.524       48.867       43.069       42.409       37.047     1854.969     1798.485     1372.488        0.678        0.251       78.392       24.725        0.099      337.077        8.808      865.082
03/14/2014  10:14:00       39.309       -3.011       54.593       56.397       82.205       47.553     3180.589     6757.671     2261.327        0.836        0.610       39.425       57.848        2.153      337.196        9.007      865.094
03/14/2014  10:15:00       38.275       14.446       23.160       28.869       25.990       30.921      833.442      675.473      956.091        0.234        0.123       40.910       21.860        0.286      337.240        9.081      865.111
03/14/2014  10:16:00       41.866       21.280       56.665       46.224       52.316       35.666     2136.658     2736.977     1272.093        0.578        0.307       46.963       33.307        0.503      337.328        9.229      865.124
03/14/2014  10:17:00        7.302       11.966       44.555       25.429       44.720       26.302      646.652     1999.861      691.780        0.276        0.167       14.018        9.522        0.461      337.374        9.304      865.154
03/14/2014  10:18:00       17.066       35.908        5.038       24.690       14.284       20.236      609.605      204.037      409.476        0.141        0.061       39.757       13.148        0.109      337.099        8.844      865.197
03/14/2014  10:19:00       64.430       53.305       17.511       32.262       23.628       21.778     1040.833      558.260      474.276        0.469        0.104       83.622       17.427        0.043      337.180        8.981      865.200
03/14/2014  10:20:00      126.810       71.255       12.372       54.521       36.463       36.969     2972.555     1329.518     1366.731        1.349        0.283      145.458       26.798        0.034      337.146        8.922      865.181
03/14/2014  10:21:00      115.155      108.678       52.319       58.084       32.185       40.054     3373.724     1035.863     1604.325        1.691        0.301      158.340       30.593        0.037      337.216        9.041      865.134
03/14/2014  10:22:00       66.199       86.576       56.003       45.679       49.793       44.541     2086.593     2479.345     1983.930        1.078        0.327      108.985       35.138        0.104      337.444        9.421      865.121
03/14/2014  10:23:00       87.279       50.336       -0.131       30.294       29.507       24.782      917.740      870.649      614.128        0.628        0.120      100.754        7.849        0.006      337.306        9.192      865.136
03/14/2014  10:24:00       61.597       25.393       17.414       45.733       27.371       23.624     2091.509      749.176      558.109        0.407        0.170       66.626       20.875        0.098      337.477        9.477      865.156
03/14/2014  10:25:00       26.583       44.365        2.818       32.893       25.536       27.919     1081.943      652.077      779.479        0.260        0.126       51.720       17.313        0.112      337.535        9.575      865.174
03/14/2014  10:26:00       84.139       73.924       17.806       39.146       34.436       28.646     1532.374     1185.861      820.575        0.820        0.177      112.001        7.493        0.004      337.459        9.446      865.181
03/14/2014  10:27:00      134.656       94.798        6.762       49.821       31.474       39.511     2482.148      990.635     1561.151        1.610        0.252      164.678       28.865        0.031      337.432        9.400      865.146
03/14/2014  10:28:00      100.380       84.600       27.489       67.368       38.259       49.362     4538.456     1463.776     2436.558        1.321        0.422      131.276       42.238        0.104      337.449        9.430      865.130
03/14/2014  10:29:00      137.562      102.148       15.893       36.807       32.220       33.837     1354.739     1038.146     1144.970        1.657        0.177      171.340       13.995        0.007      337.244        9.088      865.137
03/14/2014  10:30:00       50.668       93.414       93.829       79.533       53.868       68.879     6325.570     2901.779     4744.260        1.703        0.699      106.270       63.006        0.352      337.545        9.591      865.128
03/14/2014  10:31:00      173.435      147.336       95.412       77.748       38.562       49.447     6044.803     1486.995     2445.016        3.543        0.499      227.569       46.166        0.041      337.326        9.218      865.122
03/14/2014  10:32:00      117.810       58.175       51.553       76.658       62.104       53.455     5876.478     3856.928     2857.395        1.625        0.630      131.391       46.527        0.125      337.439        9.413      865.117
03/14/2014  10:33:00       84.084      102.982       86.764       82.298       51.389       48.514     6772.923     2640.855     2353.634        1.848        0.588      132.949       42.931        0.104      337.835       10.077      865.087
03/14/2014  10:34:00      112.538       86.072       85.687      118.971       44.954       53.094    14154.067     2020.866     2818.950        2.320        0.950      141.680       56.613        0.160      337.878       10.148      865.062
03/14/2014  10:35:00       73.208       42.534       12.436       79.887       56.747       37.308     6381.983     3220.222     1391.887        0.916        0.550       84.667       31.641        0.140      338.166       10.633      865.085
03/14/2014  10:36:00      103.598       57.088       14.787       50.906       39.054       35.188     2591.433     1525.247     1238.189        0.978        0.268      118.286       17.849        0.023      337.903       10.193      865.094
03/14/2014  10:37:00       76.975       60.143       23.287       32.116       33.924       25.258     1031.464     1150.833      637.947        0.645        0.141       97.684       19.083        0.038      337.891       10.171      865.108
03/14/2014  10:38:00       24.212      -82.916       15.887       31.226       51.464       28.921      975.083     2648.499      836.450        0.609        0.223       86.379       19.196        0.049      338.110       10.540      865.119
03/14/2014  10:39:00       28.909      -17.010       49.068       39.734       87.825       45.211     1578.776     7713.218     2044.024        0.743        0.567       33.542       43.910        1.714      338.458       11.124      865.114
03/14/2014  10:40:00       43.681       29.359       25.219       34.758       57.072       40.989     1208.120     3257.169     1680.134        0.477        0.307       52.631       26.548        0.254      338.204       10.698      865.121
03/14/2014  10:41:00       93.798       66.187       37.572       54.688       72.565       53.801     2990.814     5265.692     2894.505        1.287        0.558      114.799       55.208        0.231      338.145       10.597      865.119
03/14/2014  10:42:00      147.014       93.861       58.167       46.967       65.224       44.913     2205.892     4254.223     2017.165        2.114        0.424      174.422       35.034        0.040      337.810       10.035      865.102
03/14/2014  10:43:00      113.468      151.611      116.012       75.603       50.525       56.062     5715.779     2552.794     3142.957        3.036        0.571      189.370       48.575        0.066      338.029       10.399      865.079
03/14/2014  10:44:00       93.562       92.700       68.683       82.355       48.915       37.508     6782.401     2392.701     1406.821        1.632        0.529      131.708       33.811        0.066      338.141       10.590      865.068
03/14/2014  10:45:00       37.750       47.278       62.742       49.632       47.914       29.012     2463.383     2295.737      841.717        0.660        0.280       60.500       21.467        0.126      338.292       10.843      865.080
03/14/2014  10:46:00       75.340       65.654       67.292       68.080       45.298       46.648     4634.928     2051.896     2176.013        1.169        0.443       99.933       43.697        0.191      338.328       10.903      865.071
03/14/2014  10:47:00       70.731       71.750       86.172       41.342       48.059       45.995     1709.127     2309.690     2115.567        1.185        0.307      100.752       38.638        0.147      338.085       10.498      865.076
03/14/2014  10:48:00       54.094       89.268       87.344       51.653       49.432       43.450     2668.001     2443.572     1887.890        1.276        0.350      104.379       43.122        0.171      338.181       10.659      865.079
03/14/2014  10:49:00       35.249       62.399       77.463       39.918       39.335       24.718     1593.425     1547.243      610.966        0.744        0.188       71.667       16.695        0.054      338.447       11.104      865.075
03/14/2014  10:50:00       58.955       79.033       72.017       49.909       35.739       45.329     2490.958     1277.263     2054.727        1.036        0.291       98.600       37.214        0.142      338.339       10.923      865.073
03/14/2014  10:51:00       49.208      -63.375       17.716       43.112       94.315       50.304     1858.645     8895.262     2530.498        1.002        0.664       80.236       59.732        0.554      338.546       11.272      865.065
03/14/2014  10:52:00       76.099      -15.300       31.584       58.646      112.560       69.824     3439.381    12669.769     4875.361        1.400        1.049       77.622       82.493        1.129      338.745       11.606      865.063
03/14/2014  10:53:00       43.178       31.209       63.016       43.458       56.432       31.353     1888.597     3184.587      983.003        0.643        0.303       53.276       30.925        0.337      338.682       11.498      865.053
03/14/2014  10:54:00       59.424       -3.308       44.654       49.679       89.657       51.926     2467.973     8038.356     2696.354        0.937        0.660       59.516       54.312        0.833      338.753       11.620      865.042
03/14/2014  10:55:00       47.231      -60.183        7.903       63.170       59.726       50.093     3990.413     3567.146     2509.346        0.799        0.503       76.503       53.717        0.493      338.993       12.021      865.033
03/14/2014  10:56:00       51.078      -28.349       50.448       70.662      115.743       73.468     4993.082    13396.540     5397.500        1.487        1.189       58.417       86.234        2.179      338.847       11.776      865.035
03/14/2014  10:57:00      126.923     -157.695      -14.915       45.059       50.831       31.784     2030.296     2583.826     1010.252        2.341        0.281      202.428       23.280        0.013      338.308       10.870      865.047
03/14/2014  10:58:00       68.079      -94.451      -15.623       62.442       64.430       43.135     3899.022     4151.198     1860.651        1.185        0.496      116.429       30.775        0.070      338.593       11.349      865.042
03/14/2014  10:59:00       23.619       29.455       72.585       44.284       84.802       54.980     1961.071     7191.355     3022.781        0.943        0.609       37.756       51.592        1.867      338.765       11.638      865.047
03/14/2014  11:00:00        6.034       20.061       58.099       28.981       43.862       19.464      839.883     1923.863      378.831        0.348        0.157       20.949       16.516        0.622      338.938       11.930      865.047
03/14/2014  11:01:00       36.412       -3.293       29.084       46.959       61.870       33.650     2205.130     3827.878     1132.341        0.467        0.358       36.560       33.585        0.844      338.927       11.911      865.039
03/14/2014  11:02:00       -1.034       78.924      105.470       32.887       48.120       33.112     1081.557     2315.501     1096.424        1.092        0.225       78.931       32.476        0.169      339.126       12.247      865.036
03/14/2014  11:03:00      157.923      127.345       97.515       73.596       58.658       59.601     5416.312     3440.802     3552.301        3.154        0.620      202.871       43.014        0.045      338.553       11.278      865.032
03/14/2014  11:04:00       72.672       87.532       86.946       66.970       70.071       67.402     4484.947     4909.905     4543.024        1.722        0.697      113.767       59.271        0.271      338.491       11.179      865.033
03/14/2014  11:05:00       89.065      -52.730       25.894       52.929       75.178       52.402     2801.518     5651.710     2745.917        1.129        0.560      103.504       44.276        0.183      338.772       11.651      865.012
03/14/2014  11:06:00       44.460        6.206       48.984       82.803       55.773       45.917     6856.269     3110.627     2108.393        0.824        0.604       44.891       43.575        0.942      338.921       11.900      865.030
03/14/2014  11:07:00       20.781      -32.647       37.200       50.767       53.100       41.672     2577.245     2819.567     1736.584        0.501        0.357       38.700       29.365        0.576      338.928       11.912      865.052
03/14/2014  11:08:00       23.623       64.662       89.168       42.799       53.427       34.452     1831.727     2854.472     1186.967        0.928        0.294       68.842       34.292        0.248      338.856       11.791      865.072
03/14/2014  11:09:00       75.324     -122.938      -10.102       60.200       86.951       47.468     3624.022     7560.512     2253.256        1.716        0.672      144.178       52.037        0.130      338.769       11.644      865.083
03/14/2014  11:10:00       84.699     -159.343      -23.119       73.600       56.470       44.801     5416.932     3188.914     2007.101        2.185        0.531      180.455       39.742        0.049      338.670       11.477      865.075
03/14/2014  11:11:00       76.394      -79.540       -1.233       68.946       77.438       49.929     4753.541     5996.672     2492.863        1.270        0.662      110.284       58.509        0.281      338.927       11.911      865.094
03/14/2014  11:12:00        3.864       53.809       90.348       41.734       74.215       54.311     1741.764     5507.924     2949.657        1.063        0.510       53.948       56.909        1.113      338.849       11.780      865.120
03/14/2014  11:13:00       33.863       65.315       67.757       37.321       38.873       34.089     1392.853     1511.076     1162.040        0.703        0.203       73.571       31.719        0.186      338.596       11.356      865.145
03/14/2014  11:14:00       51.684      -59.753        5.045       41.135       50.479       43.432     1692.112     2548.168     1886.322        0.620        0.306       79.004       41.598        0.277      338.798       11.694      865.135
03/14/2014  11:15:00       14.478       51.251       80.465       35.949       43.569       23.240     1292.301     1898.286      540.101        0.652        0.187       53.257       21.491        0.163      338.939       11.933      865.126
03/14/2014  11:16:00        9.005       54.348       81.037       35.239       63.962       43.781     1241.816     4091.191     1916.736        0.842        0.362       55.089       46.620        0.716      338.788       11.678      865.123
03/14/2014  11:17:00       46.507      -38.007       31.194       55.189      104.396       53.571     3045.829    10898.440     2869.821        1.069        0.841       60.062       73.607        1.502      338.784       11.670      865.107
03/14/2014  11:18:00       96.140     -102.525        5.577       64.285      113.102       59.457     4132.596    12792.154     3535.117        2.012        1.023      140.550       75.704        0.290      338.854       11.786      865.096
03/14/2014  11:19:00      102.086     -100.817      -30.081       68.199       78.567       39.618     4651.127     6172.767     1569.583        1.694        0.620      143.477       51.157        0.127      338.846       11.774      865.105
03/14/2014  11:20:00       12.935       76.876      102.235       48.448       94.323       67.924     2347.241     8896.823     4613.729        1.619        0.793       77.957       71.297        0.836      339.099       12.199      865.098
03/14/2014  11:21:00       15.038       83.668      110.833       50.853       77.682       42.486     2586.074     6034.467     1805.100        1.497        0.521       85.009       49.483        0.339      339.194       12.360      865.086
03/14/2014  11:22:00       17.755       98.948      125.392       48.608       69.442       41.984     2362.759     4822.132     1762.653        1.739        0.447      100.528       42.265        0.177      339.209       12.385      865.050
03/14/2014  11:23:00       57.002       32.028       57.585       55.243      131.677       74.764     3051.770    17338.835     5589.623        1.678        1.299       65.383       90.957        1.935      339.129       12.249      865.026
03/14/2014  11:24:00      121.397     -155.321        0.565      101.740      133.861       71.687    10351.126    17918.713     5139.078        3.613        1.670      197.134       89.477        0.206      339.044       12.107      864.985
03/14/2014  11:25:00      250.654     -288.529      -64.183       49.273       58.207       30.039     2427.790     3388.090      902.341        7.846        0.336      382.200       25.569        0.004      338.564       11.297      864.950
03/14/2014  11:26:00      212.828     -230.899      -53.210       51.987       59.314       29.883     2702.650     3518.112      893.005        5.428        0.356      314.023       24.279        0.006      338.785       11.668      864.949
03/14/2014  11:27:00       82.862      -32.574       45.202      103.727      166.985      103.459    10759.364    27884.099    10703.706        2.965        2.467       89.034      124.117        1.943      339.328       12.584      864.941
03/14/2014  11:28:00       81.294     -138.982      -15.643       98.990      124.328       75.805     9798.940    15457.460     5746.385        2.858        1.550      161.012       84.512        0.275      339.349       12.619      864.948
03/14/2014  11:29:00       61.549     -114.167        1.707      105.279      112.035       53.554    11083.698    12551.873     2868.024        2.166        1.325      129.701       53.095        0.168      339.350       12.621      864.947
03/14/2014  11:30:00      -12.193       49.450      119.398       40.049       85.112       67.550     1603.918     7244.035     4563.044        1.513        0.671       50.931       67.702        1.767      339.813       13.403      864.943
03/14/2014  11:31:00       29.118       68.659      120.030       75.878       78.393       59.225     5757.422     6145.453     3507.580        1.769        0.771       74.579       61.404        0.678      339.663       13.150      864.933
03/14/2014  11:32:00       16.506      -10.582       48.364       81.961       69.471       43.584     6717.683     4826.230     1899.583        0.808        0.672       19.607       47.658        5.908      339.835       13.441      864.927
03/14/2014  11:33:00       78.154     -108.312       -7.949       85.645       97.041       51.328     7335.100     9416.937     2634.522        1.864        0.969      133.565       67.915        0.259      339.657       13.140      864.932
03/14/2014  11:34:00       65.022      -55.536       43.406      109.179      116.502       80.909    11919.994    13572.686     6546.244        2.061        1.602       85.511       88.608        1.074      339.856       13.476      864.918
03/14/2014  11:35:00       36.024     -129.899        1.939       75.209      103.669       68.692     5656.447    10747.333     4718.649        1.964        1.056      134.801       59.047        0.192      339.595       13.036      864.926
03/14/2014  11:36:00      100.392     -203.506      -17.674       52.171       62.862       38.208     2721.773     3951.673     1459.869        2.997        0.407      226.921       20.727        0.008      339.140       12.267      864.947
03/14/2014  11:37:00        5.335       -6.524       36.400       45.438       65.333       59.636     2064.647     4268.463     3556.510        0.564        0.494        8.427       54.216       41.388      340.116       13.915      864.934
03/14/2014  11:38:00      -24.059       48.837       93.484       34.429       42.026       38.133     1185.376     1766.193     1454.090        0.805        0.220       54.442       31.336        0.331      340.186       14.034      864.934
03/14/2014  11:39:00       38.164       71.425       73.286       51.001       43.857       43.112     2601.101     1923.480     1858.686        0.915        0.319       80.981       27.130        0.112      339.795       13.373      864.935
03/14/2014  11:40:00       81.415       77.322       68.814       64.075       65.476       50.440     4105.656     4287.077     2544.231        1.414        0.547      112.281       44.198        0.155      339.576       13.004      864.916
03/14/2014  11:41:00       77.407       95.938       95.711       74.284       59.061       49.437     5518.148     3488.196     2444.000        1.790        0.573      123.272       48.674        0.156      339.638       13.106      864.899
03/14/2014  11:42:00      108.264       -7.876       38.919       87.117       71.717       48.468     7589.420     5143.283     2349.139        1.419        0.754      108.550       58.717        0.293      339.781       13.349      864.884
03/14/2014  11:43:00       60.110        4.186       36.313       47.868       48.672       42.074     2291.315     2368.981     1770.248        0.569        0.322       60.256       38.824        0.415      340.186       14.035      864.884
03/14/2014  11:44:00        1.265       38.677       82.517       37.778       53.682       36.222     1427.169     2881.742     1312.008        0.696        0.281       38.698       39.129        1.022      340.328       14.274      864.855
03/14/2014  11:45:00       43.779      -50.323       29.780       48.175       80.990       49.216     2320.789     6559.454     2422.180        0.832        0.565       66.700       42.722        0.410      340.133       13.944      864.842
03/14/2014  11:46:00       60.500      -40.186       29.431       63.698       89.341       60.902     4057.435     7981.825     3709.054        1.094        0.787       72.630       61.499        0.717      340.124       13.928      864.833
03/14/2014  11:47:00       59.854      -92.247        5.357       53.419       87.698       45.544     2853.631     7690.907     2074.229        1.237        0.631      109.963       52.479        0.228      340.183       14.027      864.846
03/14/2014  11:48:00       87.036      -64.709       20.328       49.382      110.176       61.226     2438.581    12138.753     3748.581        1.525        0.916      108.455       68.788        0.402      340.289       14.206      864.847
03/14/2014  11:49:00       54.128       24.219       48.344       67.117       56.207       39.327     4504.731     3159.215     1546.641        0.753        0.461       59.300       36.765        0.384      340.432       14.450      864.857
03/14/2014  11:50:00       36.227       20.030       66.702       57.290       35.474       27.633     3282.156     1258.380      763.580        0.573        0.265       41.396       20.078        0.235      340.705       14.909      864.866
03/14/2014  11:51:00        6.362      -16.387       51.698       30.143       62.792       38.091      908.612     3942.779     1450.950        0.464        0.315       17.579       28.918        2.706      340.940       15.308      864.869
03/14/2014  11:52:00       58.422      -51.543       26.990       40.648       50.900       36.203     1652.249     2590.832     1310.621        0.617        0.278       77.909       28.475        0.134      340.554       14.656      864.874
03/14/2014  11:53:00        5.348       -1.259       33.603       26.188       26.670       18.688      685.808      711.301      349.242        0.145        0.087        5.494       16.513        9.032      341.325       15.960      864.864
03/14/2014  11:54:00       39.570      -91.005        2.083       69.078       65.327       36.929     4771.785     4267.643     1363.764        1.013        0.520       99.235       44.125        0.198      340.744       14.975      864.860
03/14/2014  11:55:00       84.138     -102.907      -24.584       62.347       71.394       48.908     3887.149     5097.132     2392.031        1.482        0.569      132.925       39.961        0.090      340.620       14.767      864.838
03/14/2014  11:56:00       68.983     -152.012      -31.959       72.789       58.781       39.418     5298.184     3455.225     1553.770        1.960        0.515      166.932       34.679        0.043      340.333       14.280      864.826
03/14/2014  11:57:00       54.398     -113.753       17.636       56.978      112.775       66.207     3246.539    12718.168     4383.336        1.827        1.017      126.091       74.046        0.345      340.832       15.124      864.796
03/14/2014  11:58:00       -6.247        8.491       70.040       26.955       84.660       52.264      726.547     7167.399     2731.488        0.782        0.531       10.542       60.614       33.060      341.048       15.490      864.796
03/14/2014  11:59:00       91.944       75.625       41.573       58.052       40.986       53.348     3369.977     1679.875     2845.973        1.190        0.395      119.050       41.864        0.124      340.717       14.929      864.801
03/14/2014  12:00:00       57.464       68.230       77.529       49.951       45.668       33.804     2495.080     2085.604     1142.704        0.984        0.286       89.205       23.749        0.071      340.699       14.900      864.797
03/14/2014  12:01:00      102.071      124.624       93.271       55.664       60.294       45.718     3098.518     3635.332     2090.126        2.173        0.441      161.089       35.371        0.048      340.529       14.610      864.798
03/14/2014  12:02:00      148.726      116.832       58.900       55.532       34.553       46.250     3083.841     1193.921     2139.075        2.283        0.321      189.127       25.657        0.018      340.510       14.579      864.793
03/14/2014  12:03:00      139.042       68.628       20.423       53.869       32.060       30.912     2901.834     1027.868      955.556        1.467        0.244      155.056       22.327        0.021      340.553       14.653      864.797
03/14/2014  12:04:00       81.594       65.409       25.849       57.778       49.863       40.208     3338.277     2486.303     1616.682        0.952        0.372      104.575       35.594        0.116      340.751       14.988      864.780
03/14/2014  12:05:00      136.176       68.963       21.117       76.017       49.005       37.599     5778.623     2401.479     1413.649        1.667        0.480      152.643       26.754        0.031      340.982       15.378      864.758
03/14/2014  12:06:00      102.110       73.202       12.551       63.423       40.289       43.739     4022.518     1623.173     1913.077        1.175        0.378      125.638       29.065        0.054      341.103       15.585      864.750
03/14/2014  12:07:00       92.432       66.207       18.425       58.138       48.333       38.392     3380.048     2336.093     1473.976        1.023        0.360      113.697       30.341        0.071      341.374       16.042      864.732
03/14/2014  12:08:00        6.302       25.772       53.269       21.722       34.118       20.781      471.825     1164.065      431.845        0.280        0.103       26.531       15.668        0.349      342.029       17.152      864.736
03/14/2014  12:09:00      -47.941       18.648       -3.853       56.554       36.606       34.937     3198.405     1339.985     1220.595        0.421        0.288       51.440       23.808        0.214      341.333       15.975      864.751
03/14/2014  12:10:00      -98.294       92.276      -20.395       78.223       55.189       41.868     6118.870     3045.773     1752.905        1.475        0.546      134.821       42.468        0.099      340.956       15.334      864.753
03/14/2014  12:11:00      -50.708       73.497      -30.606       30.128       48.503       28.617      907.675     2352.589      818.929        0.649        0.204       89.292       11.143        0.016      340.788       15.050      864.773
03/14/2014  12:12:00      -29.335       43.159      -21.858       42.426       19.934       21.440     1799.986      397.372      459.690        0.293        0.133       52.184       17.056        0.107      340.601       14.733      864.785
03/14/2014  12:13:00       21.434        9.415        4.053       36.286       32.060       28.245     1316.668     1027.870      797.771        0.185        0.157       23.411       16.420        0.492      341.076       15.538      864.784
03/14/2014  12:14:00       57.015       19.446       25.715       28.220       27.941       35.835      796.373      780.695     1284.144        0.358        0.143       60.240       19.739        0.107      340.924       15.280      864.777
03/14/2014  12:15:00       68.983       28.690       32.091       45.862       41.756       37.090     2103.327     1743.529     1375.701        0.592        0.261       74.712       37.913        0.258      340.927       15.285      864.768
03/14/2014  12:16:00        2.543       60.615       -4.267       49.599       18.223       24.107     2460.018      332.063      581.132        0.354        0.169       60.669       18.715        0.095      341.009       15.425      864.756
03/14/2014  12:17:00      -30.272       73.133      -20.071       69.833       47.723       31.122     4876.602     2277.530      968.556        0.739        0.406       79.151       36.001        0.207      341.065       15.519      864.747
03/14/2014  12:18:00       19.101      236.714      -28.405       58.993       87.350       37.576     3480.149     7630.058     1411.919        3.486        0.626      237.484       31.347        0.017      341.032       15.460      864.757
03/14/2014  12:19:00       81.863      158.920      -16.435       60.516       89.386       57.181     3662.160     7989.770     3269.628        2.357        0.746      178.766       60.363        0.114      341.031       15.459      864.760
03/14/2014  12:20:00       72.357      119.425      -18.519       35.989       59.020       40.725     1295.228     3483.340     1658.490        1.314        0.322      139.635       37.055        0.070      341.030       15.459      864.756
03/14/2014  12:21:00       50.862       53.292        6.609       61.796       42.555       33.988     3818.721     1810.963     1155.201        0.613        0.339       73.668       24.249        0.108      341.283       15.888      864.775
03/14/2014  12:22:00      -22.305      176.712      -27.517       66.396       97.518       42.547     4408.395     9509.673     1810.278        2.410        0.786      178.114       45.601        0.066      341.258       15.845      864.817
03/14/2014  12:23:00     -110.856       78.347      -23.767       85.947      147.088       44.047     7386.914    21634.822     1940.104        2.497        1.548      135.747       38.896        0.082      341.391       16.069      864.807
03/14/2014  12:24:00      -84.680      157.973       -4.997      101.541      138.076       72.906    10310.631    19064.859     5315.340        3.341        1.735      179.238       56.673        0.100      341.204       15.752      864.832
03/14/2014  12:25:00     -124.824      189.489       -8.144       94.820      138.260       56.833     8990.761    19115.949     3230.005        4.144        1.567      226.908       65.105        0.082      341.415       16.110      864.818
03/14/2014  12:26:00     -155.461      165.059      -41.425       97.996       83.126       56.005     9603.277     6909.931     3136.556        3.639        0.982      226.743       55.419        0.060      341.215       15.771      864.817
03/14/2014  12:27:00     -109.295      264.325      -40.808       98.637      125.145       54.342     9729.167    15661.178     2953.102        5.591        1.417      286.030       52.527        0.034      341.268       15.860      864.828
03/14/2014  12:28:00     -242.662      217.546      -36.749      122.786      108.835       76.149    15076.294    11845.071     5798.639        7.013        1.636      325.901       71.753        0.048      341.214       15.769      864.794
03/14/2014  12:29:00     -147.577      219.850      -31.998      141.793      107.795       71.058    20105.377    11619.836     5049.254        5.395        1.839      264.789       62.840        0.056      341.354       16.005      864.820
03/14/2014  12:30:00      -86.254      264.505      -15.185       81.408      102.719       67.198     6627.213    10551.170     4515.564        4.966        1.085      278.213       56.372        0.041      341.426       16.127      864.812
03/14/2014  12:31:00     -107.637      107.737      -16.017       86.342      128.516       49.957     7454.902    16516.293     2495.736        2.495        1.323      152.293       44.378        0.085      341.313       15.938      864.811
03/14/2014  12:32:00     -115.706      258.063      -29.569      119.357      108.182       57.170    14246.070    11703.320     3268.416        5.503        1.461      282.816       53.499        0.036      341.215       15.771      864.808
03/14/2014  12:33:00     -113.976      281.803      -16.360      140.997      285.273       87.638    19880.109    81380.404     7680.483       10.078        5.447      303.980      117.075        0.148      341.285       15.891      864.783
03/14/2014  12:34:00     -280.916      160.423      -43.900      165.492      138.351       59.594    27387.654    19141.034     3551.496        7.832        2.504      323.496       87.566        0.073      341.023       15.445      864.769
03/14/2014  12:35:00     -106.969      161.829      -14.621      101.312      132.479       68.630    10264.062    17550.704     4710.061        3.518        1.626      193.987       56.136        0.084      341.458       16.181      864.747
03/14/2014  12:36:00     -160.573      377.963      -49.859      104.570      157.960       73.665    10934.834    24951.275     5426.543       10.621        2.066      410.658       70.200        0.029      341.405       16.092      864.747
03/14/2014  12:37:00     -232.776      431.476      -60.566       82.641      110.423       76.107     6829.581    12193.271     5792.219       13.441        1.241      490.261       65.769        0.018      341.148       15.658      864.780
03/14/2014  12:38:00      -74.588      357.110      -44.665      101.833      118.733       60.540    10370.035    14097.481     3665.057        8.160        1.407      364.817       50.781        0.019      341.230       15.796      864.806
03/14/2014  12:39:00      -62.351      488.269      -45.631       96.022      176.864       66.563     9220.236    31280.962     4430.644       14.465        2.247      492.234       83.494        0.029      341.145       15.650      864.802
03/14/2014  12:40:00     -240.267      366.471      -58.071      133.389      162.262       70.910    17792.752    26328.898     5028.242       12.227        2.457      438.211       79.380        0.033      341.144       15.650      864.802
03/14/2014  12:41:00     -159.105      233.843      -25.274      145.099      160.562       76.300    21053.830    25780.182     5821.669        6.664        2.633      282.838       82.494        0.085      341.344       15.987      864.815
03/14/2014  12:42:00     -232.682      231.171      -37.660      146.518      124.691       67.084    21467.623    15547.818     4500.215        7.525        2.076      327.996       68.042        0.043      341.149       15.657      864.837
03/14/2014  12:43:00     -166.968      223.371      -40.155      124.895      118.968       57.320    15598.787    14153.331     3285.577        5.620        1.652      278.878       69.676        0.062      341.296       15.908      864.824
03/14/2014  12:44:00     -203.548      211.551      -33.813      115.356      108.565       58.820    13306.965    11786.377     3459.839        5.794        1.428      293.574       56.114        0.037      341.477       16.214      864.831
03/14/2014  12:45:00     -138.983      256.821      -23.725      111.082      142.399       71.434    12339.124    20277.452     5102.761        6.177        1.886      292.016       72.875        0.062      341.422       16.120      864.848
03/14/2014  12:46:00     -251.410      166.074      -26.634      155.494       78.875       72.795    24178.459     6221.241     5299.134        6.359        1.785      301.310       68.162        0.051      341.524       16.291      864.852
03/14/2014  12:47:00     -160.408       50.376        1.083      113.854      140.823       62.841    12962.804    19831.159     3948.990        3.250        1.837      168.133       60.684        0.130      341.710       16.609      864.856
03/14/2014  12:48:00     -189.817       31.178      -36.337      133.443      130.681       66.974    17807.148    17077.528     4485.507        3.884        1.969      192.360       60.582        0.099      341.527       16.299      864.865
03/14/2014  12:49:00     -172.023      194.258      -39.496      143.361      172.419       77.195    20552.238    29728.220     5959.132        6.255        2.812      259.477      105.758        0.166      341.471       16.205      864.867
03/14/2014  12:50:00     -106.250      203.461      -21.915       95.690      127.774       68.707     9156.637    16326.283     4720.659        4.168        1.510      229.533       60.040        0.068      341.579       16.387      864.840
03/14/2014  12:51:00     -125.895      200.271      -22.483      113.012      116.661       66.337    12771.688    13609.690     4400.581        4.362        1.539      236.555       65.466        0.077      341.639       16.488      864.844
03/14/2014  12:52:00     -126.694      188.203      -26.275       79.149      112.880       56.140     6264.496    12741.916     3151.652        3.716        1.108      226.874       51.863        0.052      341.253       15.836      864.826
03/14/2014  12:53:00      -52.228      247.677      -10.406       91.320      131.882       60.948     8339.269    17392.962     3714.622        4.681        1.472      253.124       63.573        0.063      341.668       16.539      864.782
03/14/2014  12:54:00      -69.409       86.636       -5.858      100.723      109.001       60.751    10145.171    11881.303     3690.675        1.903        1.286      111.011       41.952        0.143      341.894       16.922      864.773
03/14/2014  12:55:00      -48.705       64.582       18.172       50.450       62.704       52.873     2545.250     3931.853     2795.607        0.807        0.464       80.889       26.695        0.109      342.006       17.115      864.757
03/14/2014  12:56:00      -38.633       58.042        2.724       65.546       63.444       35.179     4296.254     4025.091     1237.531        0.721        0.478       69.724       20.200        0.084      341.964       17.041      864.756
03/14/2014  12:57:00      -40.003       44.731       19.415       49.441       56.237       40.579     2444.368     3162.568     1646.669        0.561        0.363       60.009       30.957        0.266      342.060       17.206      864.720
03/14/2014  12:58:00      -58.083      144.437       16.932      105.579      125.969       65.845    11146.977    15868.067     4335.537        2.793        1.568      155.678       69.106        0.197      341.871       16.883      864.738
03/14/2014  12:59:00     -130.571      345.539      -32.910       94.079      132.204       66.394     8850.765    17477.772     4408.220        8.413        1.537      369.386       70.885        0.037      341.393       16.071      864.752
03/14/2014  13:00:00     -124.322      342.916      -38.220       84.961       95.978       45.465     7218.434     9211.797     2067.092        7.650        0.925      364.757       38.655        0.011      341.127       15.620      864.750
03/14/2014  13:01:00     -111.069      154.433      -13.455       90.522       99.281       50.804     8194.232     9856.786     2581.064        2.850        1.032      190.226       46.118        0.059      341.582       16.392      864.735
03/14/2014  13:02:00     -198.515      239.803      -38.969      100.529      143.894       62.272    10106.111    20705.558     3877.758        6.655        1.734      311.309       67.308        0.047      341.305       15.922      864.741
03/14/2014  13:03:00     -133.652      309.369      -30.912       95.575      127.778       56.915     9134.613    16327.142     3239.359        7.161        1.435      337.004       50.396        0.022      341.399       16.080      864.752
03/14/2014  13:04:00     -199.381       21.710      -25.847       88.722      117.940       42.262     7871.677    13909.734     1786.062        3.223        1.178      200.559       39.400        0.039      341.273       15.868      864.749
03/14/2014  13:05:00      -45.706      244.258      -30.172       91.902      115.340       54.721     8445.961    13303.427     2994.339        4.370        1.237      248.497       59.053        0.056      341.443       16.157      864.772
03/14/2014  13:06:00      -42.160      417.881      -36.580       94.765      146.972       69.743     8980.492    21600.743     4864.018       10.659        1.772      420.002       75.587        0.032      341.261       15.848      864.768
03/14/2014  13:07:00     -109.543      372.607      -45.783       96.808      103.530       60.182     9371.725    10718.459     3621.930        8.832        1.186      388.376       55.957        0.021      341.306       15.925      864.782
03/14/2014  13:08:00      -61.927      359.414      -42.133      106.910      120.103       58.137    11429.843    14424.623     3379.861        8.201        1.462      364.710       50.012        0.019      341.312       15.936      864.766
03/14/2014  13:09:00     -129.816      317.530      -34.889       90.940      148.169       57.870     8270.044    21954.095     3348.990        7.623        1.679      343.042       61.143        0.032      341.296       15.907      864.812
03/14/2014  13:10:00     -116.782      239.697      -15.935       92.679      150.031       54.691     8589.408    22509.303     2991.141        5.271        1.704      266.632       52.372        0.039      341.473       16.207      864.828
03/14/2014  13:11:00     -254.820      288.920      -53.641      137.137      160.216       81.230    18806.554    25669.073     6598.345       10.117        2.554      385.237       84.331        0.048      341.450       16.166      864.849
03/14/2014  13:12:00     -160.371      128.696      -16.444      106.769       75.997       56.745    11399.528     5775.571     3219.977        3.147        1.020      205.625       56.862        0.076      341.714       16.617      864.849
03/14/2014  13:13:00     -167.696      221.409      -34.978      117.362      108.140       64.062    13773.840    11694.158     4103.929        5.396        1.479      277.748       74.764        0.072      341.646       16.501      864.845
03/14/2014  13:14:00     -123.384      172.104      -26.767       81.168      104.380       42.925     6588.176    10895.126     1842.534        3.244        0.966      211.763       37.066        0.031      341.493       16.243      864.844
03/14/2014  13:15:00     -138.541      118.617      -20.704      118.229       74.602       52.221    13978.113     5565.423     2727.016        2.798        1.114      182.383       54.519        0.089      341.497       16.248      864.836
03/14/2014  13:16:00     -134.576      111.386      -11.858      100.735       87.683       57.416    10147.470     7688.325     3296.603        2.589        1.057      174.693       55.662        0.102      341.631       16.476      864.813
03/14/2014  13:17:00      -91.733      323.543      -37.843       68.217       88.362       52.478     4653.535     7807.906     2753.895        6.487        0.761      336.297       46.706        0.019      341.632       16.477      864.827
03/14/2014  13:18:00      -47.233       65.543       -9.459       71.452       99.667       33.044     5105.457     9933.521     1091.926        1.137        0.807       80.790       31.289        0.150      342.103       17.279      864.815
03/14/2014  13:19:00     -123.489       25.326      -15.559      105.916       96.139       50.154    11218.095     9242.767     2515.442        1.955        1.149      126.059       53.665        0.181      342.074       17.228      864.813
03/14/2014  13:20:00     -226.562      204.947      -56.911      145.038      157.960       69.628    21036.112    24951.351     4848.017        7.369        2.542      305.505       90.414        0.088      341.656       16.517      864.844
03/14/2014  13:21:00     -131.149        6.002        5.929       85.646       70.153       43.573     7335.257     4921.398     1898.644        1.571        0.708      131.287       34.806        0.070      341.982       17.072      864.776
03/14/2014  13:22:00     -109.871      145.490       -9.766      101.381      114.033       52.239    10278.024    13003.439     2728.964        2.967        1.301      182.316       46.713        0.066      341.951       17.020      864.801
03/14/2014  13:23:00       -6.733      477.220      -55.275      107.750      107.256       62.914    11609.993    11503.947     3958.129       12.895        1.354      477.267       57.422        0.014      341.327       15.960      864.804
03/14/2014  13:24:00       -4.300      387.659      -38.989      127.856      153.098       82.062    16347.038    23439.073     6734.173        9.916        2.326      387.683       86.739        0.050      341.583       16.393      864.784
03/14/2014  13:25:00     -230.978      492.546      -67.317      119.330      156.981       78.059    14239.722    24642.966     6093.250       17.272        2.249      544.015       72.395        0.018      341.324       15.954      864.834
03/14/2014  13:26:00     -150.604      300.962      -49.921      125.894      118.234       56.455    15849.350    13979.330     3187.180        7.438        1.651      336.541       49.762        0.022      341.395       16.074      864.850
03/14/2014  13:27:00       30.470      275.741       -9.817      107.847      186.331       86.958    11630.998    34719.425     7561.639        6.547        2.696      277.420      107.610        0.150      341.381       16.051      864.807
03/14/2014  13:28:00       -5.732      261.678      -15.834       84.030      160.616       70.424     7061.044    25797.428     4959.569        5.328        1.891      261.741       75.165        0.082      341.423       16.122      864.767
03/14/2014  13:29:00     -114.555      287.845      -58.543      105.143       85.009       47.419    11055.008     7226.479     2248.539        5.996        1.027      309.802       44.554        0.021      341.510       16.268      864.819
03/14/2014  13:30:00     -132.865      285.230      -22.418      112.540      176.786       75.373    12665.255    31253.279     5681.057        7.455        2.480      314.657       83.959        0.071      341.388       16.063      864.836
03/14/2014  13:31:00     -125.728      391.207      -39.698       88.072      135.399       59.797     7756.651    18332.967     3575.702       10.004        1.483      410.915       54.288        0.017      341.260       15.846      864.816
03/14/2014  13:32:00     -193.800      225.515      -46.609      105.713      114.091       61.113    11175.312    13016.783     3734.751        5.925        1.396      297.348       65.778        0.049      341.408       16.096      864.848
03/14/2014  13:33:00     -167.962      305.996      -35.689       96.791      137.307       55.468     9368.487    18853.171     3076.671        7.720        1.565      349.062       49.997        0.021      341.448       16.164      864.866
03/14/2014  13:34:00     -110.566      470.875      -60.981      140.182      223.225       81.174    19651.008    49829.549     6589.138       15.685        3.803      483.682      101.911        0.044      341.266       15.856      864.863
03/14/2014  13:35:00     -101.625      464.932      -56.650      139.708      130.201       58.654    19518.192    16952.231     3440.314       13.480        1.996      475.909       54.815        0.013      341.250       15.829      864.846
03/14/2014  13:36:00     -256.391      335.996      -64.447      136.993      133.747       84.350    18767.124    17888.345     7114.919       11.327        2.189      422.646       85.908        0.041      341.338       15.976      864.847
03/14/2014  13:37:00     -121.001      236.157      -26.524       79.246      134.323       57.169     6279.890    18042.794     3268.270        4.935        1.380      265.351       48.417        0.033      341.561       16.356      864.826
03/14/2014  13:38:00     -208.040      291.986      -50.826      102.805      129.611       70.280    10568.916    16798.951     4939.261        8.171        1.615      358.520       76.873        0.046      341.467       16.198      864.825
03/14/2014  13:39:00      -77.848      263.555      -39.121       84.062       87.376       52.649     7066.354     7634.618     2771.865        4.726        0.874      274.812       39.329        0.020      341.513       16.274      864.799
03/14/2014  13:40:00      -49.980      299.767      -33.438       89.945      149.308       50.894     8090.066    22293.005     2590.198        6.322        1.649      303.905       49.530        0.027      341.753       16.680      864.779
03/14/2014  13:41:00     -136.279      391.162      -39.770      105.483      161.825       64.369    11126.632    26187.457     4143.350       10.730        2.073      414.222       74.514        0.032      341.541       16.322      864.750
03/14/2014  13:42:00      -57.226      343.485      -42.804       83.130      186.750       71.946     6910.631    34875.402     5176.175        8.502        2.348      348.220       95.126        0.075      341.570       16.372      864.726
03/14/2014  13:43:00      -13.533      379.294      -43.451       87.711      151.245       64.128     7693.246    22875.124     4112.412        9.030        1.734      379.535       78.038        0.042      341.508       16.267      864.737
03/14/2014  13:44:00      -64.965      430.385      -54.111      108.877      128.192       58.124    11854.138    16433.280     3378.399       11.202        1.583      435.261       51.477        0.014      341.681       16.561      864.723
03/14/2014  13:45:00     -170.645      320.166      -53.530      152.669      130.076       69.727    23307.772    16919.787     4861.851        8.978        2.254      362.803       58.942        0.026      341.750       16.675      864.772
03/14/2014  13:46:00     -140.244      366.894      -51.828      104.902      131.537       68.084    11004.410    17301.992     4635.475        9.495        1.647      392.785       57.408        0.021      341.359       16.013      864.761
03/14/2014  13:47:00     -170.025      370.783      -45.200      164.979      163.558       81.657    27217.967    26751.382     6667.861       11.452        3.032      407.907       84.007        0.042      341.595       16.414      864.766
03/14/2014  13:48:00     -278.352      321.108      -67.968      156.846      127.351       73.300    24600.512    16218.305     5372.835       11.569        2.310      424.959       61.645        0.021      341.422       16.121      864.804
03/14/2014  13:49:00     -126.816      328.994      -25.134      102.092      116.809       66.646    10422.752    13644.356     4441.728        7.672        1.425      352.589       68.008        0.037      341.570       16.371      864.804
03/14/2014  13:50:00     -145.407      297.541      -42.792      123.970      140.524       76.444    15368.633    19747.101     5843.669        7.622        2.048      331.171       75.586        0.052      341.558       16.350      864.796
03/14/2014  13:51:00     -102.587      334.441      -20.274       95.088      145.918       69.914     9041.685    21292.203     4887.963        7.900        1.761      349.821       67.995        0.038      341.760       16.695      864.759
03/14/2014  13:52:00      -51.470      243.881      -19.492       90.455      112.950       56.449     8182.170    12757.662     3186.468        4.331        1.206      249.253       47.231        0.036      341.802       16.763      864.773
03/14/2014  13:53:00      -82.862      354.998      -31.734       89.643      130.017       62.249     8035.939    16904.377     3874.944        8.135        1.441      364.540       57.629        0.025      341.655       16.516      864.762
03/14/2014  13:54:00     -139.553      291.820      -27.299      119.031      168.159       64.889    14168.375    28277.397     4210.596        7.601        2.333      323.472       80.892        0.063      341.745       16.668      864.757
03/14/2014  13:55:00     -205.378      187.099      -41.039      143.638      115.154       54.566    20631.965    13260.417     2977.421        5.786        1.843      277.824       62.591        0.051      341.865       16.871      864.792
03/14/2014  13:56:00     -204.687      263.025      -46.260      151.897      152.289       70.611    23072.807    23191.835     4985.918        8.222        2.563      333.285       77.483        0.054      341.783       16.732      864.796
03/14/2014  13:57:00     -184.544      334.196      -33.592      125.050      163.760       85.760    15637.380    26817.271     7354.789        9.833        2.490      381.764       85.657        0.050      341.857       16.858      864.798
03/14/2014  13:58:00     -245.841      104.070      -22.273      151.674      158.892       91.975    23004.873    25246.695     8459.357        6.423        2.836      266.961       88.086        0.109      341.740       16.658      864.792
03/14/2014  13:59:00     -114.571       51.916      -20.648      101.125       79.343       64.304    10226.186     6295.293     4134.947        1.845        1.033      125.785       56.402        0.201      341.823       16.801      864.728
03/14/2014  14:00:00     -154.942       99.002      -18.185      125.833       93.796       69.622    15833.892     8797.628     4847.263        3.180        1.474      183.870       62.775        0.117      341.880       16.899      864.754
03/14/2014  14:01:00     -196.356      147.645        2.481      167.835      168.288       93.871    28168.668    28320.717     8811.809        6.282        3.265      245.672       94.985        0.149      341.947       17.011      864.750
03/14/2014  14:02:00     -314.500      111.996      -41.032      161.085      156.086       70.844    25948.403    24362.957     5018.809        8.422        2.767      333.846       75.449        0.051      341.907       16.942      864.767
03/14/2014  14:03:00     -193.485      323.011      -48.302      111.578      156.191       63.946    12449.626    24395.632     4089.113        9.251        2.047      376.527       69.468        0.034      341.699       16.591      864.798
03/14/2014  14:04:00     -142.467      391.127      -54.407      129.452      185.840       66.970    16757.725    34536.627     4485.037       11.600        2.789      416.266       83.786        0.041      341.739       16.657      864.786
03/14/2014  14:05:00     -116.985      248.285      -29.982       90.625      126.301       59.727     8212.935    15951.922     3567.260        5.198        1.387      274.465       60.653        0.049      341.774       16.718      864.797
03/14/2014  14:06:00     -218.089      271.482      -49.711      107.677       95.647       70.285    11594.267     9148.284     4940.015        7.470        1.284      348.232       64.253        0.034      341.619       16.454      864.764
03/14/2014  14:07:00     -243.609      186.994      -46.428      106.129      107.632       61.297    11263.295    11584.748     3757.308        6.153        1.330      307.103       62.752        0.042      341.541       16.322      864.767
03/14/2014  14:08:00     -130.541      323.949      -48.837      101.460      123.004       57.300    10294.120    15130.006     3283.240        7.653        1.435      349.262       50.783        0.021      341.575       16.379      864.714
03/14/2014  14:09:00      -31.233      248.612        0.337       80.167       98.934       67.717     6426.735     9788.013     4585.597        4.179        1.040      250.566       64.583        0.066      341.938       16.995      864.694
03/14/2014  14:10:00      -79.992      347.025      -36.857       96.306      171.569       69.789     9274.779    29436.003     4870.563        8.587        2.179      356.125       80.144        0.051      342.005       17.110      864.698
03/14/2014  14:11:00     -213.950      362.636      -38.715      111.152      154.831       77.635    12354.792    23972.665     6027.143       11.056        2.118      421.046       67.405        0.026      341.936       16.992      864.703
03/14/2014  14:12:00     -136.120      409.984      -42.689      123.086      160.921       78.990    15150.188    25895.446     6239.401       11.785        2.364      431.990       82.999        0.037      341.644       16.497      864.725
03/14/2014  14:13:00      -70.988      347.977      -50.255       96.297      120.960       61.514     9273.144    14631.235     3783.993        7.817        1.384      355.144       54.875        0.024      341.700       16.591      864.701
03/14/2014  14:14:00     -160.115      277.284      -27.790      106.922      175.586       82.430    11432.370    30830.279     6794.707        7.617        2.453      320.193       84.132        0.069      341.856       16.857      864.695
03/14/2014  14:15:00     -170.688      393.392      -46.674      122.242      151.643       73.807    14943.096    22995.450     5447.449       11.472        2.169      428.826       71.657        0.028      341.729       16.640      864.721
03/14/2014  14:16:00     -199.641      284.171      -54.000      124.256      146.247       66.671    15439.549    21388.284     4445.010        8.239        2.064      347.289       83.929        0.058      341.830       16.812      864.734
03/14/2014  14:17:00     -133.468      369.869      -49.744      108.969      126.923       63.160    11874.227    16109.495     3989.215        9.453        1.599      393.214       55.687        0.020      341.492       16.239      864.776
03/14/2014  14:18:00     -125.616      295.586      -41.067      162.713      129.281       66.234    26475.391    16713.534     4386.952        7.620        2.379      321.171       73.381        0.052      341.750       16.676      864.721
03/14/2014  14:19:00     -140.398      399.464      -46.357      107.667      156.454       68.614    11592.276    24477.775     4707.911       11.110        2.039      423.418       67.701        0.026      341.656       16.517      864.704
03/14/2014  14:20:00     -114.219      292.326      -35.877       89.962      171.600       64.664     8093.166    29446.597     4181.414        7.075        2.086      313.848       79.832        0.065      341.990       17.082      864.686
03/14/2014  14:21:00     -170.579      206.337      -40.640       77.920      146.357       60.285     6071.488    21420.352     3634.277        5.222        1.556      267.716       62.141        0.054      342.135       17.329      864.672
03/14/2014  14:22:00     -146.853      264.861      -28.626      109.025      160.461       67.411    11886.528    25747.611     4544.307        6.735        2.109      302.848       73.013        0.058      342.044       17.175      864.718
03/14/2014  14:23:00     -177.465      312.697      -48.710      103.387      113.709       71.208    10688.872    12929.673     5070.532        8.016        1.434      359.546       62.543        0.030      341.857       16.857      864.691
03/14/2014  14:24:00     -152.253      217.781      -46.452      114.029      134.067       59.759    13002.579    17973.840     3571.092        5.365        1.727      265.724       48.708        0.034      341.752       16.680      864.657
03/14/2014  14:25:00     -132.320      292.756      -32.427       88.618      123.486       61.866     7853.110    15248.816     3827.346        6.559        1.346      321.270       61.253        0.036      341.676       16.551      864.661
03/14/2014  14:26:00       52.551      279.638      -20.433      159.373      166.831       84.904    25399.628    27832.696     7208.607        7.090        3.022      284.533       80.684        0.080      341.916       16.958      864.634
03/14/2014  14:27:00       50.748      312.076      -33.287      107.749      169.087       83.555    11609.822    28590.368     6981.467        7.412        2.359      316.175       73.772        0.054      341.890       16.913      864.644
03/14/2014  14:28:00      -11.656      236.061      -18.454      120.923      149.093       78.409    14622.314    22228.588     6147.905        4.959        2.150      236.349       80.095        0.115      341.853       16.852      864.621
03/14/2014  14:29:00      -46.616      430.740      -56.531       90.602      119.539       47.309     8208.692    14289.666     2238.177       10.782        1.237      433.255       48.352        0.012      341.817       16.790      864.592
03/14/2014  14:30:00      -47.266      309.430      -44.578       84.847      212.158       70.977     7198.930    45010.947     5037.694        7.860        2.862      313.019       97.657        0.097      342.015       17.128      864.559
03/14/2014  14:31:00      -11.179      466.978      -57.063      135.985      208.572       91.177    18491.918    43502.138     8313.236       14.586        3.515      467.111      105.367        0.051      341.809       16.776      864.515
03/14/2014  14:32:00     -122.305      558.949      -80.742      241.497      223.055      101.347    58320.802    49753.380    10271.242       22.610        5.917      572.173      102.213        0.032      341.776       16.720      864.494
03/14/2014  14:33:00     -211.589      300.526      -45.163      116.125      196.642       79.383    13485.005    38668.048     6301.681        9.778        2.923      367.540       91.705        0.062      341.893       16.919      864.562
03/14/2014  14:34:00     -215.782      151.306      -24.592      199.385      113.919       95.379    39754.395    12977.533     9097.176        6.593        3.091      263.544      110.147        0.175      342.092       17.256      864.541
03/14/2014  14:35:00     -299.668       47.514      -46.664      180.316      229.006       86.812    32513.779    52443.527     7536.259        9.335        4.625      303.412       88.628        0.085      341.701       16.593      864.533
03/14/2014  14:36:00     -169.699       65.367      -18.938      101.864      174.598       62.474    10376.211    30484.332     3903.022        3.909        2.238      181.853       55.412        0.093      341.956       17.025      864.521
03/14/2014  14:37:00     -115.190      308.914      -35.856      119.363       97.952       54.549    14247.456     9594.635     2975.577        6.839        1.341      329.692       60.025        0.033      341.788       16.740      864.534
03/14/2014  14:38:00     -332.357      262.381      -69.072      123.950      167.587       78.108    15363.658    28085.427     6100.799       11.680        2.477      423.444       94.117        0.049      341.989       17.082      864.557
03/14/2014  14:39:00     -314.667      217.430      -56.622      152.861      201.780       80.164    23366.437    40715.078     6426.217       10.999        3.525      382.480       96.642        0.064      341.745       16.669      864.598
03/14/2014  14:40:00     -168.654       15.144       -5.115      122.582      125.524       61.476    15026.302    15756.380     3779.281        3.162        1.728      169.332       64.565        0.145      341.815       16.786      864.527
03/14/2014  14:41:00     -128.465      190.286       -7.355      133.403      135.097       70.657    17796.385    18251.145     4992.353        4.689        2.052      229.591       49.905        0.047      342.120       17.304      864.557
03/14/2014  14:42:00     -148.415      368.534      -46.239      114.440      187.650       68.872    13096.477    35212.590     4743.402       10.651        2.653      397.296       70.399        0.031      341.681       16.558      864.569
03/14/2014  14:43:00      -80.794      345.401      -46.924      150.010      138.188       75.986    22502.960    19095.970     5773.849        8.769        2.369      354.725       84.654        0.057      341.917       16.961      864.516
03/14/2014  14:44:00      -61.253      390.622      -46.305      110.238      195.313       75.606    12152.388    38147.316     5716.230       10.724        2.801      395.395       82.737        0.044      341.832       16.815      864.561
03/14/2014  14:45:00     -197.528      410.768      -50.197       95.000      135.319       70.700     9024.946    18311.181     4998.530       12.129        1.617      455.793       62.890        0.019      341.614       16.446      864.570
03/14/2014  14:46:00     -118.072      378.457      -52.318       90.636      151.667       60.516     8214.870    23002.861     3662.149        9.739        1.744      396.447       68.872        0.030      341.629       16.472      864.568
03/14/2014  14:47:00      -15.498      323.909      -47.370       69.083       91.773       41.587     4772.435     8422.219     1729.480        6.116        0.746      324.279       33.684        0.011      341.646       16.499      864.520
03/14/2014  14:48:00       15.536      257.241      -21.296      128.733      143.118       72.784    16572.213    20482.642     5297.484        5.460        2.118      257.710       72.478        0.079      342.051       17.188      864.503
03/14/2014  14:49:00      -99.802      535.379      -67.706       80.570       79.973       49.228     6491.474     6395.718     2423.432       15.824        0.766      544.602       39.587        0.005      341.528       16.301      864.513
03/14/2014  14:50:00     -130.622      174.061       -1.705       95.395      186.113       64.128     9100.223    34638.077     4112.444        4.760        2.393      217.622       75.314        0.120      342.096       17.264      864.483
03/14/2014  14:51:00     -112.850      163.828      -20.033       91.666      104.859       58.872     8402.643    10995.452     3465.915        3.142        1.143      198.934       53.001        0.071      342.273       17.565      864.473
03/14/2014  14:52:00      -48.039      275.404      -24.102       83.575      150.838       65.549     6984.762    22752.232     4296.721        5.638        1.702      279.563       73.931        0.070      342.249       17.525      864.448
03/14/2014  14:53:00      -52.508      182.843      -17.058       71.676      113.088       47.349     5137.451    12788.788     2241.954        2.832        1.008      190.233       48.752        0.066      342.392       17.767      864.445
03/14/2014  14:54:00     -198.803      462.713      -64.174      136.182      124.544       77.099    18545.477    15511.162     5944.192       14.886        2.000      503.613       57.626        0.013      341.963       17.039      864.480
03/14/2014  14:55:00      -87.558      419.863      -34.451      101.276      229.525       77.342    10256.781    52681.586     5981.751       12.702        3.446      428.895      103.801        0.059      342.107       17.283      864.475
03/14/2014  14:56:00      -35.847      395.898      -36.809      185.102      170.050       90.243    34262.702    28916.974     8143.775       11.533        3.566      397.518       93.486        0.055      342.072       17.222      864.476
03/14/2014  14:57:00     -194.445      475.607      -40.282      144.064      195.826       92.612    20754.569    38347.662     8576.936       16.664        3.384      513.820      108.910        0.045      341.967       17.044      864.528
03/14/2014  14:58:00     -219.628      432.256      -67.810      134.728      162.900       76.161    18151.738    26536.485     5800.494       14.507        2.524      484.852       86.869        0.032      341.701       16.593      864.568
03/14/2014  14:59:00     -139.768      267.177      -31.803      141.748      199.383       77.051    20092.609    39753.478     5936.870        7.884        3.289      301.528       76.789        0.065      341.733       16.648      864.528
03/14/2014  15:00:00      -35.593      375.003      -53.702      104.857      135.479       59.785    10994.923    18354.430     3574.200        8.884        1.646      376.688       60.023        0.025      341.756       16.686      864.531
03/14/2014  15:01:00      -19.468      359.688      -42.409      103.990      137.057       74.663    10813.859    18784.552     5574.596        8.336        1.759      360.215       74.894        0.043      341.983       17.070      864.540
03/14/2014  15:02:00      -29.934      431.944      -37.301      117.580      130.763       78.451    13824.957    17099.035     6154.600       11.296        1.854      432.980       85.989        0.039      341.928       16.978      864.520
03/14/2014  15:03:00      -13.955      437.730      -40.390       88.673      140.787       74.882     7862.863    19821.107     5607.265       11.336        1.665      437.952       80.927        0.034      341.900       16.930      864.507
03/14/2014  15:04:00       44.630      251.394       -0.564      108.620      249.314      106.240    11798.384    62157.590    11286.886        7.520        4.262      255.325      134.073        0.276      342.036       17.162      864.501
03/14/2014  15:05:00     -159.115      275.655      -39.005      108.933      126.053       73.369    11866.359    15889.258     5383.073        6.797        1.657      318.281       72.751        0.052      342.166       17.382      864.525
03/14/2014  15:06:00     -120.474      220.147      -42.075      140.459      137.887       63.276    19728.778    19012.738     4003.835        5.374        2.137      250.955       67.170        0.072      342.127       17.317      864.501
03/14/2014  15:07:00     -120.136      242.189      -19.453      120.185      181.667       73.775    14444.479    33003.015     5442.718        6.317        2.645      270.348       83.397        0.095      342.151       17.356      864.517
03/14/2014  15:08:00     -288.616      272.830      -59.292      130.613      167.564       85.432    17059.853    28077.686     7298.549       10.683        2.622      397.159       84.667        0.045      341.897       16.925      864.534
03/14/2014  15:09:00     -225.941      229.653      -46.019       96.202      114.989       68.349     9254.912    13222.545     4671.552        6.652        1.357      322.164       60.313        0.035      341.938       16.997      864.538
03/14/2014  15:10:00     -234.774      267.032      -57.068      150.305      154.937       79.556    22591.556    24005.389     6329.181        9.129        2.646      355.563      101.866        0.082      341.790       16.743      864.528
03/14/2014  15:11:00     -156.808      239.459      -32.346      146.392      143.143       67.498    21430.649    20489.982     4555.935        6.472        2.324      286.232       53.844        0.035      341.962       17.036      864.509
03/14/2014  15:12:00      -22.431      331.246      -36.342       67.057       76.434       38.245     4496.692     5842.214     1462.646        6.167        0.590      332.004       33.463        0.010      342.070       17.219      864.502
03/14/2014  15:13:00     -224.361      299.988      -58.203      129.329      159.591       66.571    16725.867    25469.139     4431.720        9.516        2.331      374.608       73.983        0.039      342.145       17.347      864.522
03/14/2014  15:14:00      -12.200      509.227      -57.256      157.657      212.776       88.580    24855.609    45273.609     7846.488       17.034        3.899      509.373      111.755        0.048      341.947       17.010      864.525
03/14/2014  15:15:00      -24.259      397.558      -44.556      101.741      192.871       80.396    10351.134    37199.345     6463.579       10.731        2.701      398.297       91.500        0.053      341.829       16.810      864.537
03/14/2014  15:16:00       26.349      354.149      -44.317       79.546      154.566       74.820     6327.622    23890.757     5598.078        8.194        1.791      355.128       84.388        0.056      341.770       16.710      864.528
03/14/2014  15:17:00     -122.201      216.350      -21.877       91.892      116.999       58.656     8444.085    13688.823     3440.502        4.389        1.279      248.476       54.222        0.048      342.032       17.156      864.513
03/14/2014  15:18:00     -100.331      268.932      -37.667       84.199       57.579       51.458     7089.428     3315.396     2647.922        4.843        0.653      287.038       39.807        0.019      342.092       17.257      864.526
03/14/2014  15:19:00      -85.362      207.907      -26.720      118.819      114.450       66.986    14117.919    13098.858     4487.156        4.146        1.585      224.748       72.351        0.104      342.423       17.820      864.525
03/14/2014  15:20:00      -55.818      226.895      -10.080       71.647      188.810       51.975     5133.320    35649.350     2701.452        4.908        2.174      233.660       76.237        0.106      342.232       17.497      864.549
03/14/2014  15:21:00       14.355      458.051      -67.802       90.232      129.783       49.926     8141.835    16843.746     2492.633       12.104        1.374      458.276       54.950        0.014      341.679       16.556      864.573
03/14/2014  15:22:00       25.912      415.090      -58.059      100.134       99.185       56.348    10026.791     9837.729     3175.091        9.969        1.152      415.898       53.337        0.016      341.803       16.766      864.556
03/14/2014  15:23:00       27.899      396.456      -32.721      144.445      192.390       99.230    20864.285    37013.979     9846.502       11.336        3.386      397.437      121.904        0.094      342.050       17.186      864.544
03/14/2014  15:24:00       40.430      329.959      -44.530      100.035      131.581       61.867    10006.977    17313.635     3827.490        7.181        1.557      332.427       71.897        0.047      341.969       17.046      864.554
03/14/2014  15:25:00       44.654      318.268      -46.930       85.205      117.667       60.269     7259.889    13845.414     3632.306        6.511        1.237      321.385       68.419        0.045      342.064       17.209      864.543
03/14/2014  15:26:00      156.078      135.662       24.317      114.649       94.933       84.893    13144.471     9012.300     7206.840        3.635        1.468      206.796       52.999        0.066      342.091       17.256      864.521
03/14/2014  15:27:00      175.291      180.839       55.131      129.186      106.406      101.148    16689.047    11322.200    10230.955        5.235        1.912      251.853       35.799        0.020      342.230       17.493      864.413
03/14/2014  15:28:00     -192.038      404.526      -61.749      111.783      180.705       66.731    12495.420    32654.391     4453.012       12.696        2.480      447.795       62.085        0.019      341.975       17.059      864.507
03/14/2014  15:29:00      -72.197      246.644      -28.153       57.792      106.366       48.888     3339.936    11313.654     2390.071        4.194        0.852      256.993       50.822        0.039      342.041       17.169      864.537
03/14/2014  15:30:00      -67.887      302.663      -49.759       73.056      127.622       38.266     5337.195    16287.333     1464.281        6.088        1.154      310.183       40.429        0.017      341.938       16.996      864.518
03/14/2014  15:31:00      -19.429      305.030      -64.478       90.338      153.685       44.454     8160.913    23619.046     1976.192        6.566        1.688      305.648       58.060        0.036      342.188       17.419      864.471
03/14/2014  15:32:00     -123.403      161.889      -22.097       95.996       97.213       48.834     9215.145     9450.381     2384.734        3.148        1.053      203.560       32.453        0.025      342.355       17.705      864.462
03/14/2014  15:33:00     -170.748       85.781      -29.556       84.448      142.527       47.665     7131.485    20313.955     2271.912        3.355        1.486      191.084       49.293        0.067      342.331       17.663      864.432
03/14/2014  15:34:00      -28.726      439.990      -57.242       87.882      113.731       52.407     7723.328    12934.684     2746.479       11.054        1.170      440.927       56.530        0.016      341.788       16.741      864.467
03/14/2014  15:35:00      -96.107      401.599      -45.606      118.022      149.283       63.442    13929.140    22285.381     4024.886       10.641        2.012      412.939       64.829        0.025      341.992       17.087      864.452
03/14/2014  15:36:00     -288.804      339.012      -70.595      166.023      187.807       92.635    27563.745    35271.590     8581.330       13.735        3.571      445.350      108.756        0.060      341.977       17.061      864.460
03/14/2014  15:37:00     -189.594      436.004      -51.091       96.012      133.505       69.622     9218.235    17823.659     4847.234       13.027        1.594      475.443       58.565        0.015      341.778       16.723      864.498
03/14/2014  15:38:00     -116.834      319.071      -31.957       92.914      120.631       65.763     8633.020    14551.950     4324.797        7.199        1.375      339.789       65.233        0.037      341.796       16.754      864.475
03/14/2014  15:39:00     -219.509      281.856      -55.367       72.308      109.029       56.689     5228.508    11887.285     3213.639        7.551        1.016      357.249       49.528        0.019      341.774       16.718      864.442
03/14/2014  15:40:00     -182.784      211.105      -37.802       90.988       99.464       49.416     8278.859     9893.008     2441.971        5.000        1.031      279.240       48.649        0.030      341.982       17.068      864.415
03/14/2014  15:41:00      -81.230      374.736      -52.686       82.691      151.189       53.949     6837.746    22858.068     2910.532        9.120        1.630      383.439       62.162        0.026      342.045       17.177      864.450
03/14/2014  15:42:00      -97.410      359.848      -40.891       81.929      145.886       52.492     6712.421    21282.597     2755.383        8.569        1.538      372.799       51.219        0.019      341.985       17.074      864.458
03/14/2014  15:43:00      -47.019      385.244      -38.439       68.785      116.626       56.597     4731.314    13601.607     3203.172        8.681        1.077      388.102       57.508        0.022      341.899       16.930      864.464
03/14/2014  15:44:00      -44.150      485.954      -70.387       99.382       82.024       45.575     9876.750     6727.943     2077.100       13.086        0.934      487.956       42.167        0.007      341.875       16.888      864.444
03/14/2014  15:45:00     -110.313      304.070      -33.662      123.696      141.544       65.400    15300.759    20034.790     4277.109        7.268        1.981      323.462       60.819        0.035      342.146       17.349      864.486
03/14/2014  15:46:00      -69.901      298.909      -29.531       87.354      203.741       58.367     7630.652    41510.472     3406.735        7.382        2.627      306.974       83.417        0.074      342.190       17.424      864.487
03/14/2014  15:47:00     -252.429      326.999      -69.145      122.067      145.593       81.055    14900.341    21197.391     6569.903       10.904        2.133      413.097       82.450        0.040      342.051       17.187      864.535
03/14/2014  15:48:00     -259.548      290.193      -54.374      129.206      122.542       69.238    16694.301    15016.431     4793.870        9.551        1.825      389.329       65.912        0.029      342.004       17.107      864.552
03/14/2014  15:49:00     -226.863      241.770      -48.022      137.604      130.289       68.558    18934.887    16975.262     4700.174        7.641        2.031      331.542       79.266        0.057      342.159       17.370      864.563
03/14/2014  15:50:00       -2.083      480.094      -57.050      147.882      160.739       91.612    21868.955    25837.129     8392.765       14.491        2.805      480.099       94.745        0.039      341.829       16.810      864.538
03/14/2014  15:51:00      -99.138      380.136      -39.478       89.669      168.658       71.294     8040.458    28445.638     5082.770        9.872        2.078      392.851       90.248        0.053      341.914       16.954      864.557
03/14/2014  15:52:00        4.974      198.827      -16.898      107.796      147.918       71.198    11620.077    21879.835     5069.203        3.920        1.928      198.890       78.306        0.155      342.055       17.195      864.531
03/14/2014  15:53:00      -75.877      381.047      -52.632      152.813      179.516       64.944    23351.756    32225.847     4217.727       10.675        2.990      388.528       65.309        0.028      341.990       17.081      864.542
03/14/2014  15:54:00     -118.690      569.311      -84.335       87.911      132.103       64.264     7728.430    17451.165     4129.816       18.731        1.465      581.552       59.586        0.010      341.707       16.602      864.567
03/14/2014  15:55:00      -59.728      400.898      -48.656       92.277      155.881       64.266     8515.060    24298.904     4130.084       10.179        1.847      405.323       57.292        0.020      341.873       16.884      864.543
03/14/2014  15:56:00     -113.219      461.099      -49.600      140.848      216.952       84.172    19838.181    47068.073     7084.878       15.093        3.700      474.795      102.415        0.047      341.869       16.879      864.532
03/14/2014  15:57:00     -166.582      339.934      -48.385       95.876      124.606       73.646     9192.265    15526.739     5423.753        8.789        1.507      378.556       77.589        0.042      341.766       16.703      864.541
03/14/2014  15:58:00       47.638      388.071      -64.480       95.576      120.677       62.162     9134.746    14563.029     3864.154        9.229        1.378      390.984       58.277        0.022      341.834       16.818      864.538
03/14/2014  15:59:00       28.149      201.295      -21.959       72.510      109.266       62.153     5257.679    11939.065     3862.936        3.142        1.053      203.253       53.493        0.069      341.857       16.860      864.537
03/14/2014  16:00:00      -10.431      407.056      -64.957      124.044      137.550       61.343    15386.794    18919.989     3762.997       10.404        1.903      407.189       62.152        0.023      341.827       16.806      864.511
03/14/2014  16:01:00      -63.245      145.431      -10.875      131.875       94.565       60.122    17391.054     8942.467     3614.700        2.760        1.497      158.587       52.737        0.111      342.114       17.294      864.520
03/14/2014  16:02:00      -64.147      175.801      -35.149       85.732      155.778       43.751     7349.937    24266.642     1914.157        3.489        1.677      187.138       62.001        0.110      342.202       17.445      864.530
03/14/2014  16:03:00      -68.654      466.409      -47.073      101.311      126.714       67.933    10263.953    16056.343     4614.828       12.769        1.547      471.435       64.306        0.019      342.022       17.138      864.567
03/14/2014  16:04:00     -128.698      349.382      -37.737      132.963      176.333       79.182    17679.292    31093.306     6269.762        9.754        2.752      372.332       93.074        0.062      341.863       16.868      864.605
03/14/2014  16:05:00      -66.104      526.307      -69.547       93.093      119.974       51.240     8666.321    14393.706     2625.570       15.594        1.284      530.442       44.528        0.007      341.766       16.703      864.599
03/14/2014  16:06:00      -11.347      437.510      -63.891      105.064      124.030       54.589    11038.500    15383.326     2979.973       11.251        1.470      437.657       55.254        0.016      341.814       16.784      864.600
03/14/2014  16:07:00      -41.883      205.482      -25.714       81.095       85.794       51.078     6576.326     7360.583     2608.995        3.059        0.827      209.707       39.389        0.035      342.069       17.218      864.604
03/14/2014  16:08:00     -124.479      221.176      -21.705       74.662      113.283       52.733     5574.368    12832.977     2780.791        4.303        1.059      253.798       55.862        0.048      342.173       17.395      864.627
03/14/2014  16:09:00     -183.826      319.514      -63.222       74.190      100.195       63.136     5504.209    10038.998     3986.136        7.970        0.976      368.621       59.191        0.026      341.748       16.671      864.641
03/14/2014  16:10:00      -86.224      491.571      -70.911       93.767      130.281       65.667     8792.277    16973.163     4312.217       14.209        1.504      499.076       58.172        0.014      341.776       16.721      864.680
03/14/2014  16:11:00       64.716      285.849      -26.560      100.619      212.755       83.853    10124.223    45264.636     7031.385        7.450        3.121      293.083      107.413        0.134      341.794       16.751      864.679
03/14/2014  16:12:00      -37.747      413.324      -48.761      163.893      185.150       90.067    26861.011    34280.465     8111.986       12.193        3.463      415.044      103.355        0.062      341.845       16.838      864.662
03/14/2014  16:13:00      -63.310      568.583      -69.785      107.736      157.533       70.477    11607.002    24816.790     4966.996       18.677        2.070      572.097       71.738        0.016      341.913       16.953      864.646
03/14/2014  16:14:00     -155.477      476.100      -62.382      123.498      152.016       69.173    15251.824    23108.924     4784.900       14.893        2.157      500.843       64.171        0.016      341.776       16.720      864.700
03/14/2014  16:15:00      -79.695      377.845      -51.325       94.111      150.467       57.411     8856.961    22640.305     3296.021        9.327        1.740      386.159       70.577        0.033      341.939       16.997      864.715
03/14/2014  16:16:00      -98.288      402.919      -45.565       99.523      128.870       57.570     9904.916    16607.426     3314.338       10.195        1.491      414.734       54.346        0.017      341.835       16.820      864.728
03/14/2014  16:17:00      -47.679      342.634      -47.581      132.630      132.873       62.973    17590.807    17655.151     3965.603        8.057        1.961      345.935       69.042        0.040      341.961       17.035      864.730
03/14/2014  16:18:00        6.010      294.732      -43.054      106.766      133.607       57.937    11399.044    17850.874     3356.678        6.068        1.630      294.793       56.762        0.037      341.966       17.043      864.741
03/14/2014  16:19:00      -25.392      299.721      -55.774      109.045      102.711       49.011    11890.819    10549.576     2402.085        5.921        1.242      300.795       38.470        0.016      341.963       17.037      864.757
03/14/2014  16:20:00      -54.447      445.274      -58.864      101.788      107.175       56.823    10360.833    11486.504     3228.825       11.488        1.254      448.591       50.452        0.013      341.877       16.891      864.793
03/14/2014  16:21:00     -154.875      275.795      -27.934       99.677      130.655       68.699     9935.561    17070.659     4719.568        6.627        1.586      316.305       75.416        0.057      342.074       17.227      864.813
03/14/2014  16:22:00      -75.391      424.368      -62.418       86.067      132.246       60.192     7407.532    17489.127     3623.113       10.909        1.426      431.013       59.680        0.019      341.822       16.798      864.828
03/14/2014  16:23:00      -74.334      340.496      -29.964       74.201      165.662       59.740     5505.829    27443.836     3568.834        7.943        1.826      348.515       61.036        0.031      342.116       17.296      864.829
03/14/2014  16:24:00     -121.176      134.126      -16.138       85.883      136.972       55.809     7375.930    18761.396     3114.690        3.109        1.463      180.758       47.136        0.068      342.379       17.746      864.863
03/14/2014  16:25:00     -139.793      127.436      -21.822      106.146      132.522       54.219    11266.944    17562.212     2939.654        3.401        1.588      189.161       45.924        0.059      342.073       17.225      864.884
03/14/2014  16:26:00     -132.201      191.423      -29.706       90.556      108.809       47.380     8200.387    11839.435     2244.842        3.864        1.114      232.637       48.626        0.044      342.184       17.413      864.913
03/14/2014  16:27:00     -216.637      289.184      -63.793      127.646      127.089       57.083    16293.602    16151.642     3258.513        8.516        1.785      361.330       76.662        0.045      341.636       16.481      864.951
03/14/2014  16:28:00      -73.053      270.962      -37.994       38.814       73.664       32.255     1506.527     5426.411     1040.404        4.409        0.399      280.636       29.718        0.011      341.547       16.331      864.915
03/14/2014  16:29:00       14.805      393.256      -44.980       95.569      170.633       67.077     9133.369    29115.713     4499.326        9.981        2.137      393.534       86.722        0.049      341.621       16.457      864.937
03/14/2014  16:30:00      -18.714      414.887      -62.248       59.063       65.749       35.419     3488.489     4322.906     1254.489        9.271        0.453      415.309       30.586        0.005      341.387       16.060      864.932
03/14/2014  16:31:00      -74.550      366.264      -51.054       88.469      102.589       48.083     7826.819    10524.551     2312.009        8.148        1.033      373.775       40.592        0.012      341.625       16.464      864.915
03/14/2014  16:32:00      -58.869      310.628      -36.045       86.284      125.583       55.007     7444.905    15770.980     3025.788        6.374        1.312      316.157       65.567        0.043      341.798       16.756      864.933
03/14/2014  16:33:00     -100.617      221.420      -18.852       88.484       90.189       53.108     7829.384     8133.971     2820.506        3.914        0.939      243.209       46.051        0.036      341.902       16.934      864.947
03/14/2014  16:34:00       15.725      453.960      -46.298      125.590      189.026       82.546    15772.918    35730.889     6813.888       13.338        2.916      454.232       93.934        0.043      341.837       16.824      864.968
03/14/2014  16:35:00       83.275      364.263      -35.735      124.595      168.378      104.411    15524.038    28351.244    10901.575        9.783        2.739      373.660      101.928        0.074      341.712       16.611      864.969
03/14/2014  16:36:00       50.871      298.425      -15.832      170.627      190.868      105.348    29113.516    36430.770    11098.106        8.425        3.832      302.730      100.584        0.110      341.752       16.679      864.980
03/14/2014  16:37:00      147.243      192.496        6.341      150.816      143.442       85.414    22745.414    20575.606     7295.594        5.469        2.531      242.354       79.268        0.107      341.729       16.641      864.961
03/14/2014  16:38:00      250.665      195.867       38.846      163.088      134.575      106.251    26597.799    18110.430    11289.208        7.934        2.800      318.115       63.836        0.040      341.706       16.602      864.884
03/14/2014  16:39:00      125.343      252.901        7.406      169.421      213.412      126.106    28703.577    45544.708    15902.805        8.492        4.508      282.258      111.293        0.155      341.724       16.632      864.864
03/14/2014  16:40:00     -127.935      440.035      -63.854      173.854      166.412       68.627    30225.077    27692.936     4709.662       13.834        3.131      458.256       76.079        0.028      341.805       16.769      865.021
03/14/2014  16:41:00      -43.582      371.700      -55.794      137.780      199.547       59.268    18983.428    39819.020     3512.663       10.273        3.116      374.246       64.720        0.030      341.788       16.740      865.033
03/14/2014  16:42:00     -101.392      380.351      -52.514      113.712      105.744       58.174    12930.425    11181.764     3384.265        9.260        1.375      393.633       54.906        0.019      341.892       16.916      865.049
03/14/2014  16:43:00        6.697      351.745      -35.145      117.522      165.731       87.378    13811.504    27466.669     7634.969        8.695        2.446      351.809       94.866        0.073      341.678       16.554      865.045
03/14/2014  16:44:00       81.206      247.008        6.872      161.671      174.885      103.923    26137.524    30584.858    10799.943        6.758        3.376      260.015      114.146        0.193      341.670       16.540      865.009
03/14/2014  16:45:00      -42.329      317.725      -49.623       84.030      120.466       47.999     7060.998    14512.074     2303.940        6.454        1.194      320.532       48.700        0.023      341.810       16.778      865.017
03/14/2014  16:46:00      -13.810      422.259      -46.085      115.587      145.647       67.228    13360.402    21213.006     4519.543       10.985        1.955      422.484       78.970        0.035      341.795       16.752      865.025
03/14/2014  16:47:00      -66.952      575.026      -77.041      103.278      110.654       56.079    10666.424    12244.235     3144.856       18.356        1.303      578.911       47.253        0.007      341.667       16.535      865.008
03/14/2014  16:48:00      -89.533      267.791      -36.156      139.909      156.310       63.208    19574.632    24432.868     3995.274        6.451        2.400      282.362       60.912        0.047      341.952       17.019      865.017
03/14/2014  16:49:00       58.970      416.333      -27.563      123.325      204.654       98.612    15209.108    41883.334     9724.408       12.218        3.341      420.489      110.922        0.070      341.650       16.507      865.007
03/14/2014  16:50:00       -8.725      294.550      -30.185      113.804      104.095       70.157    12951.453    10835.798     4921.938        5.822        1.435      294.679       66.267        0.051      341.784       16.733      865.015
03/14/2014  16:51:00       28.689      221.094      -25.235       86.837      146.930       79.234     7540.718    21588.401     6277.994        4.287        1.770      222.948       87.326        0.153      341.992       17.087      865.028
03/14/2014  16:52:00      -95.849      272.906      -31.532      132.267      128.533       66.134    17494.616    16520.692     4373.766        6.152        1.919      289.249       58.802        0.041      341.914       16.954      865.037
03/14/2014  16:53:00       68.667      257.058      -26.100      114.481      168.222       83.443    13105.910    28298.654     6962.751        5.991        2.418      266.071       95.027        0.128      341.881       16.899      865.029
03/14/2014  16:54:00      -47.910      540.690      -68.192      158.604      154.804       65.885    25155.242    23964.231     4340.808       17.636        2.673      542.808       66.306        0.015      341.724       16.632      865.051
03/14/2014  16:55:00      -47.706      563.372      -71.154      107.886      149.633       74.707    11639.347    22390.097     5581.099       18.216        1.981      565.388       81.381        0.021      341.599       16.421      865.056
03/14/2014  16:56:00      -82.891      525.439      -71.944      100.114      138.296       56.516    10022.733    19125.889     3194.010       16.023        1.617      531.937       66.523        0.016      341.582       16.390      865.057
03/14/2014  16:57:00      -43.680      442.086      -54.868       92.468       84.596       60.380     8550.265     7156.475     3645.739       10.985        0.968      444.238       48.238        0.012      341.724       16.632      865.051
03/14/2014  16:58:00     -116.451      359.675      -31.577      137.082      169.065      102.958    18791.474    28583.025    10600.247       10.094        2.899      378.057       98.321        0.068      341.860       16.863      865.046
03/14/2014  16:59:00     -121.098      338.794      -43.742       89.066      138.551       61.626     7932.723    19196.373     3797.803        8.114        1.546      359.786       62.778        0.030      341.871       16.881      865.060
03/14/2014  17:00:00     -129.050      321.433      -45.869      124.260      134.970       66.327    15440.596    18217.000     4399.232        8.006        1.903      346.371       65.027        0.035      341.917       16.958      865.063
03/14/2014  17:01:00       58.556      306.163      -44.665      125.702      113.036       67.524    15801.102    12777.042     4559.485        6.614        1.657      311.712       67.164        0.046      341.765       16.700      865.079
03/14/2014  17:02:00      146.464      179.042       -3.841      131.107      125.476       88.675    17189.003    15744.163     7863.315        4.715        2.040      231.318       77.738        0.113      341.707       16.603      865.040
03/14/2014  17:03:00      -25.248      420.731      -72.597      116.753      159.333       62.781    13631.256    25386.920     3941.409       11.293        2.148      421.487       65.422        0.024      341.825       16.804      865.067
03/14/2014  17:04:00      -54.868      529.616      -52.744      115.807      178.091       90.818    13411.355    31716.313     8247.903       16.982        2.669      532.450       96.526        0.033      341.633       16.476      865.078
03/14/2014  17:05:00     -157.748      339.361      -54.041      102.953      158.324       74.326    10599.347    25066.433     5524.376        9.207        2.060      374.233       83.221        0.049      341.740       16.659      865.135
03/14/2014  17:06:00     -205.621      423.521      -65.002      114.832      148.276       86.945    13186.431    21985.819     7559.475       13.430        2.137      470.798       79.189        0.028      341.473       16.206      865.156
03/14/2014  17:07:00     -147.043      266.017      -37.009       97.855      139.869       67.274     9575.677    19563.403     4525.749        6.370        1.683      303.952       59.239        0.038      341.582       16.391      865.157
03/14/2014  17:08:00      -95.564      466.730      -46.072      112.418      163.523       81.832    12637.765    26739.755     6696.474       13.757        2.304      476.413       84.354        0.031      341.569       16.370      865.163
03/14/2014  17:09:00       44.256      434.750      -26.861      162.677      253.638      110.806    26463.779    64332.304    12277.892       14.736        5.154      436.997      136.422        0.097      341.530       16.304      865.136
03/14/2014  17:10:00       66.117      292.321      -10.247      125.327      146.055      107.023    15706.834    21331.960    11453.927        6.920        2.425      299.705      102.380        0.117      341.651       16.508      865.099
03/14/2014  17:11:00      -49.304      255.598      -33.079       73.153      101.170       51.601     5351.353    10235.317     2662.612        4.355        0.912      260.309       48.591        0.035      341.812       16.782      865.119
03/14/2014  17:12:00     -155.317      393.554      -55.804      137.891      175.475       80.193    19013.944    30791.520     6430.996       11.917        2.812      423.093       89.584        0.045      341.640       16.489      865.127
03/14/2014  17:13:00      -91.996      547.530      -51.836      113.576      180.471       75.643    12899.426    32569.908     5721.907       18.105        2.560      555.204       88.221        0.025      341.485       16.227      865.127
03/14/2014  17:14:00      -45.016      585.100      -78.745       94.804      151.337       58.800     8987.794    22902.755     3457.482       19.295        1.767      586.830       53.949        0.008      341.522       16.289      865.101
03/14/2014  17:15:00      -22.043      574.755      -56.874      118.230      205.524       84.984    13978.436    42239.971     7222.311       19.874        3.172      575.178       97.127        0.029      341.539       16.318      865.107
03/14/2014  17:16:00       51.081      349.471      -22.794      127.075      189.380      109.274    16148.004    35864.945    11940.765        9.459        3.198      353.185      111.044        0.099      341.557       16.349      865.099
03/14/2014  17:17:00      -16.607      461.005      -56.579      115.406      167.355       83.612    13318.571    28007.693     6991.029       13.215        2.416      461.304       92.901        0.041      341.500       16.251      865.110
03/14/2014  17:18:00       -3.738      413.827      -50.855      109.375      162.017       69.958    11962.863    26249.363     4894.155       10.847        2.155      413.844       78.879        0.036      341.513       16.274      865.085
03/14/2014  17:19:00      -26.159      251.356        0.184      117.294      163.502       85.678    13757.770    26732.908     7340.751        5.584        2.392      252.713      101.127        0.160      341.708       16.605      865.071
03/14/2014  17:20:00      -79.861      283.982      -43.565      125.482      120.811       71.898    15745.713    14595.222     5169.329        6.221        1.776      294.998       77.530        0.069      341.592       16.408      865.083
03/14/2014  17:21:00       48.365      266.171        3.171      128.517      178.322       94.298    16516.714    31798.683     8892.024        6.519        2.860      270.530      103.315        0.146      341.593       16.411      865.065
03/14/2014  17:22:00       45.361      355.819      -34.023      145.295      176.933       96.909    21110.563    31305.463     9391.306        9.580        3.090      358.699      106.038        0.087      341.466       16.194      865.044
03/14/2014  17:23:00       18.268      409.231      -49.564      121.264      185.234       81.024    14705.014    34311.511     6564.863       11.291        2.779      409.638       92.255        0.051      341.509       16.266      865.017
03/14/2014  17:24:00       -3.708      563.930      -88.789       93.241       98.433       48.740     8693.856     9689.120     2375.567       17.333        1.038      563.942       44.425        0.006      341.648       16.504      865.035
03/14/2014  17:25:00      -44.316      486.827      -48.762      166.355      203.802       91.067    27673.909    41535.054     8293.226       15.941        3.875      488.840       98.867        0.041      341.602       16.425      865.042
03/14/2014  17:26:00       96.794      317.194       -9.753      127.838      203.000      117.263    16342.509    41209.167    13750.667        9.068        3.565      331.634      121.031        0.133      341.545       16.329      865.042
03/14/2014  17:27:00       78.212      315.450      -35.617      136.942      155.514       82.417    18753.226    24184.575     6792.485        7.830        2.487      325.001       78.253        0.058      341.614       16.446      865.034
03/14/2014  17:28:00      -63.846      566.980      -69.853      124.444      142.590       69.829    15486.323    20331.826     4876.089       18.555        2.035      570.563       67.375        0.014      341.417       16.111      865.073
03/14/2014  17:29:00      -55.431      381.713      -51.082       92.535      134.920       64.962     8562.736    18203.390     4220.007        9.118        1.549      385.717       71.678        0.035      341.500       16.253      865.039
03/14/2014  17:30:00       37.006      214.161        6.634      177.401      151.266      100.188    31471.026    22881.414    10037.647        5.582        3.220      217.335       99.497        0.210      341.537       16.317      865.011
03/14/2014  17:31:00      -67.964      354.897      -26.982       92.834      154.838       78.641     8618.081    23974.912     6184.404        8.503        1.939      361.346       69.816        0.037      341.469       16.199      864.992
03/14/2014  17:32:00      -45.064      424.625      -55.231       91.413      104.380       55.027     8356.402    10895.154     3027.960       10.383        1.114      427.010       57.597        0.018      341.507       16.264      864.942
03/14/2014  17:33:00      -23.589      364.249      -37.238      109.735      143.879       71.654    12041.723    20701.292     5134.264        8.624        1.894      365.012       78.241        0.046      341.582       16.393      864.929
03/14/2014  17:34:00       45.232      262.159      -28.326       85.719      195.177       74.089     7347.682    38094.139     5489.175        6.124        2.547      266.033       95.423        0.129      341.608       16.435      864.928
03/14/2014  17:35:00       14.276      176.232       -9.604      107.307       85.117       76.337    11514.824     7244.846     5827.332        2.797        1.229      176.809       61.843        0.122      341.684       16.565      864.951
03/14/2014  17:36:00      -91.233      472.398      -38.442      121.405      189.223       76.549    14739.121    35805.177     5859.677       14.467        2.820      481.128       88.209        0.034      341.512       16.272      865.001
03/14/2014  17:37:00      -21.844      409.151      -45.271      127.641      157.017       70.808    16292.284    24654.218     5013.771       10.794        2.298      409.734       66.701        0.027      341.545       16.328      865.004
03/14/2014  17:38:00        1.810      398.734      -42.220       89.594      177.392       81.180     8027.039    31467.961     6590.231       10.342        2.304      398.738       91.194        0.052      341.535       16.312      864.998
03/14/2014  17:39:00      -54.354      564.456      -63.518       88.040      243.172       88.387     7751.033    59132.827     7812.211       20.013        3.735      567.067      122.301        0.047      341.513       16.274      864.968
03/14/2014  17:40:00       60.701      256.315      -14.031      135.178      154.064       79.657    18273.127    23735.768     6345.191        5.896        2.418      263.405       88.272        0.112      341.626       16.467      864.983
03/14/2014  17:41:00     -223.361      315.028      -51.876      126.303      170.463       77.905    15952.412    29057.766     6069.161       10.144        2.554      386.177       85.583        0.049      341.666       16.535      865.012
03/14/2014  17:42:00     -121.757      396.189      -52.312       98.794      148.619       66.698     9760.223    22087.586     4448.688       10.540        1.815      414.477       74.010        0.032      341.523       16.292      865.018
03/14/2014  17:43:00      -97.132      556.295      -68.497      139.182      168.359       71.357    19371.520    28344.708     5091.821       18.819        2.640      564.711       67.069        0.014      341.437       16.146      865.027
03/14/2014  17:44:00       -7.730      524.519      -75.576      132.552      154.398       75.674    17570.074    23838.589     5726.493       16.400        2.357      524.576       76.003        0.021      341.397       16.078      864.993
03/14/2014  17:45:00     -147.384      327.298      -21.380      149.348      180.747       89.360    22304.678    32669.369     7985.127        9.612        3.148      358.951      103.467        0.083      341.453       16.174      865.014
03/14/2014  17:46:00        1.710      351.216      -39.237      111.818      145.225       62.185    12503.158    21090.265     3866.929        8.117        1.873      351.220       62.145        0.031      341.534       16.310      864.989
03/14/2014  17:47:00      -60.598      426.710      -51.916      117.472      102.176       64.349    13799.594    10439.921     4140.763       10.841        1.419      430.992       57.537        0.018      341.471       16.202      864.997
03/14/2014  17:48:00       -9.139      334.165      -30.113      110.651      124.173       72.865    12243.637    15419.017     5309.321        7.281        1.649      334.290       68.101        0.042      341.509       16.267      864.977
03/14/2014  17:49:00      -16.545      319.787      -27.253       78.042      124.113       69.896     6090.618    15404.115     4885.482        6.483        1.319      320.215       68.737        0.046      341.623       16.461      864.990
03/14/2014  17:50:00      -17.692      481.323      -52.815      112.162      179.709       66.867    12580.285    32295.440     4471.242       14.205        2.467      481.648       74.846        0.024      341.519       16.284      864.994
03/14/2014  17:51:00      -39.988      451.998      -45.184       90.893      154.484       70.760     8261.492    23865.250     5006.936       12.253        1.857      453.763       82.137        0.033      341.440       16.151      864.990
03/14/2014  17:52:00      -29.688      378.720      -49.797       97.670      159.680       62.903     9539.441    25497.697     3956.840        9.288        1.950      379.882       65.236        0.029      341.461       16.185      864.985
03/14/2014  17:53:00     -129.094      354.351      -34.940      105.048      143.780       64.970    11035.067    20672.690     4221.088        8.968        1.796      377.134       70.318        0.035      341.443       16.156      864.983
03/14/2014  17:54:00       -6.123      318.218      -55.335      106.209      135.739       67.747    11280.331    18425.062     4589.593        6.932        1.715      318.277       62.792        0.039      341.533       16.308      864.999
03/14/2014  17:55:00       55.189      438.128      -40.322      142.927      194.055       99.608    20428.048    37657.480     9921.715       13.230        3.400      441.590      109.553        0.062      341.337       15.977      865.005
03/14/2014  17:56:00       84.364      320.632      -33.502      166.816      217.711       88.283    27827.426    47397.973     7793.806        9.702        4.151      331.545       96.221        0.084      341.331       15.969      865.014
03/14/2014  17:57:00       25.342      346.442      -44.489       98.548      179.714       75.192     9711.709    32296.949     5653.846        8.514        2.383      347.367       84.696        0.059      341.334       15.973      865.044
03/14/2014  17:58:00       52.620      197.591       -8.656       91.336      144.159       84.360     8342.272    20781.769     7116.550        3.906        1.812      204.477       89.689        0.192      341.358       16.013      865.051
03/14/2014  17:59:00       54.366      352.753      -38.393      112.616      172.567       85.087    12682.273    29779.200     7239.805        8.927        2.485      356.917       94.499        0.070      341.315       15.939      865.074
03/14/2014  18:00:00       40.335      422.412      -46.067      132.815      190.136       81.689    17639.912    36151.558     6673.074       12.131        3.023      424.333       96.764        0.052      341.261       15.848      865.073
03/14/2014  18:01:00       25.920      399.060      -49.209      103.142      183.839       77.210    10638.207    33796.730     5961.366       10.636        2.520      399.901       99.370        0.062      341.297       15.908      865.096
03/14/2014  18:02:00       -5.970      286.382      -18.173      110.534      181.615       94.678    12217.668    32984.152     8963.912        6.826        2.708      286.444       96.932        0.115      341.301       15.915      865.106
03/14/2014  18:03:00       -2.093      384.954      -34.271      127.662      165.088       83.587    16297.512    27253.972     6986.865        9.994        2.527      384.959       82.563        0.046      341.281       15.880      865.138
03/14/2014  18:04:00       90.482      423.378      -52.523      136.260      208.609       94.564    18566.787    43517.663     8942.421       13.060        3.551      432.938      104.472        0.058      341.072       15.528      865.164
03/14/2014  18:05:00        8.698      409.081      -27.908      138.552      159.212       95.548    19196.558    25348.446     9129.427       11.093        2.684      409.173       90.014        0.048      341.039       15.472      865.173
03/14/2014  18:06:00       36.550      292.390       -0.460      129.130      176.753       90.437    16674.528    31241.785     8178.865        7.145        2.805      294.665       88.820        0.091      341.027       15.453      865.209
03/14/2014  18:07:00       65.452      203.596       -8.661       94.795      147.347       78.460     8986.064    21711.250     6155.906        4.132        1.843      213.858       70.456        0.109      341.034       15.464      865.229
03/14/2014  18:08:00       62.917      383.712      -31.577      112.163      180.594       94.355    12580.500    32614.203     8902.889       10.313        2.705      388.837      100.400        0.067      341.004       15.412      865.238
03/14/2014  18:09:00       65.814      315.742      -29.204      107.510      213.646       90.640    11558.415    45644.812     8215.692        8.514        3.271      322.528      108.916        0.114      341.009       15.422      865.248
03/14/2014  18:10:00       24.794      310.759      -24.726      110.311      139.195       82.984    12168.592    19375.174     6886.344        6.811        1.922      311.747       85.386        0.075      341.037       15.468      865.262
03/14/2014  18:11:00       34.487      293.252      -29.912      106.958      160.280       72.732    11440.098    25689.629     5289.879        6.524        2.121      295.273       73.710        0.062      341.050       15.491      865.275
03/14/2014  18:12:00       27.174      198.266       -4.908      108.422      114.513       66.121    11755.323    13113.297     4372.008        3.465        1.462      200.120       64.372        0.103      341.047       15.486      865.272
03/14/2014  18:13:00       99.290      270.313      -16.197      102.329      178.231       96.849    10471.132    31766.238     9379.780        6.739        2.581      287.971      109.094        0.144      340.983       15.378      865.276
03/14/2014  18:14:00       45.184      379.311      -34.918      128.789      180.745       96.989    16586.569    32668.859     9406.811       10.289        2.933      381.993      105.305        0.076      340.907       15.248      865.295
03/14/2014  18:15:00       58.777      581.183      -71.505      110.421      206.311       99.161    12192.727    42564.065     9832.993       20.545        3.229      584.147      109.121        0.035      340.782       15.037      865.306
03/14/2014  18:16:00       70.666      310.393      -10.045      138.312      195.439      106.670    19130.273    38196.409    11378.569        8.506        3.435      318.335      107.777        0.115      340.770       15.019      865.314
03/14/2014  18:17:00       94.173      332.108      -30.549      123.045      191.454       97.858    15140.118    36654.748     9576.260        9.072        3.069      345.202      108.146        0.098      340.758       14.997      865.313
03/14/2014  18:18:00       19.028      315.514      -44.059      101.173      138.218       66.495    10236.062    19104.180     4421.554        6.780        1.688      316.088       76.388        0.058      340.813       15.091      865.330
03/14/2014  18:19:00       99.697      424.850      -52.449      106.000      159.719       94.175    11236.072    25510.164     8868.996       11.939        2.281      436.391       97.727        0.050      340.781       15.036      865.333
03/14/2014  18:20:00      107.430      338.653      -31.299      114.722      186.898      101.448    13161.117    34930.912    10291.723        9.278        2.919      355.285      114.022        0.103      340.779       15.031      865.334
03/14/2014  18:21:00       59.558      439.600      -48.387      101.695      198.928      101.529    10341.942    39572.276    10308.086       12.967        3.011      443.617      117.583        0.070      340.779       15.033      865.350
03/14/2014  18:22:00       51.241      420.889      -46.988      110.597      178.085       85.044    12231.762    31714.339     7232.473       11.657        2.559      423.997      105.848        0.062      340.754       14.990      865.353
03/14/2014  18:23:00       56.722      446.764      -62.652      113.919      196.337       88.278    12977.564    38548.159     7793.023       13.302        2.966      450.351      107.696        0.057      340.760       15.000      865.368
03/14/2014  18:24:00       19.693      352.671      -45.102       98.621      107.319       76.563     9726.194    11517.363     5861.854        7.695        1.355      353.221       66.454        0.035      340.765       15.009      865.378
03/14/2014  18:25:00      -13.215      454.547      -45.462      113.872      150.065       81.511    12966.756    22519.366     6644.043       12.548        2.107      454.739       84.386        0.034      340.750       14.983      865.385
03/14/2014  18:26:00        8.844      463.468      -68.555      115.044      108.329       61.853    13235.031    11735.244     3825.798       12.418        1.440      463.552       49.832        0.012      340.757       14.994      865.390
03/14/2014  18:27:00       -3.671      394.952      -45.734      106.125      124.748       73.380    11262.535    15562.084     5384.673        9.514        1.610      394.970       72.918        0.034      340.759       14.999      865.417
03/14/2014  18:28:00      -15.597      485.431      -51.280      105.921      123.713       65.198    11219.276    15304.803     4250.794       13.464        1.539      485.681       58.720        0.015      340.731       14.951      865.423
03/14/2014  18:29:00       58.931      420.548      -51.046      142.103      216.589       97.430    20193.302    46910.860     9492.637       12.975        3.830      424.657      119.896        0.080      340.706       14.908      865.432
03/14/2014  18:30:00       68.363      466.658      -54.484      122.505      236.468      105.625    15007.437    55917.215    11156.721       15.373        4.104      471.639      129.144        0.075      340.668       14.844      865.440
03/14/2014  18:31:00       81.790      271.115        0.709      155.070      192.443      107.537    24046.706    37034.377    11564.298        7.641        3.632      283.184      102.438        0.131      340.647       14.809      865.466
03/14/2014  18:32:00       81.843      415.226      -42.414      112.307      194.858      100.580    12612.946    37969.445    10116.374       12.079        3.035      423.215      117.522        0.077      340.633       14.784      865.493
03/14/2014  18:33:00      101.129      207.770       -7.925      133.215      165.129       93.240    17746.171    27267.734     8693.615        5.357        2.685      231.075       94.283        0.166      340.629       14.777      865.499
03/14/2014  18:34:00       81.420      319.219      -21.738      118.070      220.596      118.718    13940.550    48662.704    14094.040        9.283        3.835      329.439      121.282        0.136      340.635       14.787      865.516
03/14/2014  18:35:00       56.940      404.447      -56.716       92.795      218.360       80.388     8610.841    47681.099     6462.165       11.638        3.138      408.435      112.635        0.076      340.632       14.784      865.539
03/14/2014  18:36:00       35.164      384.419      -51.341      118.464      137.015       71.302    14033.782    18773.076     5084.043        9.476        1.895      386.024       62.997        0.027      340.634       14.785      865.558
03/14/2014  18:37:00       74.263      459.508      -62.910      115.294      195.192      103.295    13292.594    38099.741    10669.902       14.133        3.103      465.470      122.674        0.069      340.621       14.763      865.561
03/14/2014  18:38:00       34.030      427.038      -45.755      109.220      163.021       89.965    11928.960    26575.861     8093.712       11.610        2.330      428.392       97.022        0.051      340.616       14.755      865.589
03/14/2014  18:39:00       71.730      328.756      -12.992      117.575      220.963      104.985    13823.848    48824.681    11021.833        9.352        3.684      336.490      126.766        0.142      340.596       14.722      865.600
03/14/2014  18:40:00       41.225      314.422      -31.176      100.543      138.304       79.937    10108.964    19127.983     6389.947        6.857        1.781      317.113       77.964        0.060      340.581       14.697      865.622
03/14/2014  18:41:00       68.091      250.982      -27.322       93.980      140.966       78.578     8832.266    19871.343     6174.573        5.162        1.744      260.054       74.553        0.082      340.557       14.658      865.632
03/14/2014  18:42:00       62.596      324.420      -38.409      110.335      151.485       83.954    12173.863    22947.661     7048.292        7.640        2.108      330.404       85.798        0.067      340.515       14.586      865.648
03/14/2014  18:43:00       95.887      291.151      -24.939      116.840      162.850       83.443    13651.476    26520.135     6962.789        7.085        2.357      306.534       86.553        0.080      340.503       14.566      865.680
03/14/2014  18:44:00       89.494      282.232      -45.015       93.559      187.634       78.945     8753.296    35206.610     6232.237        6.993        2.510      296.081       85.924        0.084      340.476       14.519      865.726
03/14/2014  18:45:00       85.854      379.866      -43.376      116.922      188.569       91.449    13670.687    35558.443     8362.985       10.556        2.880      389.448      109.460        0.079      340.479       14.523      865.762
03/14/2014  18:46:00       18.244      286.091      -31.750      118.921      137.774       89.030    14142.149    18981.765     7926.269        6.211        2.053      286.673       68.061        0.056      340.467       14.503      865.799
03/14/2014  18:47:00       62.811      363.621      -46.276       89.236      173.018       68.461     7963.003    29935.214     4686.841        9.044        2.129      369.006       83.060        0.051      340.461       14.493      865.833
03/14/2014  18:48:00       76.149      351.875      -44.556       87.900      149.664       75.961     7726.396    22399.285     5770.117        8.374        1.795      360.020       88.887        0.061      340.462       14.496      865.856
03/14/2014  18:49:00       57.096      210.152      -18.393       97.077      135.574       80.619     9423.967    18380.246     6499.444        4.103        1.715      217.770       79.572        0.134      340.443       14.464      865.883
03/14/2014  18:50:00       78.361      206.312       -4.394      102.317      169.736       85.718    10468.675    28810.236     7347.611        4.767        2.331      220.692       91.644        0.172      340.429       14.439      865.889
03/14/2014  18:51:00       67.553      256.130      -40.385       96.416      131.655       70.965     9296.025    17332.910     5036.093        5.172        1.583      264.888       79.188        0.089      340.430       14.443      865.918
03/14/2014  18:52:00       77.944      223.547      -11.830       86.958      133.835       74.209     7561.773    17911.689     5507.044        4.358        1.549      236.746       78.954        0.111      340.424       14.432      865.933
03/14/2014  18:53:00       52.591      271.323      -26.240       94.663      164.040       69.568     8961.047    26909.248     4839.756        5.888        2.036      276.373       84.620        0.094      340.412       14.413      865.953
03/14/2014  18:54:00       77.892      280.094      -25.508      123.456      122.087       77.377    15241.335    14905.327     5987.163        6.065        1.807      290.723       77.558        0.071      340.401       14.393      865.966
03/14/2014  18:55:00      106.535      299.740      -27.470       98.369      186.746       98.139     9676.395    34874.049     9631.299        7.805        2.709      318.110      108.460        0.116      340.390       14.375      865.959
03/14/2014  18:56:00       74.272      273.165      -36.453       98.304      148.433       72.679     9663.718    22032.259     5282.184        5.921        1.849      283.082       75.516        0.071      340.366       14.335      865.972
03/14/2014  18:57:00       76.081      396.393      -55.865       96.020      157.605       79.889     9219.805    24839.190     6382.293       10.323        2.022      403.629       84.054        0.043      340.368       14.337      865.988
03/14/2014  18:58:00       53.925      216.879       -4.957       88.294      140.344       82.849     7795.779    19696.413     6864.039        4.216        1.718      223.483       77.980        0.122      340.345       14.300      866.006
03/14/2014  18:59:00       56.550      302.787      -44.412      109.867      138.475       75.597    12070.684    19175.220     5714.883        6.690        1.848      308.023       79.847        0.067      340.334       14.279      866.024
03/14/2014  19:00:00       61.387      290.822      -34.069      100.403      163.639       66.435    10080.769    26777.753     4413.625        6.538        2.064      297.230       72.455        0.059      340.330       14.274      866.046
03/14/2014  19:01:00       58.470      242.829      -26.531       91.424      129.548       78.005     8358.329    16782.746     6084.735        4.715        1.561      249.769       67.950        0.074      340.318       14.252      866.055
03/14/2014  19:02:00       43.189      257.905      -31.000       84.660      145.061       72.020     7167.362    21042.570     5186.866        5.136        1.670      261.496       79.879        0.093      340.319       14.255      866.072
03/14/2014  19:03:00       55.662      248.857      -10.874      106.176      155.809       86.754    11273.294    24276.331     7526.214        5.410        2.154      255.006       94.152        0.136      340.314       14.245      866.093
03/14/2014  19:04:00       15.360      237.292      -17.144      124.531      131.610       73.368    15508.042    17321.084     5382.824        4.752        1.911      237.788       78.286        0.108      340.308       14.234      866.117
03/14/2014  19:05:00       51.743      327.864      -37.085       94.817      169.571       81.659     8990.290    28754.424     6668.218        7.797        2.221      331.922       97.352        0.086      340.298       14.218      866.134
03/14/2014  19:06:00       62.572      240.196      -33.098       93.854      141.519       61.229     8808.537    20027.634     3748.967        4.764        1.629      248.212       63.309        0.065      340.294       14.212      866.140
03/14/2014  19:07:00       34.416      270.416      -29.157       88.646      144.159       60.340     7858.074    20781.713     3640.928        5.371        1.614      272.597       68.823        0.064      340.289       14.202      866.150
03/14/2014  19:08:00       97.077      348.680      -55.327       83.164      146.252       79.295     6916.236    21389.711     6287.684        8.432        1.730      361.941       87.801        0.059      340.305       14.230      866.162
03/14/2014  19:09:00       81.136      288.458      -41.872       74.491      149.361       69.140     5548.839    22308.802     4780.293        6.208        1.632      299.651       83.826        0.078      340.289       14.202      866.173
03/14/2014  19:10:00       45.784      263.337      -14.106       78.883      149.661       86.649     6222.523    22398.408     7508.046        5.388        1.806      267.287       88.306        0.109      340.272       14.174      866.177
03/14/2014  19:11:00       78.823      257.955        2.640      124.072      179.419       96.448    15393.795    32191.323     9302.174        6.481        2.844      269.729      108.419        0.162      340.274       14.179      866.181
03/14/2014  19:12:00       58.822      298.788      -49.125       65.840      159.242       57.368     4334.911    25357.942     3291.087        6.406        1.649      304.523       70.294        0.053      340.254       14.145      866.179
03/14/2014  19:13:00       70.892      178.228       -2.091      102.448      113.000       73.976    10495.529    12769.099     5472.385        3.276        1.437      191.810       62.386        0.106      340.216       14.080      866.178
03/14/2014  19:14:00       96.991      221.243      -28.429       78.807      106.835       54.884     6210.619    11413.786     3012.297        3.990        1.032      241.569       61.797        0.065      340.217       14.081      866.184
03/14/2014  19:15:00       42.730      212.152      -12.993       79.965      136.525       60.494     6394.480    18639.050     3659.504        3.784        1.435      216.412       61.956        0.082      340.188       14.032      866.188
03/14/2014  19:16:00       48.799      233.252      -33.156       68.475      123.542       59.278     4688.874    15262.545     3513.851        4.067        1.173      238.302       64.007        0.072      340.203       14.059      866.193
03/14/2014  19:17:00       91.666      209.695       -9.544       96.000      141.280       83.798     9216.043    19960.052     7022.073        4.432        1.810      228.855       84.445        0.136      340.195       14.046      866.201
03/14/2014  19:18:00       68.092      233.817      -18.110       85.508      138.853       66.031     7311.590    19280.220     4360.156        4.529        1.548      243.530       75.842        0.097      340.180       14.019      866.213
03/14/2014  19:19:00       56.827      272.858      -42.983       52.717      153.148       55.205     2779.050    23454.199     3047.645        5.440        1.464      278.713       77.957        0.078      340.181       14.022      866.228
03/14/2014  19:20:00       52.123      228.221      -14.993       90.099      137.103       77.217     8117.816    18797.250     5962.421        4.395        1.644      234.097       76.460        0.107      340.158       13.982      866.230
03/14/2014  19:21:00       59.817      220.205      -19.150       71.493      100.800       59.213     5111.291    10160.575     3506.236        3.560        0.939      228.185       54.481        0.057      340.146       13.963      866.240
03/14/2014  19:22:00        1.621      216.229      -26.528       73.742      114.438       49.176     5437.933    13096.077     2418.328        3.420        1.048      216.235       54.075        0.063      340.178       14.016      866.277
03/14/2014  19:23:00       75.028      240.487      -22.550       90.039      154.162       77.006     8107.083    23765.989     5929.980        5.088        1.890      251.919       88.964        0.125      340.180       14.018      866.281
03/14/2014  19:24:00        3.798      354.136      -60.052       70.294      101.210       44.905     4941.295    10243.430     2016.460        7.311        0.860      354.156       50.426        0.020      340.216       14.079      866.322
03/14/2014  19:25:00       25.195      288.071      -36.363       87.600      118.516       48.504     7673.692    14045.925     2352.669        5.450        1.204      289.171       58.161        0.040      340.189       14.036      866.341
03/14/2014  19:26:00       24.880      207.786      -25.208       78.166      123.364       56.620     6109.906    15218.785     3205.802        3.448        1.227      209.270       65.287        0.097      340.161       13.988      866.379
03/14/2014  19:27:00       77.681      173.328       -1.101       75.108      124.231       67.113     5641.143    15433.336     4504.125        3.082        1.279      189.939       72.914        0.147      340.157       13.981      866.391
03/14/2014  19:28:00       85.581      291.782      -36.617       88.678      131.640       71.405     7863.822    17329.082     5098.653        6.204        1.515      304.074       72.878        0.057      340.182       14.022      866.408
03/14/2014  19:29:00      116.025      239.443       -7.958       98.975      107.135       78.117     9795.969    11477.991     6102.245        4.911        1.369      266.073       77.367        0.085      340.178       14.017      866.423
03/14/2014  19:30:00       48.080      179.764      -21.592       63.044      116.592       52.902     3974.524    13593.634     2798.638        2.773        1.018      186.083       60.439        0.105      340.180       14.018      866.435
03/14/2014  19:31:00      100.806      172.488      -15.553       86.599      137.536       76.208     7499.337    18916.199     5807.647        3.618        1.611      199.784       81.710        0.167      340.190       14.037      866.437
03/14/2014  19:32:00       59.905      144.669       -3.768       76.301       97.440       58.633     5821.826     9494.469     3437.829        2.164        0.938      156.581       56.308        0.129      340.141       13.955      866.443
03/14/2014  19:33:00       73.563      118.028        9.555       81.732       79.461       68.057     6680.124     6314.011     4631.724        1.853        0.881      139.076       47.313        0.116      340.104       13.893      866.452
03/14/2014  19:34:00       59.087      236.876      -33.630       74.221       97.197       52.234     5508.721     9447.328     2728.414        3.920        0.884      244.134       55.122        0.051      340.094       13.875      866.463
03/14/2014  19:35:00      111.590      210.057      -19.022       85.582      112.824       57.343     7324.283    12729.148     3288.261        4.014        1.167      237.857       61.503        0.067      340.071       13.837      866.497
03/14/2014  19:36:00       77.590      171.135      -13.976       82.836      103.127       59.689     6861.828    10635.201     3562.763        2.828        1.053      187.902       57.865        0.095      340.041       13.787      866.525
03/14/2014  19:37:00       46.480      118.037       -6.002       73.383       80.740       49.008     5385.042     6519.015     2401.785        1.521        0.715      126.859       42.806        0.114      340.026       13.762      866.568
03/14/2014  19:38:00       49.127      211.149      -33.378       70.414       87.844       43.615     4958.080     7716.629     1902.303        3.134        0.729      216.789       44.480        0.042      340.045       13.793      866.608
03/14/2014  19:39:00       30.328      195.616      -33.391       57.088       82.465       39.338     3259.064     6800.496     1547.515        2.595        0.580      197.953       42.675        0.046      340.046       13.795      866.651
03/14/2014  19:40:00       43.302      173.212      -22.777       51.292       73.434       37.308     2630.914     5392.586     1391.891        2.090        0.471      178.543       41.959        0.055      340.043       13.790      866.677
03/14/2014  19:41:00        8.156      144.623      -22.342       61.848       78.329       30.374     3825.201     6135.405      922.605        1.618        0.544      144.853       31.687        0.048      340.048       13.798      866.696
03/14/2014  19:42:00       23.768      142.115      -21.417       53.658       59.710       35.348     2879.143     3565.278     1249.485        1.446        0.385      144.089       34.581        0.058      340.013       13.739      866.707
03/14/2014  19:43:00      -25.331      185.146      -24.632       48.056       65.785       34.220     2309.360     4327.645     1170.997        2.167        0.390      186.871       29.616        0.025      339.986       13.693      866.721
03/14/2014  19:44:00       26.222      197.631      -31.817       66.564       56.931       39.085     4430.703     3241.127     1527.620        2.498        0.460      199.363       35.204        0.031      340.004       13.723      866.749
03/14/2014  19:45:00       -9.388      152.257      -18.105       43.967       81.560       36.023     1933.136     6652.079     1297.662        1.674        0.494      152.546       42.127        0.076      340.002       13.721      866.763
03/14/2014  19:46:00        4.791      194.815      -38.420       80.645       76.439       40.691     6503.632     5842.882     1655.736        2.672        0.700      194.874       29.702        0.023      340.039       13.782      866.783
03/14/2014  19:47:00       -7.020      171.210      -31.758       59.871       45.252       20.463     3584.560     2047.729      418.725        1.821        0.303      171.354       13.906        0.007      340.050       13.802      866.796
03/14/2014  19:48:00       16.336       90.717        4.083       48.818       52.882       39.735     2383.210     2796.534     1578.849        0.763        0.338       92.176       17.222        0.035      340.030       13.769      866.798
03/14/2014  19:49:00      -40.773       48.597       -9.093       33.042       43.406       23.170     1091.755     1884.069      536.852        0.381        0.176       63.436       13.287        0.044      340.094       13.877      866.824
03/14/2014  19:50:00       -6.830      105.006       -3.782       52.321       51.310       30.746     2737.485     2632.692      945.338        0.870        0.316      105.228       27.799        0.070      340.034       13.776      866.845
03/14/2014  19:51:00      -34.770       66.555       -9.615       34.777       37.568       22.823     1209.409     1411.323      520.901        0.444        0.157       75.090       17.645        0.055      340.216       14.085      866.872
03/14/2014  19:52:00      -32.132      125.753      -23.982       42.196       71.373       32.134     1780.467     5094.091     1032.595        1.266        0.395      129.793       27.278        0.044      340.098       13.883      866.913
03/14/2014  19:53:00      -60.092      100.864      -25.540       47.369       45.166       19.179     2243.828     2039.964      367.837        0.954        0.233      117.408       15.888        0.018      340.058       13.816      866.937
03/14/2014  19:54:00      -51.157       80.124      -19.516       43.178       26.926       23.336     1864.358      725.007      544.582        0.628        0.157       95.063       21.480        0.051      340.033       13.775      866.966
03/14/2014  19:55:00     -110.441       50.963      -30.391       47.174       34.783       34.275     2225.397     1209.892     1174.800        1.016        0.231      121.632       33.768        0.077      340.062       13.824      866.997
03/14/2014  19:56:00      -30.689       62.320      -17.119       43.631       38.894       24.021     1903.641     1512.772      576.995        0.456        0.200       69.466       16.510        0.056      340.075       13.846      867.004
03/14/2014  19:57:00      -62.693       60.894      -24.079       34.567       29.608       19.125     1194.877      876.607      365.779        0.533        0.122       87.398       19.363        0.049      340.112       13.907      867.003
03/14/2014  19:58:00        7.123       36.754       -8.699       42.815       31.094       24.700     1833.114      966.820      610.095        0.244        0.171       37.438       25.125        0.450      340.013       13.742      866.996
03/14/2014  19:59:00      -19.601        4.908       -2.926       49.707       28.364       15.858     2470.794      804.526      251.487        0.197        0.176       20.207       11.812        0.342      340.154       13.978      867.000
03/14/2014  20:00:00      -66.885       13.412      -23.583       41.082       31.882       17.833     1687.770     1016.485      318.028        0.412        0.151       68.216       13.511        0.039      340.102       13.891      867.025
03/14/2014  20:01:00      -18.242      -37.423       13.161       40.470       41.745       25.312     1637.830     1742.664      640.702        0.296        0.201       41.632       19.721        0.224      340.067       13.832      867.039
03/14/2014  20:02:00     -100.758      -93.253       -2.830       54.183       44.768       25.242     2935.834     2004.165      637.155        1.222        0.279      137.289       19.953        0.021      339.938       13.613      867.067
03/14/2014  20:03:00     -126.597      -98.602        0.172       58.237       40.082       32.526     3391.553     1606.554     1057.945        1.590        0.303      160.465       30.368        0.036      339.845       13.455      867.100
03/14/2014  20:04:00     -133.640      -50.464        4.813       64.554       57.281       34.856     4167.220     3281.165     1214.949        1.454        0.433      142.851       32.527        0.052      339.859       13.480      867.131
03/14/2014  20:05:00     -197.185      -76.069       -0.888       90.161       68.112       32.458     8129.015     4639.248     1053.550        2.924        0.691      211.349       37.141        0.031      339.697       13.205      867.150
03/14/2014  20:06:00     -132.834      -67.927       -0.439       62.073       56.031       37.509     3853.058     3139.463     1406.925        1.533        0.420      149.194       32.011        0.046      339.671       13.165      867.165
03/14/2014  20:07:00     -132.729      -51.898        2.344       83.476       53.312       30.041     6968.243     2842.155      902.448        1.551        0.536      142.515       33.215        0.054      339.696       13.204      867.188
03/14/2014  20:08:00      -96.125      -33.568       11.605       71.140       41.019       26.564     5060.961     1682.556      705.626        0.897        0.372      101.818       31.498        0.096      339.617       13.072      867.220
03/14/2014  20:09:00     -144.092      -35.283      -12.055       41.967       26.266       25.023     1761.209      689.913      626.130        1.261        0.154      148.349       25.583        0.030      339.681       13.182      867.256
03/14/2014  20:10:00     -121.400      -30.342       -2.928       41.139       36.308       22.502     1692.402     1318.263      506.335        0.959        0.176      125.134       19.640        0.025      339.718       13.243      867.292
03/14/2014  20:11:00     -183.875      -57.075       -8.305       63.489       44.440       27.381     4030.878     1974.932      749.743        2.194        0.338      192.530       27.019        0.020      339.718       13.241      867.321
03/14/2014  20:12:00     -197.991      -54.762       -7.612       55.322       46.677       30.340     3060.499     2178.767      920.528        2.421        0.308      205.424       31.312        0.023      339.607       13.055      867.349
03/14/2014  20:13:00     -194.909      -46.560       -6.027       59.972       45.125       29.953     3596.615     2036.231      897.173        2.336        0.327      200.393       24.281        0.015      339.581       13.012      867.359
03/14/2014  20:14:00     -161.032      -28.511      -10.287       35.392       29.291       20.748     1252.580      857.988      430.483        1.469        0.127      163.536       19.328        0.014      339.605       13.053      867.362
03/14/2014  20:15:00      -91.100      -53.065        8.652       83.696       45.827       36.302     7005.037     2100.097     1317.805        1.080        0.521      105.428       44.132        0.175      339.638       13.109      867.353
03/14/2014  20:16:00     -135.621      -78.298       -3.971       56.225       50.024       29.169     3161.214     2502.355      850.809        1.553        0.326      156.600       31.047        0.039      339.651       13.128      867.352
03/14/2014  20:17:00     -145.087      -68.193       -3.202       44.635       40.990       28.733     1992.271     1680.157      825.595        1.510        0.225      160.314       24.797        0.024      339.572       12.997      867.345
03/14/2014  20:18:00     -106.651      -56.525      -12.764       32.232       59.905       23.115     1038.911     3588.580      534.298        0.995        0.258      120.704       20.518        0.029      339.650       13.129      867.354
03/14/2014  20:19:00      -35.237      -22.742        3.348       32.490       36.991       19.311     1055.608     1368.362      372.908        0.228        0.140       41.938       15.790        0.142      339.681       13.181      867.365
03/14/2014  20:20:00      -39.982       -0.345        0.132       25.729       28.066       14.557      661.997      787.700      211.899        0.163        0.083       39.983        5.923        0.022      339.773       13.336      867.381
03/14/2014  20:21:00     -132.649      -39.165      -14.882       25.287       28.687       16.832      639.424      822.916      283.329        1.055        0.087      138.310       11.694        0.007      339.629       13.094      867.383
03/14/2014  20:22:00     -110.226      -76.640        6.690       59.425       37.619       28.036     3531.313     1415.154      786.022        1.190        0.287      134.252       28.503        0.045      339.536       12.936      867.362
03/14/2014  20:23:00     -117.153      -64.038        9.624       72.719       46.767       31.768     5287.993     2187.118     1009.207        1.320        0.424      133.513       32.992        0.061      339.584       13.017      867.363
03/14/2014  20:24:00     -108.097      -16.359        2.860       63.440       48.917       24.908     4024.679     2392.848      620.409        0.950        0.352      109.328       31.097        0.081      339.511       12.893      867.360
03/14/2014  20:25:00      -84.597       73.969      -16.234       29.301       36.161       18.456      858.567     1307.602      340.625        0.770        0.125      112.374       16.912        0.023      339.458       12.807      867.374
03/14/2014  20:26:00     -113.710       51.152      -14.991       30.997       23.036       17.050      960.820      530.676      290.715        0.878        0.089      124.685        8.311        0.004      339.652       13.132      867.376
03/14/2014  20:27:00     -112.414       36.971       -7.915       31.269       25.888       19.287      977.776      670.187      371.974        0.804        0.101      118.338       15.351        0.017      339.867       13.494      867.369
03/14/2014  20:28:00     -119.791      -18.511      -15.062       23.278       34.589       18.192      541.848     1196.420      330.952        0.849        0.103      121.213       16.150        0.018      339.453       12.797      867.355
03/14/2014  20:29:00     -114.932      -75.878      -10.873       32.873       25.087       21.849     1080.622      629.376      477.396        1.064        0.109      137.720       18.386        0.018      339.368       12.652      867.335
03/14/2014  20:30:00     -139.318      -64.534      -22.568       29.547       27.988       17.968      873.024      783.350      322.863        1.303        0.099      153.539       16.246        0.011      339.455       12.801      867.309
03/14/2014  20:31:00     -126.792      -54.383       -8.532       50.038       51.003       23.639     2503.820     2601.286      558.792        1.238        0.283      137.963       13.930        0.010      339.467       12.819      867.291
03/14/2014  20:32:00     -101.104       38.241      -16.027       46.716       24.284       21.324     2182.359      589.724      454.709        0.758        0.161      108.095       22.176        0.042      339.532       12.931      867.295
03/14/2014  20:33:00     -116.544      -31.223      -19.400       69.272       42.871       27.308     4798.570     1837.910      745.738        1.116        0.369      120.654       37.084        0.094      339.341       12.607      867.281
03/14/2014  20:34:00     -144.956      -12.160       -2.574       44.675       55.677       27.594     1995.854     3099.874      761.406        1.351        0.293      145.465       19.945        0.019      339.527       12.920      867.286
03/14/2014  20:35:00     -205.349      -27.520      -18.840       36.538       60.578       28.655     1335.025     3669.641      821.137        2.455        0.291      207.185       21.694        0.011      339.163       12.305      867.307
03/14/2014  20:36:00     -173.508       -7.540      -15.165       44.218       40.171       22.970     1955.189     1613.744      527.612        1.724        0.205      173.672       20.310        0.014      339.183       12.342      867.331
03/14/2014  20:37:00     -149.030      -27.045      -17.264       52.506       28.803       24.234     2756.871      829.605      587.293        1.371        0.209      151.464       27.000        0.032      339.012       12.054      867.360
03/14/2014  20:38:00     -154.607      -43.240       -8.137       60.827       50.697       31.563     3699.927     2570.135      996.224        1.655        0.363      160.540       24.645        0.024      339.146       12.281      867.363
03/14/2014  20:39:00     -172.141      -21.933      -10.758       84.785       40.159       36.743     7188.492     1612.765     1350.079        2.019        0.508      173.532       42.319        0.059      338.950       11.948      867.389
03/14/2014  20:40:00      -96.427      -37.576       -9.177       42.309       51.056       26.383     1790.059     2606.759      696.087        0.794        0.255      103.490       20.930        0.041      339.066       12.146      867.398
03/14/2014  20:41:00      -85.175       10.806       -6.082       40.956       33.121       25.536     1677.384     1096.982      652.088        0.542        0.171       85.858        8.370        0.010      339.109       12.217      867.420
03/14/2014  20:42:00     -137.079        0.734      -15.840       51.067       35.434       21.586     2607.884     1255.561      465.940        1.168        0.216      137.081       18.382        0.018      338.903       11.871      867.445
03/14/2014  20:43:00     -162.592       35.508      -11.608       56.408       52.386       35.677     3181.867     2744.303     1272.848        1.751        0.360      166.424       30.795        0.034      338.729       11.577      867.460
03/14/2014  20:44:00     -153.309        9.463      -18.942       40.397       53.678       27.648     1631.908     2881.302      764.396        1.461        0.264      153.600       18.658        0.015      338.693       11.517      867.478
03/14/2014  20:45:00     -125.561      -33.102       -7.855       44.321       42.007       35.216     1964.348     1764.614     1240.166        1.095        0.248      129.851       26.067        0.040      338.694       11.519      867.505
03/14/2014  20:46:00     -142.082      -13.186       -9.679       72.202       61.726       35.824     5213.071     3810.116     1283.361        1.538        0.515      142.692       35.838        0.063      338.690       11.512      867.533
03/14/2014  20:47:00     -173.665      -23.575      -22.015       57.308       43.136       29.376     3284.172     1860.688      862.939        1.860        0.300      175.257       32.778        0.035      338.617       11.389      867.548
03/14/2014  20:48:00     -213.421      -39.526      -22.448       68.378       48.357       26.994     4675.502     2338.413      728.694        2.768        0.387      217.050       26.215        0.015      338.405       11.031      867.556
03/14/2014  20:49:00     -162.907      -24.782       -8.738       52.523       51.364       37.232     2758.716     2638.307     1386.221        1.700        0.339      164.781       39.019        0.056      338.469       11.142      867.579
03/14/2014  20:50:00     -115.856      -54.250      -18.624       56.616       32.300       28.927     3205.413     1043.315      836.788        1.090        0.254      127.929       19.056        0.022      338.419       11.058      867.589
03/14/2014  20:51:00     -141.131      -43.121      -20.495       26.303       36.344       22.977      691.855     1320.877      527.953        1.237        0.127      147.571       14.642        0.010      338.370       10.974      867.596
03/14/2014  20:52:00     -174.828      -55.567      -25.895       31.704       19.201       18.043     1005.164      368.667      325.551        1.801        0.085      183.446        9.646        0.003      338.421       11.060      867.606
03/14/2014  20:53:00     -142.512      -48.661      -24.955       23.502       18.197       20.583      552.367      331.128      423.666        1.230        0.065      150.591       15.330        0.010      338.497       11.189      867.637
03/14/2014  20:54:00     -124.603      -47.634      -23.105       31.056       25.314       26.939      964.483      640.802      725.711        1.033        0.117      133.397       12.929        0.009      338.503       11.200      867.651
03/14/2014  20:55:00     -110.814      -36.236      -13.582       34.896       34.476       21.443     1217.755     1188.577      459.789        0.832        0.143      116.589        8.881        0.006      338.552       11.281      867.663
03/14/2014  20:56:00      -99.832      -26.324       -5.771       52.742       40.143       28.880     2781.702     1611.491      834.053        0.796        0.261      103.244       28.272        0.075      338.706       11.539      867.689
03/14/2014  20:57:00     -108.580      -53.102      -15.274       31.449       28.407       21.489      989.018      806.967      461.793        0.855        0.113      120.870       16.174        0.018      338.597       11.355      867.685
03/14/2014  20:58:00      -98.017        0.302       -2.815       31.067       30.358       22.733      965.172      921.635      516.808        0.601        0.120       98.017       17.977        0.034      338.902       11.868      867.700
03/14/2014  20:59:00     -111.635        6.176       -9.118       30.601       42.532       23.291      936.451     1809.012      542.491        0.794        0.164      111.806       11.149        0.010      338.940       11.933      867.707
03/14/2014  21:00:00     -128.280      -24.582      -15.526       28.828       26.193       22.985      831.076      686.053      528.311        0.967        0.102      130.614       16.035        0.015      338.837       11.761      867.713
03/14/2014  21:01:00     -118.089      -27.566      -14.481       37.802       30.894       23.449     1428.983      954.441      549.849        0.892        0.147      121.264       20.589        0.029      338.781       11.667      867.742
03/14/2014  21:02:00     -100.830      -23.063      -18.445       29.517       36.478       21.298      871.257     1330.622      453.620        0.685        0.133      103.434       12.843        0.015      338.686       11.507      867.761
03/14/2014  21:03:00      -76.754      -20.770        0.369       46.977       35.382       20.522     2206.856     1251.900      421.140        0.510        0.194       79.515       17.592        0.049      338.792       11.684      867.780
03/14/2014  21:04:00      -95.305      -10.269       -9.678       34.444       24.336       14.942     1186.385      592.248      223.275        0.564        0.100       95.856        5.061        0.003      338.734       11.587      867.803
03/14/2014  21:05:00      -66.578      -11.047       -9.539       44.302       44.187       24.330     1962.699     1952.497      591.941        0.458        0.225       67.488       19.708        0.085      338.700       11.529      867.842
03/14/2014  21:06:00      -50.822       -3.400       -1.410       28.390       39.251       19.653      806.018     1540.670      386.258        0.266        0.137       50.936       13.010        0.065      338.859       11.796      867.858
03/14/2014  21:07:00      -50.940      -17.075       -0.926       32.667       23.977       16.839     1067.122      574.879      283.548        0.241        0.096       53.726       17.412        0.105      339.003       12.039      867.884
03/14/2014  21:08:00      -64.744      -25.748       -3.797       21.923       22.222       15.479      480.599      493.802      239.614        0.304        0.061       69.676       10.717        0.024      338.852       11.785      867.908
03/14/2014  21:09:00      -38.311       -7.538       -0.516       23.295       26.438       17.360      542.651      698.964      301.366        0.153        0.077       39.045       11.462        0.086      338.907       11.878      867.945
03/14/2014  21:10:00     -102.260      -28.165       -9.319       24.280       28.563       14.426      589.534      815.866      208.098        0.648        0.081      106.068       10.456        0.010      338.880       11.831      867.956
03/14/2014  21:11:00     -113.684      -29.670       -8.148       25.910       28.230       16.133      671.334      796.906      260.275        0.780        0.086      117.492       13.200        0.013      338.831       11.751      867.967
03/14/2014  21:12:00     -126.683      -18.804      -16.578       30.126       26.131       17.534      907.563      682.843      307.452        0.929        0.095      128.071       13.651        0.011      338.775       11.655      867.974
03/14/2014  21:13:00      -73.325      -47.058       -6.369       44.727       24.621       22.725     2000.514      606.180      516.415        0.538        0.156       87.126       24.344        0.078      338.581       11.330      867.974
03/14/2014  21:14:00     -105.637      -55.004      -10.356       17.670       17.872       17.363      312.227      319.391      301.463        0.761        0.047      119.099       11.730        0.010      338.491       11.178      867.973
03/14/2014  21:15:00     -120.658      -56.620      -18.455       15.824       13.990       11.898      250.396      195.716      141.565        0.935        0.029      133.283        8.535        0.004      338.444       11.099      867.967
03/14/2014  21:16:00     -155.291      -65.165      -16.011       18.448       15.507       12.391      340.327      240.458      153.529        1.468        0.037      168.409        4.184        0.001      338.426       11.068      867.965
03/14/2014  21:17:00     -152.189      -42.917      -12.750       26.043       22.406       17.704      678.235      502.014      313.416        1.333        0.075      158.124       12.184        0.006      338.406       11.036      867.974
03/14/2014  21:18:00     -146.506      -32.096      -16.170       19.713       24.660       16.071      388.597      608.138      258.269        1.201        0.063      149.981       11.121        0.005      338.471       11.144      867.983
03/14/2014  21:19:00     -115.223      -47.796      -11.088       20.720       21.517       18.563      429.336      462.999      344.588        0.846        0.062      124.743       11.507        0.009      338.470       11.144      867.995
03/14/2014  21:20:00     -116.883      -42.051      -15.224       23.017       21.532       20.043      529.780      463.641      401.713        0.853        0.070      124.217       14.437        0.014      338.455       11.118      868.011
03/14/2014  21:21:00     -115.318       -6.717       -9.381       41.772       30.528       28.219     1744.919      931.986      796.323        0.845        0.174      115.513       27.082        0.055      338.737       11.592      868.013
03/14/2014  21:22:00      -99.727      -17.264       -8.132       39.520       28.216       22.339     1561.797      796.168      499.009        0.658        0.143      101.211       22.755        0.051      338.677       11.490      868.019
03/14/2014  21:23:00     -153.552      -33.590      -18.716       26.879       29.530       19.831      722.506      872.012      393.270        1.352        0.099      157.183       16.574        0.011      338.653       11.450      868.026
03/14/2014  21:24:00     -193.293        2.911      -18.647       32.956       32.997       25.453     1086.078     1088.830      647.862        2.027        0.141      193.315       17.355        0.008      338.647       11.440      868.035
03/14/2014  21:25:00     -193.011        7.052      -30.770       30.731       26.732       24.452      944.415      714.603      597.890        2.025        0.113      193.140       18.530        0.009      338.537       11.256      868.040
03/14/2014  21:26:00     -172.774       -4.378      -26.262       63.302       28.670       24.955     4007.139      821.963      622.739        1.800        0.273      172.829       32.593        0.036      338.659       11.462      868.061
03/14/2014  21:27:00     -137.931      -14.666      -16.102       58.519       44.553       26.334     3424.510     1984.939      693.489        1.280        0.305      138.709       27.123        0.038      338.511       11.212      868.072
03/14/2014  21:28:00     -129.047      -26.117      -15.309       37.019       43.674       25.238     1370.413     1907.399      636.964        1.074        0.196      131.663       16.358        0.015      338.574       11.317      868.088
03/14/2014  21:29:00     -134.844       37.490      -15.721       29.109       43.527       24.622      847.322     1894.628      606.220        1.159        0.167      139.958       22.496        0.026      338.707       11.542      868.103
03/14/2014  21:30:00     -114.095       15.657      -18.443       53.719       38.964       32.144     2885.779     1518.187     1033.206        0.952        0.272      115.164       31.521        0.075      338.734       11.586      868.108
03/14/2014  21:31:00     -102.234        1.057      -19.877       36.785       45.513       29.826     1353.170     2071.466      889.583        0.758        0.216      102.239       23.353        0.052      338.721       11.565      868.106
03/14/2014  21:32:00     -107.858      -57.014       -7.365       50.954       43.394       30.258     2596.273     1882.997      915.551        1.017        0.270      122.000       16.042        0.017      338.541       11.263      868.098
03/14/2014  21:33:00     -119.103      -19.801       -9.858       47.407       54.802       32.280     2247.428     3003.216     1041.999        1.048        0.315      120.738       26.435        0.048      338.561       11.297      868.084
03/14/2014  21:34:00     -103.213      -27.606      -18.262       26.271       21.403       18.603      690.192      458.110      346.078        0.662        0.075      106.841        8.124        0.006      338.546       11.271      868.072
03/14/2014  21:35:00     -103.242      -18.395       -8.631       30.294       31.647       22.749      917.705     1001.550      517.532        0.675        0.122      104.868       15.188        0.021      338.523       11.232      868.062
03/14/2014  21:36:00      -86.804       -9.837       -7.031       43.313       44.539       25.526     1876.040     1983.714      651.586        0.610        0.226       87.360       22.630        0.067      338.550       11.277      868.059
03/14/2014  21:37:00      -93.817       12.278       -7.245       32.098       33.529       23.149     1030.266     1124.171      535.874        0.585        0.135       94.617       20.772        0.048      338.832       11.751      868.048
03/14/2014  21:38:00     -130.807      -13.924      -16.979       41.529       43.752       29.938     1724.623     1914.214      896.279        1.106        0.227      131.546       22.779        0.030      338.728       11.576      868.044
03/14/2014  21:39:00     -132.501      -48.407      -21.758       41.869       39.709       24.907     1752.998     1576.790      620.358        1.216        0.198      141.066       14.880        0.011      338.412       11.046      868.053
03/14/2014  21:40:00     -112.633      -49.106      -11.486       34.671       33.484       22.647     1202.107     1121.212      512.892        0.903        0.142      122.872       18.582        0.023      338.386       11.002      868.067
03/14/2014  21:41:00     -104.585      -36.195      -10.596       36.774       46.857       25.470     1352.314     2195.566      648.711        0.828        0.210      110.671       21.851        0.039      338.440       11.092      868.078
03/14/2014  21:42:00      -90.894      -22.829       -2.511       37.498       31.027       25.408     1406.122      962.676      645.587        0.590        0.151       93.717       19.042        0.041      338.563       11.300      868.075
03/14/2014  21:43:00      -87.439      -35.653      -15.097       41.444       41.536       26.609     1717.608     1725.231      708.054        0.665        0.208       94.428       23.231        0.061      338.514       11.217      868.074
03/14/2014  21:44:00     -117.440      -42.951      -17.269       30.611       35.630       19.734      937.008     1269.471      389.413        0.927        0.130      125.048       11.459        0.008      338.347       10.937      868.067
03/14/2014  21:45:00     -131.229      -28.318      -12.274       54.713       40.163       23.468     2993.557     1613.086      550.762        1.166        0.258      134.249       25.541        0.036      338.279       10.822      868.072
03/14/2014  21:46:00      -62.695       -2.178       -9.711       27.246       29.432       20.839      742.344      866.263      434.271        0.304        0.102       62.733       11.309        0.032      338.512       11.215      868.069
03/14/2014  21:47:00      -51.084      -10.294       -5.463       32.140       28.214       14.539     1032.998      796.031      211.374        0.239        0.102       52.111       11.729        0.051      338.381       10.993      868.076
03/14/2014  21:48:00      -84.713       66.075      -19.128       30.553       33.863       23.969      933.497     1146.693      574.504        0.728        0.133      107.434       16.906        0.025      338.534       11.251      868.091
03/14/2014  21:49:00     -114.067       40.607       -7.838       43.819       33.908       25.305     1920.081     1149.758      640.356        0.922        0.186      121.080       19.148        0.025      338.818       11.727      868.100
03/14/2014  21:50:00      -65.738       29.079      -10.721       39.492       38.089       30.804     1559.611     1450.800      948.892        0.462        0.198       71.882       27.157        0.143      338.678       11.493      868.103
03/14/2014  21:51:00      -80.750       15.485        1.086       39.163       37.016       25.089     1533.754     1370.217      629.467        0.515        0.177       82.221       23.801        0.084      338.546       11.271      868.121
03/14/2014  21:52:00      -49.449       -4.020       -3.602       28.134       31.545       15.458      791.512      995.117      238.947        0.225        0.101       49.612       13.249        0.071      338.553       11.283      868.145
03/14/2014  21:53:00      -58.320       11.621       -3.604       32.592       19.097       15.406     1062.259      364.696      237.358        0.261        0.083       59.467       17.136        0.083      338.556       11.287      868.190
03/14/2014  21:54:00      -67.324        1.161       -6.997       28.842       33.937       16.908      831.880     1151.686      285.867        0.343        0.113       67.334       11.060        0.027      338.613       11.384      868.227
03/14/2014  21:55:00      -61.561        4.167       -6.746       24.651       33.495       21.176      607.690     1121.913      448.422        0.301        0.109       61.702       18.666        0.092      338.485       11.170      868.272
03/14/2014  21:56:00      -95.081       76.107      -25.024       29.447       27.794       22.904      867.112      772.500      524.598        0.881        0.108      121.790       10.244        0.007      338.621       11.399      868.315
03/14/2014  21:57:00      -80.919       82.776      -21.152       33.591       42.237       23.924     1128.334     1783.944      572.368        0.867        0.174      115.757       18.798        0.026      338.550       11.278      868.363
03/14/2014  21:58:00     -104.910       78.483      -17.242       39.263       37.814       32.111     1541.586     1429.899     1031.109        1.073        0.200      131.018       23.125        0.031      338.637       11.425      868.392
03/14/2014  21:59:00     -106.505       63.695      -25.864       41.052       40.802       21.932     1685.274     1664.780      481.028        0.995        0.192      124.098       18.721        0.023      338.645       11.438      868.407
03/14/2014  22:00:00      -66.284        2.576       -5.096       30.097       34.101       23.293      905.830     1162.891      542.559        0.352        0.131       66.334       19.680        0.088      338.563       11.300      868.420
03/14/2014  22:01:00      -54.503      -35.970      -14.092       26.790       35.708       15.476      717.709     1275.026      239.501        0.335        0.112       65.303       15.132        0.054      338.552       11.281      868.428
03/14/2014  22:02:00      -15.252      -24.105        8.094       24.871       19.069       20.189      618.581      363.613      407.583        0.113        0.069       28.525       15.144        0.282      338.317       10.887      868.429
03/14/2014  22:03:00      -19.309      -43.503        7.852       31.912       16.343       15.659     1018.354      267.088      245.219        0.193        0.077       47.595        7.695        0.026      338.320       10.891      868.438
03/14/2014  22:04:00      -24.998      -20.044        1.094       22.258       17.654       10.801      495.403      311.670      116.664        0.098        0.046       32.042        6.897        0.046      338.434       11.082      868.439
03/14/2014  22:05:00        7.160      -29.901        2.953       27.574       20.720       21.700      760.311      429.299      470.881        0.131        0.083       30.746       17.653        0.330      338.517       11.221      868.446
03/14/2014  22:06:00      -49.554      -84.824        0.745       46.776       44.945       25.099     2187.989     2020.066      629.963        0.724        0.242       98.239       24.439        0.062      338.410       11.040      868.481
03/14/2014  22:07:00      -24.555      -12.683       13.725       43.011       58.130       20.663     1849.926     3379.113      426.961        0.330        0.283       27.637       19.185        0.482      338.288       10.839      868.522
03/14/2014  22:08:00      -10.090       22.390       36.236       17.461       29.871       27.821      304.883      892.281      774.022        0.194        0.099       24.559       18.268        0.553      338.262       10.793      868.555
03/14/2014  22:09:00      -19.613       -1.795       12.582       21.691       28.926       16.509      470.492      836.711      272.546        0.106        0.079       19.695       13.921        0.500      338.344       10.931      868.569
03/14/2014  22:10:00       13.200      -70.299        8.486       29.773       49.717       34.207      886.417     2471.797     1170.140        0.486        0.226       71.527       28.109        0.154      338.388       11.005      868.567
03/14/2014  22:11:00       30.973      -48.228        8.650       41.338       48.553       34.467     1708.857     2357.432     1187.967        0.431        0.263       57.317       34.063        0.353      338.333       10.913      868.551
03/14/2014  22:12:00       33.769      -80.199       -6.937       53.711       36.675       32.341     2884.913     1345.072     1045.943        0.645        0.264       87.019       26.785        0.095      338.529       11.241      868.554
03/14/2014  22:13:00       -2.188      -19.940       34.620       21.376       32.420       26.685      456.932     1051.027      712.103        0.191        0.111       20.059       19.257        0.922      338.445       11.100      868.576
03/14/2014  22:14:00       -7.539       20.456       63.204       15.995       37.734       20.531      255.851     1423.828      421.535        0.329        0.105       21.801       20.960        0.924      338.486       11.170      868.606
03/14/2014  22:15:00        1.805       24.683       59.592       25.866       31.645       21.277      669.024     1001.399      452.727        0.314        0.106       24.749       14.753        0.355      338.567       11.307      868.622
03/14/2014  22:16:00       19.475       58.844       58.873       30.804       26.794       26.271      948.906      717.928      690.143        0.483        0.118       61.984       23.121        0.139      338.574       11.318      868.639
03/14/2014  22:17:00       58.004       23.487        7.580       31.165       24.920       15.600      971.269      620.991      243.351        0.290        0.092       62.579       14.393        0.053      338.492       11.180      868.644
03/14/2014  22:18:00       74.364       34.792        6.159       26.645       17.821       17.200      709.936      317.586      295.826        0.405        0.066       82.100        6.762        0.007      338.406       11.036      868.648
03/14/2014  22:19:00       30.159       22.937       -0.203       26.188       21.873       14.172      685.803      478.448      200.850        0.140        0.068       37.890       10.450        0.076      338.356       10.952      868.658
03/14/2014  22:20:00       12.509        5.053       -0.804       18.958       22.942       18.269      359.416      526.336      333.754        0.070        0.061       13.492       16.370        1.472      338.404       11.032      868.672
03/14/2014  22:21:00       -1.902       45.558      -11.129       14.401       27.584       11.553      207.402      760.889      133.479        0.165        0.055       45.598       10.271        0.051      338.604       11.370      868.690
03/14/2014  22:22:00      -28.844        3.539       -3.208       23.140       35.051       16.406      535.479     1228.587      269.159        0.144        0.102       29.060       16.015        0.304      338.427       11.071      868.712
03/14/2014  22:23:00      -61.921        5.708       -8.975       17.042       25.263       14.092      290.428      638.243      198.588        0.254        0.056       62.184       10.580        0.029      338.498       11.191      868.732
03/14/2014  22:24:00      -65.354      -22.806      -10.139       24.841       28.430       19.082      617.075      808.284      364.116        0.334        0.089       69.219       14.343        0.043      338.363       10.964      868.754
03/14/2014  22:25:00     -118.610        7.090      -12.136       62.810       37.055       26.957     3945.150     1373.079      726.683        1.015        0.302      118.821       26.062        0.048      338.272       10.811      868.777
03/14/2014  22:26:00      -79.602       -3.076       -9.553       52.095       34.846       23.463     2713.879     1214.221      550.500        0.546        0.224       79.662       26.934        0.114      338.313       10.878      868.782
03/14/2014  22:27:00     -138.879        3.983      -17.737       58.353       42.508       27.835     3405.116     1806.963      774.764        1.280        0.299      138.936       26.739        0.037      338.305       10.865      868.773
03/14/2014  22:28:00     -193.835       34.662      -26.527       39.072       28.930       20.455     1526.591      836.955      418.425        2.113        0.139      196.910       18.714        0.009      338.259       10.789      868.771
03/14/2014  22:29:00     -140.078       51.565      -17.439       43.479       26.127       23.935     1890.404      682.614      572.862        1.286        0.157      149.268       22.829        0.023      338.340       10.925      868.761
03/14/2014  22:30:00     -109.721       17.043      -16.611       34.300       38.431       22.119     1176.494     1476.922      489.250        0.787        0.157      111.037       21.867        0.039      338.465       11.135      868.753
03/14/2014  22:31:00     -115.988       22.195       -6.582       40.387       29.355       23.234     1631.073      861.718      539.802        0.851        0.152      118.093       22.971        0.038      338.558       11.292      868.743
03/14/2014  22:32:00      -72.865        4.823       -5.592       38.353       25.979       20.622     1470.976      674.913      425.257        0.397        0.129       73.025       18.633        0.065      338.484       11.168      868.754
03/14/2014  22:33:00     -125.796       14.913      -21.362       27.859       33.955       22.617      776.139     1152.969      511.514        0.947        0.122      126.677       17.062        0.018      338.292       10.845      868.764
03/14/2014  22:34:00     -121.116      -11.546      -15.527       22.996       34.058       18.127      528.823     1159.930      328.572        0.853        0.101      121.666        9.310        0.006      337.949       10.270      868.767
03/14/2014  22:35:00      -72.895      -46.184       -4.903       27.038       31.053       18.059      731.065      964.260      326.114        0.475        0.101       86.294       13.221        0.023      337.947       10.266      868.764
03/14/2014  22:36:00      -49.750      -12.430       -2.234       34.263       37.401       19.315     1173.970     1398.808      373.063        0.279        0.147       51.279       19.507        0.145      337.988       10.335      868.771
03/14/2014  22:37:00     -119.042       11.359      -17.142       23.586       32.216       23.438      556.288     1037.845      549.360        0.837        0.107      119.582       15.857        0.018      338.026       10.398      868.781
03/14/2014  22:38:00      -83.652       41.528       -6.553       40.559       35.944       23.052     1645.038     1291.961      531.386        0.612        0.173       93.393       19.951        0.046      338.135       10.582      868.798
03/14/2014  22:39:00     -106.323       37.216      -12.670       34.333       33.106       19.043     1178.761     1096.036      362.624        0.774        0.132      112.648       15.632        0.019      338.242       10.761      868.816
03/14/2014  22:40:00      -84.757       -9.221       -7.631       39.868       35.393       18.128     1589.431     1252.692      328.619        0.525        0.159       85.258       13.521        0.025      337.997       10.348      868.834
03/14/2014  22:41:00     -102.578       29.053      -13.141       43.396       47.652       25.583     1883.177     2270.721      654.499        0.817        0.240      106.613       22.426        0.044      338.019       10.386      868.837
03/14/2014  22:42:00      -84.199       15.599       -1.974       41.941       29.953       24.468     1759.058      897.173      598.695        0.530        0.163       85.632       22.752        0.071      338.137       10.587      868.841
03/14/2014  22:43:00     -114.893       30.068       -6.811       51.334       33.635       27.242     2635.163     1131.301      742.119        0.933        0.225      118.762       25.777        0.047      338.131       10.575      868.847
03/14/2014  22:44:00     -140.975       28.595      -19.662       45.305       34.613       21.248     2052.574     1198.073      451.486        1.239        0.185      143.846       18.826        0.017      338.073       10.476      868.864
03/14/2014  22:45:00     -105.321       41.116      -11.324       54.432       34.248       26.634     2962.793     1172.909      709.352        0.888        0.242      113.062       24.413        0.047      338.014       10.377      868.864
03/14/2014  22:46:00      -96.409        3.408      -11.873       27.211       45.175       18.704      740.447     2040.772      349.856        0.629        0.157       96.469       10.650        0.012      338.064       10.462      868.857
03/14/2014  22:47:00     -125.932       -5.955      -16.713       48.637       37.122       35.032     2365.582     1378.037     1227.236        1.057        0.249      126.073       32.454        0.066      338.094       10.513      868.851
03/14/2014  22:48:00     -101.422       -9.691       -3.580       41.533       31.514       20.472     1725.004      993.119      419.103        0.676        0.157      101.884       20.699        0.041      338.018       10.385      868.846
03/14/2014  22:49:00      -97.298      -35.315      -11.501       23.984       21.565       16.606      575.250      465.055      275.757        0.608        0.066      103.508       11.390        0.012      337.885       10.163      868.857
03/14/2014  22:50:00      -71.063      -27.329        0.737       38.402       35.567       19.745     1474.710     1265.003      389.866        0.446        0.156       76.137       16.822        0.049      337.941       10.254      868.854
03/14/2014  22:51:00      -71.022        8.813       -8.654       29.476       28.395       19.478      868.815      806.258      379.383        0.363        0.103       71.567       13.820        0.037      338.163       10.626      868.853
03/14/2014  22:52:00      -96.740       -2.928      -18.390       31.112       26.658       15.926      967.961      710.650      253.634        0.582        0.097       96.785       15.964        0.027      338.163       10.627      868.860
03/14/2014  22:53:00     -110.522      -26.310      -15.088       30.206       28.004       21.471      912.381      784.244      461.024        0.765        0.108      113.611       17.380        0.023      337.970       10.303      868.877
03/14/2014  22:54:00      -87.855       -8.991       -4.425       35.749       21.644       20.460     1278.017      468.449      418.630        0.499        0.108       88.314       20.782        0.055      338.022       10.391      868.917
03/14/2014  22:55:00      -61.434       -6.569       -3.247       45.870       26.330       23.085     2104.098      693.248      532.924        0.358        0.167       61.784       26.742        0.187      337.737        9.912      868.949
03/14/2014  22:56:00      -33.188      -30.403        4.200       32.945       21.878       15.528     1085.347      478.628      241.119        0.192        0.090       45.009       12.174        0.073      337.838       10.082      868.987
03/14/2014  22:57:00      -11.027      -35.551        2.981       44.467       18.840       13.345     1977.309      354.946      178.080        0.195        0.126       37.222       11.790        0.100      337.778        9.984      869.024
03/14/2014  22:58:00       -6.451      -53.974       -2.230       26.882       19.741       14.653      722.656      389.720      214.718        0.214        0.066       54.359       10.732        0.039      337.860       10.120      869.065
03/14/2014  22:59:00      -33.419      -36.284        0.428       41.248       27.426       25.824     1701.392      752.163      666.868        0.278        0.156       49.329       17.802        0.130      337.976       10.314      869.088
03/14/2014  23:00:00      -40.922      -32.515       10.388       49.119       34.600       24.696     2412.691     1197.160      609.910        0.353        0.211       52.267       21.294        0.166      337.985       10.330      869.119
03/14/2014  23:01:00      -65.953      -49.873       -4.151       40.002       29.548       19.322     1600.142      873.061      373.349        0.485        0.142       82.686       18.403        0.050      337.968       10.299      869.133
03/14/2014  23:02:00      -62.177      -47.891       -1.886       40.145       20.995       18.084     1611.637      440.797      327.044        0.427        0.119       78.483        8.311        0.011      337.951       10.272      869.151
03/14/2014  23:03:00      -31.131      -37.859       -2.605       21.875       19.599       14.474      478.513      384.111      209.508        0.174        0.054       49.015       11.179        0.052      338.030       10.405      869.164
03/14/2014  23:04:00      -26.143      -35.900       -4.453       30.156       22.142       12.174      909.367      490.253      148.215        0.177        0.077       44.411        7.201        0.026      338.035       10.415      869.169
03/14/2014  23:05:00      -16.230      -24.435        7.705       32.051       17.569       14.779     1027.276      308.678      218.417        0.124        0.078       29.334       14.375        0.240      338.057       10.451      869.184
03/14/2014  23:06:00      -75.154      -71.629        1.180       53.422       41.733       28.087     2853.934     1741.661      788.865        0.808        0.269      103.821       32.033        0.095      338.028       10.402      869.198
03/14/2014  23:07:00      -92.171      -85.642        1.956       51.293       37.741       30.314     2630.969     1424.404      918.964        1.040        0.249      125.818       29.977        0.057      338.002       10.357      869.210
03/14/2014  23:08:00     -124.819      -72.238       -1.330       39.061       25.459       20.489     1525.795      648.178      419.808        1.170        0.130      144.215       18.917        0.017      337.912       10.205      869.226
03/14/2014  23:09:00     -109.077      -49.739       -4.675       24.354       22.510       14.435      593.108      506.692      208.371        0.785        0.065      119.882        6.804        0.003      337.959       10.286      869.251
03/14/2014  23:10:00      -91.534      -55.633        7.299       33.950       29.074       18.602     1152.620      845.320      346.021        0.693        0.117      107.114       19.488        0.033      337.992       10.342      869.285
03/14/2014  23:11:00     -152.165      -66.335       -2.885       43.158       29.510       26.284     1862.633      870.832      690.863        1.549        0.171      165.996       26.822        0.026      337.920       10.220      869.318
03/14/2014  23:12:00     -103.060      -28.141      -11.414       39.498       32.685       22.911     1560.056     1068.282      524.904        0.735        0.158      106.833       21.043        0.039      337.883       10.160      869.364
03/14/2014  23:13:00      -66.698      -39.666       -3.134       30.978       39.422       22.284      959.660     1554.058      496.570        0.452        0.151       77.602       19.296        0.062      337.813       10.040      869.398
03/14/2014  23:14:00     -116.924      -64.257       -8.047       25.155       30.403       19.744      632.794      924.316      389.829        0.991        0.097      133.417       11.105        0.007      337.936       10.247      869.437
03/14/2014  23:15:00      -19.092      -26.010       10.966       35.916       28.044       20.138     1289.947      786.489      405.550        0.182        0.124       32.265       20.300        0.396      337.984       10.328      869.449
03/14/2014  23:16:00       -0.267        5.266       18.049       16.180       22.016       16.772      261.778      484.710      281.308        0.069        0.051        5.273        9.017        2.925      337.973       10.309      869.456
03/14/2014  23:17:00      -27.082       42.319       -0.706       35.639       27.285       21.795     1270.137      744.476      475.042        0.251        0.124       50.243       25.332        0.254      337.956       10.282      869.487
03/14/2014  23:18:00      -16.405       -2.145       -2.125       23.378       20.419       11.217      546.540      416.919      125.818        0.068        0.054       16.544       12.638        0.584      338.266       10.800      869.480
03/14/2014  23:19:00      -35.744      -40.818       -5.796       34.992       23.034        9.392     1224.431      530.545       88.201        0.241        0.092       54.256       10.836        0.040      338.169       10.636      869.447
03/14/2014  23:20:00      -90.555       28.465       -9.397       43.085       33.183       21.504     1856.329     1101.096      462.409        0.626        0.171       94.923       16.910        0.032      338.157       10.617      869.465
03/14/2014  23:21:00      -91.291       16.595      -15.351       46.410       33.249       23.740     2153.916     1105.485      563.564        0.633        0.191       92.787       23.272        0.063      338.351       10.945      869.467
03/14/2014  23:22:00      -12.570       25.479       -7.901       18.294       15.192        6.914      334.688      230.797       47.799        0.074        0.031       28.411        5.018        0.031      338.333       10.912      869.426
03/14/2014  23:23:00     -127.800       15.315      -15.199       37.097       34.933       23.309     1376.171     1220.331      543.323        0.997        0.157      128.714       14.114        0.012      338.387       11.003      869.440
03/14/2014  23:24:00     -134.036      -39.985      -24.515       77.089       29.207       21.650     5942.776      853.043      468.729        1.371        0.363      139.873       24.581        0.031      337.707        9.863      869.445
03/14/2014  23:25:00      -28.810       42.891      -11.399       41.769       55.070       18.241     1744.621     3032.663      332.734        0.395        0.256       51.669       28.600        0.306      337.927       10.232      869.445
03/14/2014  23:26:00      -72.454       56.722      -12.379       34.234       40.588       23.570     1171.962     1647.356      555.545        0.600        0.169       92.016       23.960        0.068      338.149       10.605      869.460
03/14/2014  23:27:00      -65.037       82.126      -21.178       32.228       41.253       20.342     1038.642     1701.775      413.791        0.729        0.158      104.759       26.083        0.062      338.186       10.666      869.455
03/14/2014  23:28:00      -84.277       57.875      -15.069       26.485       33.949       22.674      701.471     1152.562      514.094        0.652        0.118      102.235       19.552        0.037      338.215       10.717      869.463
03/14/2014  23:29:00      -83.407       97.321      -28.649       24.247       53.679       15.661      587.899     2881.394      245.268        1.048        0.186      128.172       19.740        0.024      338.190       10.673      869.469
03/14/2014  23:30:00      -67.007       77.169      -25.692       25.081       24.496       15.567      629.064      600.061      242.322        0.629        0.074      102.201        9.748        0.009      338.287       10.836      869.476
03/14/2014  23:31:00      -83.749      -10.042      -13.938       13.297       22.874       11.744      176.811      523.233      137.923        0.407        0.042       84.349       10.218        0.015      337.907       10.198      869.465
03/14/2014  23:32:00      -71.626      -23.018       -8.628       21.998       15.993       13.444      483.915      255.790      180.734        0.333        0.046       75.233        9.292        0.015      337.736        9.912      869.467
03/14/2014  23:33:00      -74.137      -29.932       -8.363       20.847       12.967       16.066      434.588      168.144      258.106        0.366        0.043       79.951        7.831        0.010      337.633        9.739      869.455
03/14/2014  23:34:00      -56.147       -6.454       -5.215       20.283       20.183       14.802      411.407      407.360      219.086        0.213        0.052       56.516       11.865        0.044      337.742        9.921      869.467
03/14/2014  23:35:00      -78.554      -24.695      -14.662       20.817       20.905       13.438      433.328      437.023      180.577        0.402        0.053       82.344        9.477        0.013      337.714        9.874      869.487
03/14/2014  23:36:00     -101.212      -34.320      -16.415       21.511       27.621        9.814      462.742      762.932       96.313        0.651        0.066      106.872        7.818        0.005      337.611        9.703      869.493
03/14/2014  23:37:00     -110.621      -46.590       -9.008       21.202       14.988       17.592      449.541      224.650      309.490        0.774        0.049      120.032       11.895        0.010      337.508        9.529      869.500
03/14/2014  23:38:00     -132.935      -48.048      -16.645       22.796       25.396       13.516      519.667      644.980      182.677        1.080        0.067      141.352        9.116        0.004      337.399        9.347      869.498
03/14/2014  23:39:00      -90.195      -55.028      -13.151       41.775       28.249       25.639     1745.157      797.998      657.348        0.727        0.160      105.656       25.520        0.058      337.400        9.347      869.505
03/14/2014  23:40:00     -157.665      -53.722      -17.930       26.908       20.803       14.253      724.041      432.769      203.149        1.471        0.068      166.566       10.347        0.004      337.329        9.230      869.519
03/14/2014  23:41:00     -103.312      -74.412      -10.708       50.425       34.655       23.182     2542.685     1200.969      537.426        1.030        0.214      127.320       31.876        0.063      337.428        9.396      869.535
03/14/2014  23:42:00      -95.393      -70.202       -4.857       57.863       34.492       22.382     3348.166     1189.667      500.949        0.954        0.252      118.440       26.774        0.051      337.516        9.542      869.562
03/14/2014  23:43:00      -82.832     -117.274        6.221       54.049       48.691       34.451     2921.335     2370.852     1186.900        1.356        0.324      143.576       36.723        0.065      337.659        9.783      869.591
03/14/2014  23:44:00      -94.117     -170.005       -2.755       54.096       69.668       34.688     2926.415     4853.687     1203.267        2.337        0.449      194.318       28.023        0.021      337.604        9.687      869.615
03/14/2014  23:45:00      -49.740     -191.549        8.258       58.475       67.624       35.529     3419.343     4572.977     1262.319        2.424        0.463      197.902       35.741        0.033      337.467        9.457      869.645
03/14/2014  23:46:00      -54.920     -147.159       -8.871       58.503       69.223       43.236     3422.622     4791.849     1869.331        1.742        0.504      157.073       32.269        0.042      337.501        9.517      869.655
03/14/2014  23:47:00      -93.695     -210.075      -10.267       79.083       52.370       43.961     6254.085     2742.604     1932.606        3.197        0.546      230.022       36.857        0.026      337.518        9.543      869.681
03/14/2014  23:48:00      -90.795     -193.929       -1.470       61.169       69.583       34.120     3741.612     4841.782     1164.184        2.780        0.487      214.131       21.034        0.010      337.496        9.507      869.707
03/14/2014  23:49:00      -95.896     -115.801      -13.327       53.960       52.707       33.727     2911.675     2778.044     1137.540        1.480        0.341      150.352       19.461        0.017      337.549        9.597      869.733
03/14/2014  23:50:00      -92.637     -120.431      -12.672       36.896       62.202       22.561     1361.317     3869.047      508.998        1.449        0.287      151.938       11.262        0.005      337.561        9.618      869.756
03/14/2014  23:51:00      -29.049     -100.330       -9.241       70.867       59.936       35.076     5022.129     3592.347     1230.315        1.042        0.492      104.451       21.680        0.043      337.599        9.683      869.766
03/14/2014  23:52:00       -5.577      -88.544      -14.244       63.465       63.436       27.792     4027.825     4024.145      772.400        0.845        0.441       88.720       26.343        0.088      337.697        9.846      869.775
03/14/2014  23:53:00       15.829      -35.332       18.799       26.680       29.498       20.989      711.834      870.123      440.528        0.194        0.101       38.716       20.494        0.280      337.735        9.910      869.785
03/14/2014  23:54:00        7.913      -58.505        3.017       26.787       26.540       22.425      717.517      704.369      502.876        0.271        0.096       59.038       12.482        0.045      337.721        9.887      869.804
03/14/2014  23:55:00        7.930      -45.240       -8.779       18.410       28.980       23.894      338.933      839.822      570.903        0.197        0.087       45.929       11.333        0.061      337.641        9.754      869.825
03/14/2014  23:56:00       -3.850      -19.402        0.365       22.769       23.947       16.276      518.448      573.447      264.899        0.087        0.068       19.781       15.165        0.588      337.626        9.727      869.850
03/14/2014  23:57:00      -48.102      -34.774        6.369       33.038       31.527       16.626     1091.492      993.957      276.426        0.296        0.118       59.355       11.397        0.037      337.546        9.592      869.870
03/14/2014  23:58:00      -66.165      -77.016        7.592       36.953       32.608       26.321     1365.501     1063.270      692.819        0.674        0.156      101.535       22.192        0.048      337.620        9.718      869.887
03/14/2014  23:59:00      -39.022     -127.918       -4.755       24.422       21.574       18.269      596.411      465.433      333.772        0.965        0.070      133.738       14.135        0.011      337.696        9.844      869.892
